[[{"header":{"parameterUnit":"m.s-1","parameterCategory":1,"la1":30.6,"la2":29.2853,"lo1":-89.7004,"lo2":-87.6739,"dy":0.0162,"dx":0.0183,"nx":112,"ny":82,"refTime":"2025-05-30T12:00:00:Z","depth":0,"parameterNumber":2,"parameterNumberName":"U-component_of_WINDS"},"data":[0.0,0.0,0.0,0.0,0.0,0.0,0.0,0.0,0.0,0.0,0.0,0.0,0.0,0.0,0.0,0.0,0.0,0.0,0.0,0.0,0.0,0.0,0.0,0.0,0.0,0.0,0.0,0.0,0.0,0.0,0.0,0.0,0.0,0.0,0.0,0.0,0.0,0.0,0.0,0.0,0.0,0.0,0.0,0.0,0.0,0.0,0.0,0.0,0.0,0.0,0.0,0.0,0.0,0.0,0.0,0.0,0.0,0.0,0.0,0.0,0.0,0.0,0.0,0.0,0.0,0.0,0.0,0.0,0.0,0.0,0.0,0.0,0.0,0.0,0.0,0.0,0.0,0.0,0.0,0.0,0.0,0.0,0.0,0.0,0.0,0.0,0.0,0.0,0.0,0.0,-5.0054,-5.1423,-5.3882,-5.5336,-5.5159,-5.4421,-5.2908,-5.0502,0.0,0.0,0.0,0.0,0.0,0.0,0.0,0.0,0.0,0.0,0.0,0.0,0.0,0.0,0.0,0.0,0.0,0.0,0.0,0.0,0.0,0.0,0.0,0.0,0.0,0.0,0.0,0.0,0.0,0.0,0.0,0.0,0.0,0.0,0.0,0.0,0.0,0.0,0.0,0.0,0.0,0.0,0.0,0.0,0.0,0.0,0.0,0.0,0.0,0.0,0.0,0.0,0.0,0.0,0.0,0.0,0.0,0.0,0.0,0.0,0.0,0.0,0.0,0.0,0.0,0.0,0.0,0.0,0.0,0.0,0.0,0.0,0.0,0.0,0.0,0.0,0.0,0.0,0.0,0.0,0.0,0.0,0.0,0.0,0.0,0.0,0.0,0.0,0.0,0.0,0.0,0.0,0.0,0.0,0.0,0.0,0.0,0.0,0.0,0.0,0.0,0.0,0.0,0.0,-5.0051,-5.3358,-5.4712,-5.5391,-5.5355,-5.4616,-5.2993,-5.0239,0.0,0.0,0.0,0.0,0.0,0.0,0.0,0.0,0.0,0.0,0.0,0.0,0.0,0.0,0.0,0.0,0.0,0.0,0.0,0.0,0.0,0.0,0.0,0.0,0.0,0.0,0.0,0.0,0.0,0.0,0.0,0.0,0.0,0.0,0.0,0.0,0.0,0.0,0.0,0.0,0.0,0.0,0.0,0.0,0.0,0.0,0.0,0.0,0.0,0.0,0.0,0.0,0.0,0.0,0.0,0.0,0.0,0.0,0.0,0.0,0.0,0.0,0.0,0.0,0.0,0.0,0.0,0.0,0.0,0.0,0.0,0.0,0.0,0.0,0.0,0.0,0.0,0.0,0.0,0.0,0.0,0.0,0.0,0.0,0.0,0.0,0.0,0.0,0.0,0.0,0.0,0.0,0.0,0.0,0.0,0.0,0.0,0.0,0.0,0.0,0.0,0.0,0.0,-4.9714,-5.0956,-5.3909,-5.4274,-5.4318,-5.4318,-5.3587,-5.2061,-4.951,-4.9129,0.0,0.0,0.0,0.0,0.0,0.0,0.0,0.0,0.0,0.0,0.0,0.0,0.0,0.0,0.0,0.0,0.0,0.0,0.0,0.0,0.0,0.0,0.0,0.0,0.0,0.0,0.0,0.0,0.0,0.0,0.0,0.0,0.0,0.0,0.0,0.0,0.0,0.0,0.0,0.0,0.0,0.0,0.0,0.0,0.0,0.0,0.0,0.0,0.0,0.0,0.0,0.0,0.0,0.0,0.0,0.0,0.0,0.0,0.0,0.0,0.0,0.0,0.0,0.0,0.0,0.0,0.0,0.0,0.0,0.0,0.0,0.0,0.0,0.0,0.0,0.0,0.0,0.0,0.0,0.0,0.0,0.0,0.0,0.0,0.0,0.0,0.0,0.0,0.0,0.0,0.0,0.0,0.0,0.0,0.0,0.0,0.0,0.0,0.0,0.0,0.0,0.0,-5.1333,-5.2241,-5.3954,-5.3619,-5.3335,-5.3524,-5.2492,-5.1012,-4.9103,-4.8638,0.0,0.0,0.0,0.0,0.0,0.0,0.0,0.0,0.0,0.0,0.0,0.0,0.0,0.0,0.0,0.0,0.0,0.0,0.0,0.0,0.0,0.0,0.0,0.0,0.0,0.0,0.0,0.0,0.0,0.0,0.0,0.0,0.0,0.0,0.0,0.0,0.0,0.0,0.0,0.0,0.0,0.0,0.0,0.0,0.0,0.0,0.0,0.0,0.0,0.0,0.0,0.0,0.0,0.0,0.0,0.0,0.0,0.0,0.0,0.0,0.0,0.0,0.0,0.0,0.0,0.0,0.0,0.0,0.0,0.0,0.0,0.0,0.0,0.0,0.0,0.0,0.0,0.0,0.0,0.0,0.0,0.0,0.0,0.0,0.0,0.0,0.0,0.0,0.0,0.0,0.0,0.0,0.0,0.0,0.0,0.0,0.0,0.0,0.0,0.0,0.0,0.0,-5.1811,-5.3629,-5.3963,-5.3363,-5.3192,-5.3909,-5.1976,-5.0368,-4.9513,-4.8145,0.0,0.0,0.0,0.0,0.0,0.0,0.0,0.0,0.0,0.0,0.0,0.0,0.0,0.0,0.0,0.0,0.0,0.0,0.0,0.0,0.0,0.0,0.0,0.0,0.0,0.0,0.0,0.0,0.0,0.0,0.0,0.0,0.0,0.0,0.0,0.0,0.0,0.0,0.0,0.0,0.0,0.0,0.0,0.0,0.0,0.0,0.0,0.0,0.0,0.0,0.0,0.0,0.0,0.0,0.0,0.0,0.0,0.0,0.0,0.0,0.0,0.0,0.0,0.0,0.0,0.0,0.0,0.0,0.0,0.0,0.0,0.0,0.0,0.0,0.0,0.0,0.0,0.0,0.0,0.0,0.0,0.0,0.0,0.0,0.0,0.0,0.0,0.0,0.0,0.0,0.0,0.0,0.0,0.0,0.0,0.0,0.0,0.0,0.0,0.0,0.0,0.0,-5.0201,-5.1505,0.0,-5.255,-5.2477,-5.3246,-5.1671,-5.0304,-4.9569,0.0,0.0,0.0,0.0,0.0,0.0,0.0,0.0,0.0,0.0,0.0,0.0,0.0,0.0,0.0,0.0,0.0,0.0,0.0,0.0,0.0,0.0,0.0,0.0,0.0,0.0,0.0,0.0,0.0,0.0,0.0,0.0,0.0,0.0,0.0,0.0,0.0,0.0,0.0,0.0,0.0,0.0,0.0,0.0,0.0,0.0,0.0,0.0,0.0,0.0,0.0,0.0,0.0,0.0,0.0,0.0,0.0,0.0,0.0,0.0,0.0,0.0,0.0,0.0,0.0,0.0,0.0,0.0,0.0,0.0,0.0,0.0,0.0,0.0,0.0,0.0,0.0,0.0,0.0,0.0,0.0,0.0,0.0,0.0,0.0,0.0,0.0,0.0,0.0,0.0,0.0,0.0,0.0,0.0,0.0,0.0,0.0,0.0,0.0,0.0,0.0,0.0,-4.8815,-4.9735,-5.0934,0.0,-5.2289,-5.2232,-5.3016,-5.1245,-4.9865,-4.9354,0.0,0.0,0.0,0.0,0.0,0.0,0.0,0.0,0.0,0.0,0.0,0.0,0.0,0.0,0.0,0.0,0.0,0.0,0.0,0.0,0.0,0.0,0.0,0.0,0.0,0.0,0.0,0.0,0.0,0.0,0.0,0.0,0.0,0.0,0.0,0.0,0.0,0.0,0.0,0.0,0.0,0.0,0.0,0.0,0.0,0.0,0.0,0.0,0.0,0.0,0.0,0.0,0.0,0.0,0.0,0.0,0.0,0.0,0.0,0.0,0.0,0.0,0.0,0.0,0.0,0.0,0.0,0.0,0.0,0.0,0.0,0.0,0.0,0.0,0.0,0.0,0.0,0.0,0.0,0.0,0.0,0.0,0.0,0.0,0.0,0.0,0.0,0.0,0.0,0.0,0.0,0.0,0.0,0.0,0.0,0.0,0.0,0.0,0.0,0.0,0.0,0.0,-4.8815,-5.0913,-5.2587,-5.3399,-5.2773,-5.2621,-5.3416,-5.0727,-4.9018,0.0,0.0,0.0,0.0,0.0,0.0,0.0,0.0,0.0,0.0,0.0,0.0,0.0,0.0,0.0,0.0,0.0,0.0,0.0,0.0,0.0,0.0,0.0,0.0,0.0,0.0,0.0,0.0,0.0,0.0,0.0,0.0,0.0,0.0,0.0,0.0,0.0,0.0,0.0,0.0,0.0,0.0,0.0,0.0,0.0,0.0,0.0,0.0,0.0,0.0,0.0,0.0,0.0,0.0,0.0,0.0,0.0,0.0,0.0,0.0,0.0,0.0,0.0,0.0,0.0,0.0,0.0,0.0,0.0,0.0,0.0,0.0,0.0,0.0,0.0,0.0,0.0,0.0,0.0,0.0,0.0,0.0,0.0,0.0,0.0,0.0,0.0,0.0,0.0,0.0,0.0,0.0,0.0,0.0,0.0,0.0,0.0,0.0,0.0,0.0,0.0,0.0,0.0,-4.8815,-5.0016,-5.1234,-5.252,-5.2435,-5.2198,-5.1911,-5.0591,-4.9323,-4.8308,0.0,0.0,0.0,0.0,0.0,0.0,0.0,0.0,0.0,0.0,0.0,0.0,0.0,0.0,0.0,0.0,0.0,0.0,0.0,0.0,0.0,0.0,0.0,0.0,0.0,0.0,0.0,0.0,0.0,0.0,0.0,0.0,0.0,0.0,0.0,0.0,0.0,0.0,0.0,0.0,0.0,0.0,0.0,0.0,0.0,0.0,0.0,0.0,0.0,0.0,0.0,0.0,0.0,0.0,0.0,0.0,0.0,0.0,0.0,0.0,0.0,0.0,0.0,0.0,0.0,0.0,0.0,0.0,0.0,0.0,0.0,0.0,0.0,0.0,0.0,0.0,0.0,0.0,0.0,0.0,0.0,0.0,0.0,0.0,0.0,0.0,0.0,0.0,0.0,0.0,0.0,0.0,0.0,0.0,0.0,0.0,0.0,0.0,0.0,0.0,0.0,0.0,-4.8342,-4.9458,-5.0541,-5.1742,-5.186,-5.1572,-5.0828,-5.0084,-4.9035,-4.7564,0.0,0.0,0.0,0.0,0.0,0.0,0.0,0.0,0.0,0.0,0.0,0.0,0.0,0.0,0.0,0.0,0.0,0.0,0.0,0.0,0.0,0.0,0.0,0.0,0.0,0.0,0.0,0.0,0.0,0.0,0.0,0.0,0.0,0.0,0.0,0.0,0.0,0.0,0.0,0.0,0.0,0.0,0.0,0.0,0.0,0.0,0.0,0.0,0.0,0.0,0.0,0.0,0.0,0.0,0.0,0.0,0.0,0.0,0.0,0.0,0.0,0.0,0.0,0.0,0.0,0.0,0.0,0.0,0.0,0.0,0.0,0.0,0.0,0.0,0.0,0.0,0.0,0.0,0.0,0.0,0.0,0.0,0.0,0.0,0.0,0.0,0.0,0.0,0.0,0.0,0.0,0.0,0.0,0.0,0.0,0.0,0.0,0.0,0.0,0.0,0.0,0.0,-4.7511,-4.9094,-5.0274,-5.0999,-5.1083,-5.0777,-4.9949,-4.9272,-4.8274,-4.6786,0.0,0.0,0.0,0.0,0.0,0.0,0.0,0.0,0.0,0.0,0.0,0.0,0.0,0.0,0.0,0.0,0.0,0.0,0.0,0.0,0.0,0.0,0.0,0.0,0.0,0.0,0.0,0.0,0.0,0.0,0.0,0.0,0.0,0.0,0.0,0.0,0.0,0.0,0.0,0.0,0.0,0.0,0.0,0.0,0.0,0.0,0.0,0.0,0.0,0.0,0.0,0.0,0.0,0.0,0.0,0.0,0.0,0.0,0.0,0.0,-4.509,0.0,0.0,0.0,0.0,0.0,0.0,0.0,0.0,0.0,0.0,0.0,0.0,0.0,0.0,0.0,0.0,0.0,0.0,0.0,0.0,0.0,0.0,0.0,0.0,0.0,0.0,0.0,0.0,0.0,0.0,0.0,0.0,0.0,0.0,0.0,0.0,0.0,0.0,0.0,0.0,0.0,-4.6847,-4.8361,-4.954,-5.024,-5.0321,-4.9796,-4.8494,-4.824,-4.753,-4.6024,-4.5229,0.0,0.0,0.0,0.0,0.0,0.0,0.0,0.0,0.0,0.0,0.0,0.0,0.0,0.0,0.0,0.0,0.0,0.0,0.0,0.0,0.0,0.0,0.0,0.0,0.0,0.0,0.0,0.0,0.0,0.0,0.0,0.0,0.0,0.0,0.0,0.0,0.0,0.0,0.0,0.0,0.0,0.0,0.0,0.0,0.0,0.0,0.0,0.0,0.0,0.0,0.0,0.0,0.0,0.0,0.0,0.0,0.0,0.0,0.0,0.0,-4.5832,0.0,0.0,0.0,0.0,0.0,0.0,0.0,0.0,0.0,0.0,0.0,0.0,0.0,0.0,0.0,0.0,0.0,0.0,0.0,0.0,0.0,0.0,0.0,0.0,0.0,0.0,0.0,0.0,0.0,0.0,0.0,0.0,0.0,0.0,0.0,0.0,0.0,0.0,0.0,0.0,-4.5651,-4.7061,-4.795,-4.8049,-4.8032,-4.7451,-4.6007,-4.5891,-4.541,-4.4221,-4.3459,0.0,0.0,0.0,0.0,0.0,0.0,0.0,0.0,0.0,0.0,0.0,0.0,0.0,0.0,0.0,0.0,0.0,0.0,0.0,0.0,0.0,0.0,0.0,0.0,0.0,0.0,0.0,0.0,0.0,0.0,0.0,0.0,0.0,0.0,0.0,0.0,0.0,0.0,0.0,0.0,0.0,0.0,0.0,0.0,0.0,0.0,0.0,0.0,0.0,0.0,0.0,0.0,0.0,-4.9006,-4.9166,-4.848,-4.848,-4.8146,-4.753,-4.6972,-4.6817,-4.6978,-4.7458,0.0,0.0,0.0,0.0,0.0,0.0,0.0,0.0,0.0,0.0,0.0,0.0,0.0,0.0,0.0,0.0,0.0,0.0,0.0,0.0,0.0,0.0,0.0,0.0,-4.2083,-4.1969,0.0,0.0,0.0,0.0,0.0,0.0,0.0,0.0,0.0,0.0,0.0,0.0,-4.4378,-4.5717,-4.635,-4.5695,-4.5598,-4.5015,-4.3605,-4.3491,-4.32,-4.2553,-4.1924,-4.157,0.0,0.0,0.0,0.0,0.0,0.0,0.0,0.0,0.0,0.0,0.0,0.0,0.0,0.0,0.0,0.0,0.0,0.0,0.0,0.0,0.0,0.0,0.0,0.0,0.0,0.0,0.0,0.0,0.0,0.0,0.0,0.0,-4.5875,-4.7556,0.0,0.0,0.0,0.0,0.0,0.0,0.0,0.0,0.0,0.0,0.0,0.0,0.0,-4.7255,-4.7731,-4.745,-4.7275,-4.713,-4.7302,-4.7023,-4.631,-4.631,-4.627,-4.6179,-4.6717,0.0,-4.7778,-4.723,0.0,0.0,0.0,0.0,0.0,0.0,0.0,0.0,0.0,0.0,0.0,0.0,0.0,0.0,0.0,0.0,0.0,0.0,0.0,0.0,0.0,0.0,-4.3279,-4.2933,-4.2849,-4.2796,0.0,-4.213,-4.1407,-4.0071,-4.039,0.0,0.0,0.0,0.0,0.0,0.0,0.0,-4.3507,-4.4899,-4.5582,-4.4932,-4.4853,-4.4269,-4.278,-4.2666,-4.2618,-4.252,-4.2298,-4.2187,-4.2187,-4.08,0.0,0.0,0.0,0.0,0.0,0.0,0.0,0.0,0.0,0.0,0.0,0.0,0.0,0.0,0.0,0.0,0.0,0.0,0.0,0.0,0.0,0.0,0.0,0.0,0.0,0.0,0.0,0.0,0.0,-4.4937,-4.6256,-4.6969,-4.6815,-4.6724,0.0,0.0,0.0,0.0,0.0,0.0,0.0,0.0,0.0,-4.6748,-4.6859,-4.7155,-4.7604,-4.7819,-4.7849,-4.7726,-4.8114,-4.8138,-4.7794,-4.7794,-4.7794,-4.7809,-4.8153,-4.8263,-4.8133,-4.7729,-4.7223,-4.6581,0.0,0.0,0.0,0.0,-4.2802,-4.3144,-4.3054,-4.3524,0.0,-4.363,0.0,0.0,0.0,0.0,0.0,0.0,0.0,0.0,0.0,0.0,-4.3094,-4.3169,-4.3184,-4.3145,-4.3082,-4.2827,-4.2341,0.0,-4.1465,-4.1645,-4.0832,0.0,0.0,0.0,0.0,-4.2368,-4.2576,-4.3858,-4.4353,-4.3278,-4.3173,-4.261,-4.1218,-4.1109,-4.1109,-4.1109,-4.1042,-4.1008,-4.1008,-4.0353,-3.9825,0.0,0.0,0.0,0.0,0.0,0.0,0.0,0.0,0.0,0.0,0.0,0.0,0.0,0.0,0.0,0.0,0.0,0.0,0.0,0.0,0.0,0.0,0.0,0.0,0.0,0.0,0.0,0.0,-4.5873,-4.683,-4.683,-4.7399,-4.7592,0.0,0.0,0.0,0.0,0.0,0.0,-4.751,-4.7676,-4.7697,-4.7525,-4.7712,-4.7867,-4.8042,-4.8368,-4.8458,-4.8282,-4.8611,-4.8805,-4.8805,-4.8805,-4.8805,-4.8805,-4.8805,-4.8581,-4.8295,-4.8164,-4.7746,-4.6967,-4.6028,-4.4939,-4.3852,-4.3313,-4.3629,-4.4325,-4.4285,-4.4911,-4.5591,-4.4578,-4.4019,-4.3521,-4.2357,0.0,0.0,0.0,0.0,-4.1994,-4.2485,-4.2713,-4.2872,-4.321,-4.329,-4.329,-4.329,-4.329,-4.3,0.0,-4.2258,-4.225,-4.1343,0.0,0.0,0.0,0.0,-4.2257,-4.2182,-4.3122,-4.3289,-4.2121,-4.1847,-4.1271,-4.0102,-4.0011,-4.0011,-4.0011,-3.996,-3.9925,-3.9925,-3.9854,-3.9627,-3.9093,0.0,0.0,0.0,0.0,0.0,0.0,0.0,0.0,0.0,0.0,0.0,0.0,0.0,0.0,0.0,0.0,0.0,0.0,0.0,0.0,0.0,0.0,0.0,0.0,0.0,0.0,0.0,0.0,0.0,-4.8192,-4.8805,0.0,0.0,0.0,0.0,-4.8176,-4.8236,-4.8506,-4.9134,-4.9703,-5.0047,-5.0032,-5.0047,-5.0062,-5.0046,-4.8895,-4.8326,-4.8282,-4.7683,-4.7399,-4.7399,-4.7399,-4.7399,-4.7399,-4.7399,-4.7743,-4.8282,-4.8295,-4.8006,-4.7561,-4.7485,-4.7159,-4.6663,-4.6471,-4.6,-4.5503,-4.5282,-4.5286,-4.5331,-4.5256,-4.4347,-4.3195,-4.256,-4.1916,0.0,0.0,-4.2351,-4.25,-4.312,-4.3245,-4.3245,-4.329,-4.329,-4.329,-4.329,-4.329,-4.3135,0.0,-4.2381,-4.2263,-4.1739,0.0,-4.1656,-4.161,-4.2387,-4.2864,-4.2689,-4.2887,-4.2773,-4.2075,-4.1422,-4.077,-4.0071,-4.0011,-4.0011,-4.0011,-3.9803,-3.9732,-3.9732,-3.9517,-3.9394,-3.9379,-3.8727,0.0,0.0,0.0,0.0,0.0,0.0,0.0,0.0,0.0,0.0,0.0,0.0,0.0,0.0,0.0,0.0,0.0,0.0,0.0,0.0,0.0,0.0,0.0,0.0,0.0,0.0,0.0,0.0,-4.891,-4.9494,0.0,-4.9015,-4.8745,-4.8835,-4.9494,-4.9538,-4.9643,-4.9883,-5.0061,-5.0196,-5.0196,-4.9823,-4.9823,-5.0196,-4.9359,-4.8955,-4.8955,-4.8252,-4.7938,-4.7923,-4.7504,-4.7309,-4.7309,-4.7309,-4.7444,-4.7653,-4.7653,-4.7562,-4.7379,-4.6916,-4.6416,-4.5902,-4.6269,-4.6526,-4.6751,-4.7113,-4.7219,-4.701,-4.5708,-4.4691,-4.3838,-4.3195,-4.2821,-4.2686,-4.2925,-4.2985,-4.3045,-4.323,-4.329,-4.329,-4.329,-4.329,-4.329,-4.329,-4.329,-4.323,-4.303,-4.2985,-4.2815,-4.2248,-4.2143,-4.1993,-4.1573,-4.2144,-4.2604,-4.2526,-4.2565,-4.2348,-4.1686,-4.1024,-4.0347,-3.9664,-3.9604,-3.9604,-3.9604,-3.9568,-3.9517,-3.9517,-3.946,-3.9388,-3.9388,-3.8736,-3.8272,0.0,0.0,0.0,0.0,0.0,0.0,0.0,0.0,0.0,0.0,0.0,0.0,0.0,0.0,0.0,0.0,0.0,0.0,0.0,0.0,0.0,0.0,0.0,0.0,0.0,0.0,-4.9105,-4.9538,-5.0376,-5.0735,-5.0301,-5.0497,-5.0676,-5.0885,-5.0853,-5.0764,-5.0539,-5.0524,-5.0524,-5.0524,-5.0152,-5.0137,-5.0524,-4.9927,-4.9583,-4.9583,-4.8701,-4.8282,-4.8267,-4.7608,-4.7309,-4.7309,-4.7309,-4.7309,-4.7309,-4.7309,-4.7309,-4.7279,-4.707,-4.6845,-4.6666,-4.689,-4.7399,-4.7997,-4.8207,-4.8132,-4.7653,-4.5873,-4.4855,-4.4182,-4.3484,-4.329,-4.329,-4.329,-4.329,-4.329,-4.329,-4.329,-4.329,-4.329,-4.329,-4.329,-4.329,-4.329,-4.329,-4.329,-4.329,-4.323,-4.306,-4.2836,-4.2611,-4.2402,-4.2551,-4.2686,-4.2686,-4.2351,-4.1901,-4.1467,-4.0591,-3.9888,-3.9454,-3.9388,-3.9388,-3.9388,-3.9388,-3.9388,-3.9388,-3.9388,-3.9388,-3.9388,-3.8736,-3.8392,-3.8392,0.0,0.0,0.0,0.0,0.0,0.0,0.0,0.0,0.0,0.0,0.0,0.0,0.0,0.0,0.0,0.0,0.0,0.0,0.0,0.0,0.0,0.0,0.0,-4.7489,-4.9,-5.0211,-5.0255,-5.1424,-5.2202,-5.2202,-5.277,-5.2875,-5.2217,-5.2172,-5.1887,-5.1244,-5.1214,-5.1214,-5.1214,-5.1214,-5.1214,-5.1214,-5.0539,-5.0226,-5.0211,-4.897,-4.8341,-4.8297,-4.7638,-4.7324,-4.7309,-4.7309,-4.7309,-4.7309,-4.7309,-4.7309,-4.7369,-4.8012,-4.8685,-4.9179,-4.8521,-4.876,-4.9239,-4.8536,-4.7893,-4.7145,-4.5798,-4.4915,-4.4257,-4.3559,-4.3349,-4.3319,-4.3319,-4.3305,-4.329,-4.329,-4.329,-4.329,-4.329,-4.329,-4.329,-4.329,-4.329,-4.329,-4.329,-4.329,-4.3499,-4.4182,-4.3738,-4.3529,-4.4182,-4.3723,0.0,-4.329,-4.2192,-4.1422,-4.1422,-4.0202,-3.9388,-3.9388,-3.9388,-3.9388,-3.9388,-3.9388,-3.9388,-3.9388,-3.9388,-3.9388,-3.9388,-3.8766,-3.8407,-3.8392,0.0,0.0,0.0,0.0,0.0,0.0,0.0,0.0,0.0,0.0,0.0,0.0,0.0,0.0,0.0,0.0,0.0,0.0,0.0,0.0,0.0,-4.7007,-4.8742,-4.9313,-4.9852,-5.0539,-5.1543,-5.1977,-5.2202,-5.2202,-5.2366,-5.2202,-5.1543,-5.1483,-5.1409,-5.1229,-5.1214,-5.1214,-5.1214,-5.1214,-5.1214,-5.1214,-5.1035,-5.0945,-5.0945,-5.0061,-4.9449,-4.9015,-4.8312,-4.7758,-4.7309,-4.7309,-4.7309,-4.7309,-4.7309,-4.7309,-4.7324,-4.7504,-4.7683,-4.7878,-4.8177,-4.9,-4.9883,-4.9224,-4.8925,-4.8506,-4.7189,-4.6307,-4.5648,-4.496,-4.4421,-4.4047,-4.4047,-4.3663,-4.329,-4.329,-4.329,-4.329,-4.329,-4.329,-4.329,-4.329,-4.329,-4.329,-4.329,-4.329,-4.3349,-4.3529,-4.3813,-4.3902,-4.3604,-4.3813,0.0,-4.3349,-4.2192,-4.1422,-4.1422,-4.0202,-3.9388,-3.9388,-3.9388,-3.9388,-3.9388,-3.9388,-3.9388,-3.9388,-3.9388,-3.9388,-3.9388,-3.923,-3.8901,0.0,0.0,0.0,0.0,0.0,0.0,0.0,0.0,0.0,0.0,0.0,0.0,0.0,0.0,0.0,0.0,0.0,0.0,0.0,0.0,0.0,0.0,-4.7062,-4.8632,-4.9519,-5.0455,-5.1439,-5.2486,-5.2621,-5.2725,-5.301,-5.277,-5.2336,-5.1678,-5.1633,-5.1513,-5.1229,-5.1214,-5.1214,-5.1214,-5.1214,-5.1214,-5.1214,-5.1214,-5.1214,-5.1214,-5.051,-5.0001,-4.9643,-4.8716,-4.8072,-4.7698,-4.7429,-4.7309,-4.7309,-4.7309,-4.7309,0.0,0.0,0.0,0.0,0.0,-4.8775,-4.9404,-4.9299,-4.9314,-4.909,-4.7743,-4.7055,-4.6561,-4.5589,-4.5035,-4.4721,-4.4721,-4.4257,-4.3708,-4.3708,-4.3499,-4.329,-4.329,-4.329,-4.329,-4.329,-4.329,-4.329,-4.329,-4.329,0.0,-4.329,-4.3604,-4.3828,-4.3723,-4.3798,-4.3723,-4.3349,-4.2192,-4.1422,-4.1422,-4.0202,-3.9388,-3.9388,-3.9388,0.0,0.0,0.0,-3.9388,-3.9388,-3.9388,0.0,0.0,0.0,0.0,0.0,0.0,0.0,0.0,-3.876,-3.8642,0.0,0.0,0.0,0.0,0.0,0.0,0.0,0.0,0.0,0.0,0.0,0.0,0.0,0.0,0.0,0.0,-4.7438,-4.8154,-4.8658,-5.0577,-5.2211,-5.2904,-5.3125,-5.3384,-5.3922,-5.3428,-5.28,-5.2142,-5.2097,-5.1828,-5.1244,0.0,0.0,0.0,0.0,-5.1214,-5.1214,-5.1214,-5.1214,-5.1214,-5.0584,-5.0255,-5.0151,-4.8955,-4.8356,-4.8252,-4.7593,-4.7309,-4.7309,-4.7309,-4.7309,-4.7309,-4.7309,-4.7309,-4.7369,-4.7952,-4.8222,-4.8371,-4.9,0.0,0.0,-4.7803,-4.7369,-4.7085,-4.5888,-4.5469,-4.5409,-4.5409,-4.4885,-4.4317,-4.4317,-4.3783,-4.329,-4.329,-4.329,-4.329,-4.329,-4.329,-4.329,-4.329,-4.329,-4.329,-4.329,-4.3349,-4.3574,-4.4122,-4.3738,-4.3379,-4.3305,-4.2252,-4.1527,-4.1527,0.0,0.0,-3.9493,-3.9454,-3.9388,-3.9388,-3.9388,-3.9388,-3.9388,-3.9448,-3.9493,-3.9493,-3.948,-3.9771,-4.0353,-3.941,-3.9246,-3.9834,-3.9232,-3.8957,0.0,0.0,0.0,0.0,0.0,0.0,0.0,0.0,0.0,0.0,0.0,0.0,0.0,0.0,0.0,-4.5103,-4.6786,-4.7931,-4.7576,-4.912,-5.0677,-5.1699,-5.2655,-5.3025,-5.2636,-5.2471,-5.2112,-5.1454,-5.1409,-5.1349,-5.1229,-5.1214,-5.1214,-5.1214,-5.1214,-5.1214,-5.1214,-5.1214,-5.1214,-5.1214,0.0,0.0,-5.0166,-4.9434,-4.8835,-4.8252,-4.7593,-4.7309,-4.7309,-4.7309,-4.7309,-4.7309,-4.7309,-4.7309,-4.7324,-4.7459,-4.7833,-4.8297,-4.8431,-4.8476,-4.8431,-4.8177,-4.7743,-4.7249,-4.6995,-4.6546,0.0,-4.6127,-4.5244,-4.4317,-4.4317,-4.3783,-4.329,-4.329,-4.329,-4.329,-4.329,-4.329,-4.329,-4.329,-4.329,-4.329,-4.329,-4.3738,-4.3988,-4.3544,-4.3828,-4.3888,-4.3364,-4.2656,-4.2216,-4.2216,-4.0995,-4.0217,-4.0217,-3.9723,-3.9388,-3.9388,-3.9388,-3.9388,-3.9388,-3.9933,-4.0217,-4.0217,-3.9988,-3.995,-4.0067,-3.9145,-3.8718,-3.8885,-3.8758,-3.8661,0.0,0.0,0.0,0.0,0.0,0.0,0.0,0.0,0.0,0.0,0.0,-4.3729,-4.4591,0.0,-4.5506,-4.5218,-4.6132,-4.6726,-4.6433,-4.7674,-4.9214,-5.0832,-5.1561,-5.1998,-5.2184,-5.1902,-5.1573,-5.1244,-5.1214,-5.1214,-5.1214,-5.1214,-5.1214,-5.1214,-5.1214,-5.1214,-5.1214,-5.1214,-5.1214,-5.1214,-5.1214,-5.1003,-5.0644,-4.9718,-4.9134,-4.8716,-4.7743,-4.7309,-4.7309,-4.7309,-4.7309,-4.7309,-4.7309,-4.7309,-4.7309,-4.7309,-4.7519,-4.7848,-4.8177,-4.8282,-4.8282,-4.8282,-4.8057,-4.7743,-4.7399,-4.707,-4.6815,-4.6815,-4.6097,-4.5244,-4.49,-4.4317,-4.3708,-4.3364,-4.329,-4.329,-4.329,-4.329,-4.329,-4.329,-4.329,-4.329,-4.329,-4.3559,-4.3678,-4.3349,-4.3574,-4.3663,-4.3334,-4.2761,-4.2396,-4.2396,-4.1512,-4.0891,-4.0891,-4.0591,-4.0196,-3.974,-3.9702,-3.9475,-3.9001,-3.9305,-3.9518,-3.9518,-3.9373,-3.9472,-3.9786,-3.8894,-3.8598,-3.8873,-3.8442,-3.8335,0.0,0.0,0.0,0.0,0.0,0.0,0.0,-4.1737,-4.2605,-4.434,-4.4761,-4.5075,-4.612,-4.6408,-4.6329,-4.5859,-4.5976,-4.6081,-4.5921,-4.6794,-4.8047,-4.9716,-5.0155,-5.0575,-5.1305,-5.1072,-5.087,-5.087,-5.1073,-5.1214,-5.1214,-5.1214,-5.1214,-5.1214,-5.1214,-5.1214,-5.1214,-5.1214,-5.1214,-5.1214,-5.1214,-5.1214,-5.1184,-4.9987,-4.9449,-4.9374,-4.8072,-4.7429,-4.7309,-4.7309,-4.7309,-4.7309,-4.7309,-4.7309,-4.7309,-4.7309,-4.7309,-4.7384,-4.7908,-4.8102,-4.8102,-4.8102,-4.8102,-4.7997,-4.7459,-4.7309,-4.7309,-4.7309,-4.683,-4.6172,-4.5469,-4.4811,-4.4152,-4.3454,-4.329,-4.329,-4.329,-4.329,-4.329,-4.329,-4.329,-4.329,-4.329,-4.329,-4.329,-4.329,-4.329,-4.329,-4.329,-4.2748,-4.2302,-4.2302,-4.1551,-4.0991,-4.0858,-4.0843,-4.0519,-3.9769,-3.9715,-3.9396,-3.864,-3.8711,-3.8781,-3.8781,-3.8727,-3.8992,-3.9521,-3.8662,-3.8482,-3.8912,-3.8332,-3.814,-3.7794,-3.7577,-3.838,-4.0885,-4.1196,-4.1233,0.0,-4.3213,-4.3779,-4.4279,-4.4531,-4.4931,-4.5597,-4.6133,-4.646,-4.6395,-4.7231,-4.7715,-4.7218,-4.7254,-4.7397,-4.7538,-4.852,-4.8966,-4.8538,-4.9248,-4.9771,-4.9771,-5.0665,-5.1214,-5.1214,-5.1214,-5.1214,-5.1214,-5.1214,-5.1214,-5.1214,-5.1214,-5.1214,-5.1214,-5.1214,-5.1214,-5.1184,-5.0466,-5.0091,-5.0016,-4.8745,-4.7848,-4.7309,-4.7309,-4.7309,-4.7309,-4.7309,-4.7309,-4.7309,-4.7309,-4.7309,-4.7309,-4.7399,-4.7414,-4.7414,-4.7414,-4.7414,-4.7399,-4.7324,-4.7309,-4.7309,-4.7309,-4.683,-4.6172,-4.5469,-4.4811,-4.4152,-4.3454,-4.329,-4.329,-4.329,-4.329,-4.329,-4.329,-4.329,-4.329,-4.329,-4.329,-4.329,-4.329,-4.329,-4.329,-4.329,-4.2559,-4.2053,-4.2053,-4.0707,-3.956,-3.8968,-3.8926,-3.8885,-3.8763,-3.8763,-3.8722,-3.8599,-3.9158,-3.9494,-3.9494,-3.9257,-3.9166,-3.9234,-3.8392,-3.7959,-3.8037,-3.843,-3.8364,-3.8229,-3.9067,-4.0121,-4.0453,-4.1181,-4.1925,-4.2029,-4.2767,-4.365,-4.4555,-4.5298,-4.5869,-4.6299,-4.6973,-4.7244,0.0,-4.7153,-4.7492,-4.6917,-4.6839,-4.6681,-4.6336,-4.6705,-4.744,-4.8416,-4.8608,-4.9051,-5.0035,-5.0233,-5.0522,-5.1167,-5.1214,-5.1214,-5.1214,-5.1214,-5.1214,-5.1214,-5.1214,-5.1214,-5.1214,-5.1214,-5.1214,-5.1199,-5.0495,-4.9986,-4.9613,-4.8686,-4.8132,-4.7848,-4.7459,-4.7309,-4.7309,-4.7309,-4.7309,-4.7309,-4.7309,-4.7309,-4.7309,-4.7309,-4.7309,-4.7309,-4.7309,-4.7309,-4.7309,-4.7309,-4.7309,-4.7309,-4.7309,-4.7115,-4.6651,-4.5574,-4.5095,-4.4616,-4.3544,-4.329,-4.329,-4.329,-4.329,-4.329,-4.329,-4.329,-4.329,-4.329,-4.329,-4.313,-4.2618,-4.2537,-4.2537,-4.2537,-4.1755,-4.1212,-4.1212,-4.0591,-4.0069,-3.9817,-3.9747,-3.9536,-3.8968,-3.8939,-3.8737,-3.8212,-3.8455,-3.8634,-3.8634,-3.8487,-3.8427,-3.8427,-3.807,-3.7808,-3.767,-3.8043,-3.8017,-3.8875,-3.9944,-4.0718,-4.0045,-4.0923,-4.1851,-4.1282,-4.2102,-4.33,-4.43,-4.5339,-4.6139,-4.6666,-4.734,-4.7573,-4.6852,-4.7192,-4.7427,-4.7009,-4.6944,-4.6734,-4.6117,-4.6094,-4.6667,-4.8114,-4.784,-4.8074,-4.9301,-4.9216,-4.9611,-5.0713,-5.0775,-5.0917,-5.1167,-5.1214,-5.1214,-5.1214,-5.1214,-5.1214,-5.1214,-5.1214,-5.1214,-5.1199,-5.0689,-5.0152,-4.9508,-4.903,-4.8611,-4.8267,-4.7967,-4.7638,-4.7324,-4.7504,-4.7459,-4.7309,-4.7309,-4.7309,-4.7309,-4.7309,-4.7309,-4.7309,-4.7309,-4.7309,-4.7309,-4.7309,-4.7309,-4.7309,-4.7309,-4.7309,-4.704,-4.5888,-4.5439,-4.5005,-4.3828,-4.3424,-4.329,-4.329,-4.329,-4.329,-4.329,-4.329,-4.329,-4.329,-4.3076,-4.2754,-4.2073,-4.1561,-4.1338,-4.1603,-4.0774,-4.0116,-3.9883,-3.9839,-3.9839,-3.9839,-3.9839,-3.9577,-3.8881,-3.8836,-3.8549,-3.7946,-3.79,-3.79,-3.79,-3.79,-3.79,-3.79,-3.7808,-3.7703,-3.7505,-3.7611,-3.7564,-3.9346,-3.9095,-3.8804,-4.0126,-4.0527,-4.0568,-4.0557,-4.1783,-4.3041,-4.3146,-4.3989,-4.5093,-4.6282,-4.6755,-4.7017,-4.7265,-4.7793,-4.8159,-4.8133,-4.8133,-4.7924,-4.7349,-4.7226,-4.7061,0.0,-4.6504,-4.6478,-4.6506,-4.7485,-4.8532,-4.9576,-4.9674,-5.0124,-5.1167,-5.1214,-5.1214,-5.1214,-5.1214,-5.1214,-5.1214,-5.1214,-5.1214,-5.1214,-5.1199,-5.0779,-5.0166,-5.0136,-4.9464,-4.8341,-4.9,-4.8461,-4.7369,-4.8012,-4.7863,-4.7309,-4.7309,-4.7309,-4.7309,-4.7309,-4.7309,-4.7309,-4.7309,-4.7309,-4.7309,-4.7309,-4.7309,-4.7309,-4.7309,-4.7309,-4.7145,-4.6429,-4.5798,-4.5125,-4.4451,-4.3753,-4.329,-4.329,-4.329,-4.329,-4.329,-4.329,-4.329,-4.329,-4.2618,-4.2032,-4.199,-4.0461,-3.9593,-4.0504,-3.9812,-3.8926,-3.807,-3.7992,-3.7992,-3.7992,-3.7992,-3.7992,-3.7946,-3.7946,-3.7946,-3.79,-3.79,-3.79,-3.79,-3.79,-3.79,-3.79,-3.7657,-3.7505,-3.7505,-3.7261,-3.7108,-3.8881,-3.9323,-3.9789,-3.9651,-4.0081,-4.0447,-4.0258,-4.1237,-4.2325,-4.2694,-4.3828,-4.4886,-4.545,-4.6142,-4.6656,-4.7004,-4.7516,-4.7938,-4.8185,-4.8525,-4.842,-4.7453,-4.7662,0.0,0.0,0.0,0.0,-4.6865,-4.6958,-4.774,-4.9513,-4.9625,-5.0076,-5.1167,-5.1214,-5.1214,-5.1214,-5.1214,-5.1214,-5.1214,-5.1214,-5.1214,-5.1214,-5.1214,-5.1094,-5.0823,-5.0375,-4.9941,-4.9568,-4.9359,-4.9045,-4.8626,-4.8895,-4.8536,-4.7952,-4.7952,-4.7683,-4.7309,-4.7309,-4.7309,-4.7309,-4.7309,-4.7309,-4.7309,-4.7309,-4.7309,-4.7309,-4.7309,-4.7309,-4.716,-4.6444,-4.6157,-4.5798,-4.5125,-4.4466,-4.3947,-4.3947,-4.3604,-4.329,-4.329,-4.2835,-4.2456,-4.2456,-4.1686,-4.0859,-4.0246,-3.9593,-3.9091,-3.8832,-3.853,-3.8226,-3.7946,-3.79,-3.79,-3.79,-3.79,-3.79,-3.79,-3.7703,-3.7611,-3.7611,-3.7459,-3.7459,-3.7611,-3.7459,-3.7459,-3.7611,-3.7366,-3.7155,-3.6968,-3.7062,-3.7015,-3.8969,-3.9511,-4.0101,-3.9537,-3.98,-4.0226,-4.027,-4.0953,-4.1828,-4.2439,-4.3538,-4.4527,-4.4897,-4.5489,-4.6122,-4.6618,-4.7115,-4.7652,-4.827,-4.8584,-4.8564,-4.8028,-4.8094,-4.7819,0.0,0.0,0.0,-4.661,-4.6303,-4.6958,-4.8908,-4.9057,-4.9708,-5.1167,-5.1214,-5.1214,-5.1214,-5.1214,-5.1214,-5.1214,-5.1214,-5.1214,-5.1214,-5.1214,-5.1214,-5.1199,-5.0719,-5.0405,-5.0181,-5.0047,-4.9688,-4.9329,-4.9523,-4.9209,-4.8655,-4.8371,-4.8012,-4.7623,-4.7384,-4.7309,-4.7309,-4.7309,-4.7309,-4.7309,-4.7309,-4.7309,-4.7309,-4.7309,-4.7309,-4.7204,-4.6785,-4.6501,-4.6217,-4.5768,-4.5155,-4.4661,-4.4661,-4.3894,-4.3175,-4.3175,-4.2204,-4.1365,-4.1365,-4.0603,-3.9651,-3.8599,-3.8522,-3.8413,-3.7946,-3.79,-3.79,-3.79,-3.7808,-3.7808,-3.79,-3.7808,-3.7762,-3.7762,-3.7611,-3.7459,-3.7353,-3.7201,-3.7168,-3.7353,-3.7201,-3.7168,-3.7366,-3.7108,-3.6862,-3.6709,-3.6815,-3.6781,-3.9546,-3.9697,-3.9697,-3.9697,-3.9697,-3.9835,-4.0388,-4.0887,-4.1546,-4.2384,-4.3192,-4.3935,0.0,0.0,-4.5341,-4.6263,-4.6714,-4.7348,-4.8488,-4.84,-4.8447,0.0,0.0,0.0,0.0,0.0,0.0,-4.5715,0.0,-4.6263,-4.7855,-4.7929,-4.8894,-5.0964,-5.1026,-5.1058,-5.112,-5.1167,-5.1214,-5.1214,-5.1214,-5.1214,-5.1214,-5.1214,-5.1214,-5.1214,-5.1214,-5.0823,-5.0285,-5.096,-5.0481,-4.9464,-5.0047,-4.9883,-4.9284,-4.8611,-4.8341,-4.8192,-4.7578,-4.7339,-4.7309,-4.7309,-4.7309,-4.7309,-4.7309,-4.7309,-4.7309,-4.7309,-4.7309,-4.7309,-4.7309,-4.6845,-4.6324,-4.6324,-4.5801,-4.5251,-4.5251,-4.4049,-4.2935,-4.2935,-4.1454,-4.0158,-4.0073,-3.9384,-3.844,-3.7294,-3.7307,-3.7564,-3.7808,-3.7854,-3.7854,-3.7854,-3.7611,-3.7564,-3.7854,-3.7611,-3.7459,-3.7459,-3.7459,-3.7353,-3.7108,-3.7062,-3.7062,-3.7062,-3.7062,-3.7062,-3.7062,-3.6815,-3.6675,-3.6675,-3.6524,-3.6455,-3.9647,-3.9697,-3.9697,-3.9697,-3.9697,-3.9835,-4.0388,-4.0887,-4.1492,-4.2154,-4.2766,-4.3369,-4.3954,-4.4427,-4.5097,-4.6205,-4.6803,0.0,-4.8791,-4.8884,0.0,-4.9061,0.0,-4.8616,-4.8028,-4.7453,0.0,0.0,-4.5454,-4.546,-4.6725,-4.6829,-4.7434,-4.8781,-4.883,-4.919,-5.0013,-5.0822,-5.1214,-5.1214,-5.1214,-5.1214,-5.1214,-5.1214,-5.1214,-5.1214,-5.1214,-5.1124,-5.0943,-5.1154,-5.102,-5.0735,-5.09,-5.0571,-4.9972,-4.9762,-4.9119,-4.8267,-4.8087,-4.7713,-4.7309,-4.7309,-4.7309,-4.7309,-4.7309,-4.7309,-4.7309,-4.7309,-4.7309,-4.7309,-4.7309,-4.7174,-4.7055,-4.7055,-4.5943,-4.485,-4.4662,-4.3353,-4.2132,-4.194,-4.0914,-3.978,-3.8687,-3.8309,-3.7911,-3.7219,-3.7168,-3.7214,-3.7307,-3.7307,-3.7307,-3.7307,-3.7261,-3.7214,-3.7307,-3.7261,-3.7201,-3.7201,-3.7002,-3.6862,-3.6815,-3.664,-3.664,-3.6815,-3.664,-3.664,-3.6815,-3.6593,-3.6499,-3.6465,-3.6832,-3.6973,-3.976,-3.9697,-3.9697,-3.9697,-3.9697,-3.9898,-4.0701,-4.1062,-4.1568,-4.2401,-4.276,-4.3074,-4.3376,-4.389,-4.4616,-4.5661,-4.6384,0.0,-4.8718,-4.8792,-4.8786,0.0,-4.8852,0.0,-4.8211,-4.7662,-4.71,0.0,-4.5637,-4.5472,-4.6335,-4.6374,-4.6881,-4.7979,-4.803,-4.8532,-4.9576,-4.9757,-5.0254,-5.1167,-5.0713,-5.0713,-5.1214,-5.1214,-5.1214,-5.1214,0.0,-5.1214,-5.1214,-5.1214,-5.1214,-5.1214,-5.1214,-5.0943,-5.0584,-5.03,-4.9732,-4.906,-4.8476,-4.7762,-4.7081,-4.7254,-4.7309,-4.7309,-4.7309,-4.7309,-4.7309,-4.7309,-4.7309,-4.7309,-4.7309,-4.7309,-4.7207,-4.6741,-4.5844,-4.4915,-4.4314,-4.28,-4.1272,-4.0314,-3.9733,-3.9045,-3.8123,-3.8036,-3.7894,-3.7226,-3.7244,-3.7215,-3.6866,-3.6968,-3.7108,-3.7108,-3.7015,-3.6968,-3.7108,-3.7015,-3.6909,-3.6909,-3.6769,-3.6675,-3.6581,-3.6452,-3.6452,-3.6581,-3.6452,-3.6452,-3.6581,-3.6691,-3.6769,-3.6782,-3.7287,-3.755,-3.9848,-3.9697,-3.9697,-3.9697,-3.9747,-4.0074,-4.105,-4.1338,-4.1743,-4.276,-4.2974,-4.2974,-4.2974,-4.3426,-4.4092,-4.5005,-4.5866,-4.6926,-4.8428,-4.8374,-4.8407,-4.9008,-4.8551,-4.8185,-4.8185,-4.7662,-4.71,-4.6525,-4.595,-4.5787,-4.6152,-4.6164,-4.6621,-4.7508,-4.7726,-4.8282,-4.9366,-4.8432,-4.9092,-5.1182,-4.9965,-4.9965,-5.0979,-5.0979,-5.0979,-5.1026,-5.112,-5.1214,-5.1214,-5.1214,-5.1214,-5.1182,-5.1026,-5.1058,-5.1107,-5.023,-5.0009,-5.0016,-4.8686,-4.7597,-4.6816,-4.7051,-4.7019,-4.6887,-4.6887,-4.6887,-4.6887,-4.6887,-4.6887,-4.6829,-4.6829,-4.6829,-4.6594,-4.5689,-4.5207,-4.4688,-4.3787,-4.2187,-4.0428,-3.8874,-3.8551,-3.8463,-3.819,-3.8326,-3.8185,-3.7423,-3.743,-3.7311,-3.6581,-3.6785,-3.7015,-3.7015,-3.6815,-3.6769,-3.6968,-3.6769,-3.6675,-3.6675,-3.6675,-3.6581,-3.6405,-3.6405,-3.6405,-3.6405,-3.648,-3.6518,-3.6518,-3.7023,-3.7299,-3.7312,-3.7864,-3.8115,-3.9887,-3.9697,-3.9697,-3.9697,-4.0036,-4.0538,-4.1137,-4.1693,-4.225,-4.2848,-4.2974,-4.2974,-4.2974,-4.3426,-4.4162,-4.5304,-4.5982,-4.6984,-4.8798,-4.8564,-4.8407,0.0,-4.8551,-4.8185,-4.8185,-4.7662,0.0,0.0,-4.595,-4.5417,-4.5018,-4.4979,-4.5087,-4.5288,-4.6164,-4.7177,-4.8282,-4.808,-4.9092,-5.1167,-4.919,-4.8844,-4.9868,-4.9868,-4.9868,-4.9917,-5.0822,0.0,-5.1214,-5.1214,-5.1214,-5.112,-5.022,-5.0427,-5.0949,-4.9075,-4.9151,-4.9984,-4.8309,-4.734,-4.6724,-4.6236,-4.5508,-4.4823,-4.4823,-4.4823,-4.4823,-4.4823,-4.4656,-4.4503,-4.4503,-4.4303,-4.4116,-4.3929,-4.3218,-4.2509,-4.207,-4.0904,-3.9854,-3.9523,-3.9447,-3.9309,-3.8856,-3.8768,-3.858,-3.7952,-3.7524,-3.7197,-3.7109,-3.6742,-3.6499,-3.6499,-3.6499,-3.6452,-3.6499,-3.6499,-3.6452,-3.6452,-3.6452,-3.6452,-3.6405,-3.6405,-3.6405,-3.6405,-3.6857,-3.7048,-3.7048,-3.76,-3.7864,-3.7877,-3.8454,-3.8718,-4.0221,-3.9929,-3.989,-3.9749,-4.0111,-4.0664,-4.1163,-4.1769,-4.2363,-4.2861,-4.2974,-4.2974,-4.2974,-4.3426,-4.4061,-4.4795,-4.5362,-4.6373,-4.8165,-4.7873,-4.7951,-4.8982,-4.8551,-4.8185,-4.8185,-4.7937,-4.7414,-4.6538,-4.6225,-4.5676,-4.4774,-4.4668,-4.4668,-4.4668,-4.5248,-4.6058,-4.7177,-4.6556,-4.7369,-4.9547,-4.8482,-4.8282,-4.8795,-4.9917,-4.9805,-4.8844,-4.9902,0.0,-4.9596,-5.0158,-5.0061,-4.9547,-4.9562,-4.9562,-4.9401,-4.8382,-4.8446,-4.89,-4.7706,-4.6775,-4.5957,-4.5004,-4.4518,-4.4359,-4.4762,-4.4517,-4.405,-4.3895,-4.3801,-4.3693,-4.3693,-4.3598,-4.3361,-4.2834,-4.1838,-4.0932,-4.0642,-4.0121,-3.9697,-3.9697,-3.9697,-3.9609,-3.9346,-3.9295,-3.9107,-3.8542,-3.7977,-3.7513,-3.7224,-3.6744,-3.6405,-3.6405,-3.6405,-3.6405,-3.6405,-3.6405,-3.6405,-3.6405,-3.6405,-3.6405,-3.6405,-3.6405,-3.6543,-3.6832,-3.7048,-3.7324,-3.7613,-3.8178,-3.8454,-3.8467,-3.9032,-3.9295,-4.063,-4.0172,-4.0032,-3.9788,-4.0199,-4.0802,-4.1188,-4.1856,-4.2502,-4.2886,-4.2974,-4.2974,-4.2974,-4.3325,-4.3778,-4.4244,-4.4738,-4.568,-4.7289,-4.725,-4.7484,-4.8655,-4.8414,0.0,-4.8185,-4.8068,0.0,-4.6565,-4.6251,-4.5702,-4.4774,-4.4668,-4.4668,-4.4668,-4.4668,-4.5248,-4.6374,-4.5301,-4.5794,-4.7979,-4.7522,-4.742,-4.7726,-4.9401,-4.9239,-4.7726,-4.8795,0.0,0.0,-4.8894,-4.8745,-4.808,-4.8646,-4.8546,-4.7929,-4.7471,-4.7573,-4.7881,-4.6977,-4.6128,-4.5367,-4.4493,-4.4021,-4.3915,-4.4373,-4.3942,-4.3232,-4.2992,-4.2834,-4.2786,-4.2786,-4.2738,-4.2509,-4.169,-4.0743,-3.9981,-3.9736,-3.9697,-3.9697,-3.9697,-3.9697,-3.9697,-3.9697,-3.9697,-3.9546,-3.9107,-3.8555,-3.799,-3.7425,-3.6872,-3.6543,-3.6417,-3.6405,-3.6405,-3.6405,-3.6405,-3.6405,-3.6405,-3.6518,-3.6581,-3.6581,-3.6694,-3.6923,-3.7349,-3.7487,-3.7764,-3.8191,-3.8768,-3.9095,-3.9057,-3.9484,-3.9697,-4.1153,-4.0464,-4.0032,-3.9788,-4.0488,-4.1225,-4.1275,-4.2145,-4.2924,-4.2974,-4.2974,-4.2974,-4.2974,-4.3024,-4.3325,0.0,0.0,-4.5425,-4.6398,-4.7153,-4.7652,-4.7814,0.0,0.0,-4.8185,-4.7715,-4.7153,-4.6525,-4.5493,-4.4839,-4.4681,-4.4668,-4.4668,-4.4668,-4.4668,-4.5248,-4.6374,-4.5301,-4.5794,-4.7979,-4.5939,-4.5555,-4.6531,-4.6725,-4.6725,-4.6635,-4.7675,0.0,0.0,-4.8131,-4.808,-4.7915,-4.7036,-4.7229,-4.7777,-4.5741,-4.6242,-4.778,-4.6144,-4.5543,-4.5523,-4.5754,-4.4244,-4.2282,-4.1792,-4.1435,-4.1172,-4.1172,-4.0769,-4.0415,-4.0415,-4.0224,-4.0032,-3.9929,-3.9839,-3.9749,-3.9697,-3.9697,-3.9697,-3.9697,-3.9697,-3.9697,-3.9697,-3.9697,-3.9672,-3.9622,-3.9145,-3.858,-3.8002,-3.745,-3.6958,-3.6468,-3.6405,-3.6405,-3.6405,-3.6405,-3.6405,-3.6405,-3.6883,-3.7111,-3.7111,-3.7588,-3.7889,-3.7939,-3.8442,-3.8793,-3.8844,-3.9346,-3.9622,-3.9622,-3.9672,-3.9697,-4.2098,-4.1762,-4.1491,-4.1058,-4.1547,-4.2061,-4.1886,-4.2421,-4.2974,-4.2974,-4.2974,-4.2974,-4.2974,-4.2974,-4.3105,0.0,0.0,0.0,-4.5508,-4.5917,-4.6533,-4.7639,-4.7821,0.0,0.0,0.0,-4.7466,-4.6552,-4.5388,-4.4668,-4.4668,-4.4668,-4.4668,-4.4668,-4.4668,-4.4938,-4.5342,-4.4938,-4.5127,-4.5992,-4.5808,-4.5609,-4.5395,-4.6764,-4.6621,-4.5449,-4.6569,0.0,0.0,-4.6764,-4.6608,-4.6045,-4.6321,-4.6269,-4.59,-4.5033,-4.5235,-4.5913,-4.5236,-4.501,-4.501,-4.4814,-4.4067,-4.3127,-4.2475,-4.1794,-4.1081,-4.0389,-4.0044,-3.9839,-3.9839,-3.9788,-3.9697,-3.9697,-3.9697,-3.9697,-3.9697,-3.9697,-3.9697,-3.9697,-3.9697,-3.9697,-3.9697,-3.9697,-3.9697,-3.9697,-3.922,-3.8831,-3.8555,-3.8027,-3.76,-3.7374,-3.6807,-3.6405,-3.6405,-3.6405,-3.6556,-3.6835,-3.7061,-3.7324,-3.7663,-3.7889,-3.8165,-3.8517,-3.8806,-3.9032,-3.9371,-3.9584,-3.9697,-3.9697,-3.9697,-3.9697,-4.2683,-4.2578,-4.2473,-4.193,-4.2201,-4.2553,-4.2267,-4.264,-4.2974,-4.2974,-4.2974,-4.2974,-4.2974,-4.2974,-4.2974,0.0,0.0,-4.3664,-4.4864,-4.5188,-4.5877,-4.7331,0.0,-4.769,0.0,-4.7827,-4.7205,-4.6042,-4.5192,-4.4668,-4.4668,-4.4668,-4.4668,-4.4668,-4.4668,-4.4668,-4.4668,-4.4668,-4.4668,-4.4722,-4.5502,-4.5502,-4.4722,-4.6294,-4.615,-4.4722,-4.5555,0.0,0.0,-4.5555,-4.5395,-4.4776,-4.5609,-4.5395,-4.4668,-4.4668,-4.4668,-4.4668,-4.4668,-4.4668,-4.4602,-4.4157,-4.4027,-4.3884,-4.3074,-4.2151,-4.1208,-4.0296,-3.9862,-3.9697,-3.9697,-3.9697,-3.9697,-3.9697,-3.9697,-3.9697,-3.9697,-3.9697,-3.9697,-3.9697,-3.9697,-3.9697,-3.9697,-3.9697,-3.9697,-3.9697,-3.9371,-3.9108,-3.8944,-3.8517,-3.8203,-3.8027,-3.7312,-3.6832,-3.6669,-3.6656,-3.682,-3.7161,-3.75,-3.7852,-3.8253,-3.8417,-3.8693,-3.9107,-3.912,-3.9308,-3.9697,-3.9697,-3.9697,-3.9697,-3.9697,-3.9697,-4.2683,-4.2578,-4.2473,-4.193,-4.2201,-4.2553,-4.2267,-4.264,-4.2974,-4.2974,-4.2974,-4.2974,-4.2974,-4.2974,-4.2974,-4.2974,0.0,0.0,-4.4543,-4.533,-4.6134,0.0,-4.7053,-4.7324,-4.769,-4.6981,-4.6016,-4.4839,-4.4681,0.0,-4.4668,-4.4668,-4.4668,-4.4668,-4.4668,-4.4668,-4.4668,-4.4668,-4.4668,-4.4668,-4.4722,-4.4722,-4.4668,-4.4722,-4.4722,-4.4668,0.0,0.0,0.0,-4.4722,-4.4722,-4.4668,-4.4722,-4.4722,-4.4668,-4.4668,-4.4668,-4.4668,-4.4668,-4.4668,-4.4681,-4.4354,-4.4313,-4.4087,-4.2923,-4.2021,-4.1337,-4.0999,-4.0307,-3.9697,-3.9697,-3.9697,-3.9697,-3.9697,-3.9697,-3.9697,-3.9697,-3.9697,-3.9697,-3.9697,-3.9697,-3.9697,-3.9697,-3.9697,-3.9697,-3.9697,-3.9685,-3.9484,-3.8994,-3.8906,-3.8642,-3.8065,-3.8002,-3.7764,-3.7224,-3.7174,-3.7174,-3.7186,-3.8241,-3.8906,-3.8906,-3.9383,-3.9685,-3.9685,-3.9685,-3.9685,-3.9697,-3.9697,-3.9697,-3.9697,-3.9697,-3.9697,-4.3388,-4.3619,-4.3661,-4.3307,-4.3203,-4.3098,-4.2834,-4.2848,-4.2974,-4.2974,-4.2974,-4.2974,-4.2974,-4.2974,-4.3099,-4.3476,-4.3689,0.0,0.0,0.0,0.0,-4.6125,-4.681,-4.7123,0.0,0.0,-4.5866,-4.51,-4.4848,-4.4668,-4.4668,-4.4668,-4.4668,-4.4668,-4.4668,-4.4668,-4.4668,-4.4668,-4.4668,-4.4668,-4.4668,-4.4668,-4.4668,-4.4668,-4.4668,0.0,0.0,0.0,0.0,-4.4668,-4.4668,-4.4668,-4.4668,-4.4668,-4.4668,-4.4668,-4.4668,-4.4668,-4.4668,-4.4668,-4.4681,-4.4367,-4.4313,-4.4165,-4.3369,-4.27,-4.2029,-4.0938,-4.0163,-3.9697,-3.9697,-3.9697,-3.9697,-3.9697,-3.9697,-3.9697,-3.9697,-3.9697,-3.9697,-3.9697,-3.9697,-3.9697,-3.9697,-3.9697,-3.9697,-3.9697,-3.9697,-3.9634,-3.9459,-3.9433,-3.9358,-3.9182,-3.8818,-3.8366,-3.7801,-3.7751,-3.7914,-3.8366,-3.868,-3.9044,-3.9421,-3.9597,-3.9697,-3.9697,-3.9697,-3.9697,-3.9697,-3.9697,-3.9697,-3.9697,-3.9697,-3.9697,-4.3454,-4.3919,-4.4258,-4.3955,-4.364,-4.3338,-4.3085,-4.2974,-4.2974,-4.2974,-4.2974,-4.2974,-4.2974,-4.2974,-4.3087,-4.3426,-4.3489,-4.3765,0.0,0.0,0.0,-4.5973,0.0,0.0,0.0,-4.5794,-4.5451,-4.4882,-4.4767,-4.4668,-4.4668,-4.4668,-4.4668,-4.4668,-4.4668,-4.4668,-4.4668,-4.4668,-4.4668,-4.4668,-4.4668,-4.4668,-4.4668,-4.4668,-4.4668,0.0,0.0,0.0,0.0,-4.4668,-4.4668,-4.4668,-4.4668,-4.4668,-4.4668,-4.4668,-4.4668,-4.4668,-4.4668,-4.4626,-4.4518,-4.4258,-4.3984,-4.3751,-4.3351,-4.2722,-4.1884,-4.0817,-4.0124,-3.9697,-3.9697,-3.9697,-3.9697,-3.9697,-3.9697,-3.9697,-3.9697,-3.9697,-3.9697,-3.9697,-3.9697,-3.9697,-3.9697,-3.9697,-3.9697,-3.9697,-3.9697,-3.9697,-3.9697,-3.9697,-3.9697,-3.9697,-3.9383,-3.9032,-3.8668,-3.8454,-3.8492,-3.8894,-3.9069,-3.9333,-3.9685,-3.9697,-3.9697,-3.9697,-3.9697,-3.9697,-3.9697,-3.9697,-3.9697,-3.9697,-3.9697,-3.9697,0.0,-4.3606,-4.4203,-4.3955,-4.3653,-4.3283,-4.3085,-4.2974,0.0,-4.2974,-4.2974,-4.2974,-4.2974,-4.2974,-4.2986,-4.3024,-4.3037,-4.3413,0.0,-4.4656,0.0,0.0,-4.6049,0.0,-4.5086,-4.5096,-4.4921,-4.431,-4.4518,-4.4681,-4.4668,-4.4668,-4.4668,-4.4668,-4.4668,-4.4668,-4.4668,-4.4668,-4.4668,-4.4668,-4.4668,-4.4668,-4.4668,-4.4668,-4.4668,0.0,0.0,0.0,0.0,-4.4668,-4.4668,-4.4668,-4.4668,-4.4668,-4.4668,-4.4668,-4.4668,-4.4681,-4.4681,-4.4518,-4.4203,-4.3942,-4.3487,-4.2974,-4.2974,-4.2233,-4.1238,-4.0777,-4.0212,-3.9747,-3.9747,-3.9722,-3.9697,-3.9697,-3.9697,-3.9697,-3.9697,-3.9697,-3.9697,-3.9697,-3.9697,-3.9697,-3.9697,-3.9697,-3.9697,-3.9697,-3.9697,-3.9697,-3.9697,-3.9697,-3.9697,-3.9697,-3.9697,-3.9697,-3.9697,-3.922,-3.8982,-3.8982,-3.9408,-3.9697,-3.9697,-3.9697,-3.9697,-3.9697,-3.9697,-3.9697,-3.9697,-3.9697,-3.9697,-3.9697,-3.9697,-3.9697,-4.2905,0.0,-4.401,-4.3899,-4.3487,-4.3085,0.0,-4.2974,-4.2974,-4.2974,-4.2974,-4.2974,-4.2974,-4.2974,-4.3112,-4.3539,-4.3601,-4.384,-4.4531,-4.5008,0.0,-4.6225,-4.5871,-4.5376,-4.4797,-4.4586,-4.4377,-4.4048,-4.4258,-4.4463,-4.4668,-4.4668,-4.4668,-4.4668,-4.4668,-4.4668,-4.4668,-4.4668,-4.4668,-4.4668,-4.4668,-4.4668,-4.4668,-4.4668,-4.4668,0.0,0.0,0.0,-4.4668,-4.4668,-4.4668,-4.4668,-4.4668,-4.4668,-4.4668,-4.4668,-4.4572,-4.4367,-4.4367,-4.4203,-4.3942,-4.364,-4.3295,-4.2974,-4.2974,-4.2497,-4.1932,-4.1861,-4.1065,-4.0325,-4.0325,-4.0011,-3.9697,-3.9697,-3.9697,-3.9697,-3.9697,-3.9697,-3.9697,-3.9697,-3.9697,-3.9697,-3.9697,-3.9697,-3.9697,-3.9697,-3.9697,-3.9697,-3.9697,-3.9697,-3.9697,-3.9697,-3.9697,-3.9697,-3.9697,-3.9572,-3.9496,-3.9496,-3.9622,-3.9697,-3.9697,-3.9697,-3.9697,-3.9697,-3.9697,-3.9697,-3.9697,-3.9697,-3.9697,-3.9697,-3.9697,-3.9697,-4.2723,-4.3145,-4.3566,-4.3835,-4.3444,-4.2974,-4.2974,-4.2974,-4.2974,-4.2974,-4.2974,-4.2974,-4.2974,-4.2974,-4.3074,-4.3376,-4.3426,-4.3702,-4.4505,0.0,-4.5698,-4.625,-4.5585,-4.497,0.0,-4.4175,-4.386,-4.3925,-4.4161,-4.4422,-4.4668,-4.4668,-4.4668,-4.4668,-4.4668,-4.4668,-4.4668,-4.4668,-4.4668,-4.4668,-4.4668,-4.4668,-4.4668,-4.4668,-4.4668,0.0,0.0,0.0,-4.4668,-4.4668,-4.4668,-4.4668,-4.4668,-4.4668,-4.4668,-4.4668,-4.4518,-4.4313,-4.4313,-4.4039,-4.3598,-4.3308,-4.3141,-4.2974,-4.2974,-4.2828,-4.2539,-4.2288,-4.1543,-4.0786,-4.0576,-4.0287,-4.0011,-3.9747,-3.9697,-3.9697,-3.9697,-3.9697,-3.9697,-3.9697,-3.9697,-3.9697,-3.9697,-3.9697,-3.9697,-3.9697,-3.9697,-3.9697,-3.9697,-3.9697,-3.9697,-3.9697,-3.9697,-3.9697,-3.9697,-3.9697,-3.9697,-3.9697,-3.9697,-3.9697,-3.9697,-3.9697,-3.9697,-3.9697,-3.9697,-3.9697,-3.9697,-3.9697,-3.9697,-3.9697,-3.9697,-3.9697,-4.2488,-4.2701,-4.3,-4.3665,-4.3432,-4.2974,-4.2974,-4.2974,-4.2974,-4.2974,-4.2974,-4.2974,-4.2974,-4.2974,-4.2974,-4.2974,-4.2974,-4.3363,-4.4468,-4.5045,-4.556,-4.6125,-4.5259,0.0,-4.4505,-4.379,-4.3462,-4.3776,-4.4039,-4.43,-4.4572,-4.4572,-4.4572,-4.4572,-4.4626,-4.4626,-4.4572,-4.4681,-4.4668,-4.4668,-4.4668,-4.4668,-4.4668,-4.4668,-4.4668,-4.4668,0.0,0.0,-4.4668,-4.4668,-4.4668,-4.4668,-4.4668,-4.4668,-4.4668,-4.4681,-4.4463,-4.4203,-4.4148,-4.3751,-4.3283,-4.3085,-4.2974,-4.2974,-4.2974,-4.2974,-4.2942,-4.2464,-4.1882,-4.13,-4.089,-4.0639,-4.04,-3.9936,-3.9747,-3.9697,-3.9697,-3.9697,-3.9697,-3.9697,-3.9697,-3.9697,-3.9697,-3.9697,-3.9697,-3.9697,-3.9697,-3.9697,-3.9697,-3.9697,-3.9697,-3.9697,-3.9697,-3.9697,-3.9697,-3.9697,-3.9697,-3.9697,-3.9697,-3.9697,-3.9697,-3.9697,-3.9697,-3.9697,-3.9697,-3.9697,-3.9697,-3.9697,-3.9697,-3.9697,-3.9697,-3.9697,-4.2333,-4.2247,-4.2166,-4.3195,-4.3252,-4.2974,-4.2974,-4.2974,-4.2974,-4.2974,-4.2974,-4.2974,-4.2974,-4.2974,-4.2974,-4.2974,-4.2974,-4.3363,0.0,0.0,-4.497,-4.5547,0.0,-4.4443,-4.3978,-4.3407,-4.3197,-4.3462,-4.3504,-4.3683,-4.3997,-4.3997,-4.3997,-4.3997,-4.4258,-4.4258,-4.4052,-4.4463,-4.4668,-4.4668,-4.4668,-4.4668,-4.4668,-4.4668,-4.4668,-4.4668,0.0,-4.4668,-4.4668,-4.4668,-4.4668,-4.4668,-4.4668,-4.4668,-4.4681,-4.4463,-4.4216,-4.3899,-4.3376,-4.3141,-4.303,-4.303,-4.2974,-4.2974,-4.2974,-4.2974,-4.2961,-4.2873,-4.2446,-4.2062,-4.1986,-4.1216,-4.0488,-4.0413,-4.0036,-3.9697,-3.9697,-3.9697,-3.9697,-3.9697,-3.9697,-3.9697,-3.9697,-3.9697,-3.9697,-3.9697,-3.9697,-3.9697,-3.9697,-3.9697,-3.9697,-3.9697,-3.9697,-3.9697,-3.9697,-3.9697,-3.9697,-3.9697,-3.9697,-3.9697,-3.9697,-3.9697,-3.9697,-3.9697,-3.9697,-3.9697,-3.9697,-3.9697,-3.9697,-3.9697,-3.9697,-3.9697,-4.1724,-4.1794,-4.1881,-4.2595,-4.2859,-4.2974,-4.2974,-4.2974,-4.2974,-4.2974,-4.2974,-4.2974,-4.2974,-4.2974,-4.2974,-4.2974,-4.2974,-4.3263,-4.4066,-4.4179,-4.4392,0.0,0.0,-4.4079,-4.3827,-4.33,-4.3141,-4.3394,-4.3394,-4.3517,-4.3899,-4.3899,-4.3899,-4.3899,-4.3997,-4.3997,-4.3899,-4.4161,-4.4367,-4.4463,-4.4626,-4.4668,-4.4668,-4.4668,-4.4668,-4.4668,0.0,-4.4668,-4.4668,-4.4668,-4.4668,-4.4668,-4.4668,-4.4668,-4.4681,-4.4258,-4.3874,-4.3585,-4.3141,-4.2974,-4.2974,-4.2974,-4.2974,-4.2974,-4.2974,-4.2974,-4.2974,-4.2974,-4.2798,-4.259,-4.2288,-4.1555,-4.0837,-4.0588,-4.0099,-3.9697,-3.9697,-3.9697,-3.9697,-3.9697,-3.9697,-3.9697,-3.9697,-3.9697,-3.9697,-3.9697,-3.9697,-3.9697,-3.9697,-3.9697,-3.9697,-3.9697,-3.9697,-3.9697,-3.9697,-3.9697,-3.9697,-3.9697,-3.9697,-3.9697,-3.9697,-3.9697,-3.9697,-3.9697,-3.9697,-3.9697,-3.9697,-3.9697,-3.9697,-3.9697,-3.9697,-3.9697,-4.1183,-4.1343,-4.1521,-4.1873,-4.2371,-4.2879,-4.2949,-4.2873,-4.2785,-4.2785,-4.2785,-4.2785,-4.2785,-4.2942,-4.2974,-4.2974,-4.2974,-4.3175,-4.3727,-4.3802,-4.3953,-4.438,-4.4053,-4.3752,-4.3614,-4.3225,-4.3085,-4.3295,-4.3283,-4.3419,-4.3666,-4.3666,-4.3666,-4.3666,-4.3776,-4.3776,-4.3666,-4.3844,-4.4052,-4.4313,-4.4518,-4.4626,-4.4668,-4.4668,-4.4668,-4.4668,-4.4668,-4.4668,-4.4668,-4.4668,-4.4681,-4.4626,-4.4626,-4.4505,-4.4341,-4.3929,-4.3585,-4.3295,-4.3085,-4.2974,-4.2974,-4.2974,-4.2974,-4.2974,-4.2974,-4.2974,-4.2974,-4.2974,-4.2974,-4.2942,-4.2514,-4.1944,-4.1392,-4.084,-4.0287,-3.9848,-3.9722,-3.9697,-3.9697,-3.9697,-3.9697,-3.9697,-3.9697,-3.9697,-3.9697,-3.9697,-3.9697,-3.9697,-3.9697,-3.9697,-3.9697,-3.9697,-3.9697,-3.9697,-3.9697,-3.9697,-3.9697,-3.9697,-3.9697,-3.9697,-3.9697,-3.9697,-3.9697,-3.9697,-3.9697,-3.9697,-3.9697,-3.9697,-3.9697,-3.9697,-3.9697,-3.9697,-4.1144,-4.0958,-4.0701,-4.1254,-4.1806,-4.2401,-4.2861,-4.264,-4.2263,-4.2263,-4.2263,-4.2263,-4.2263,-4.269,-4.2974,-4.2974,-4.2974,-4.3175,-4.3727,0.0,-4.3815,-4.3853,-4.3827,-4.3601,-4.3087,-4.2999,-4.303,-4.303,-4.303,-4.303,-4.303,-4.303,-4.303,-4.303,-4.3295,-4.3295,-4.3098,-4.3611,-4.4052,-4.4313,-4.4313,-4.4463,-4.4668,-4.4668,-4.4668,-4.4668,-4.4668,-4.4668,-4.4668,-4.4668,-4.4572,-4.4313,-4.4313,-4.3971,-4.3504,-4.3449,-4.324,-4.303,-4.303,-4.2974,-4.2974,-4.2974,-4.2974,-4.2974,-4.2974,-4.2974,-4.2974,-4.2974,-4.2974,-4.2974,-4.2924,-4.2564,-4.1957,-4.1351,-4.0811,-4.0325,-3.9798,-3.9697,-3.9697,-3.9697,-3.9697,-3.9697,-3.9697,-3.9697,-3.9697,-3.9697,-3.9697,-3.9697,-3.9697,-3.9697,-3.9697,-3.9697,-3.9697,-3.9697,-3.9697,-3.9697,-3.9697,-3.9697,-3.9697,-3.9697,-3.9697,-3.9697,-3.9697,-3.9697,-3.9697,-3.9697,-3.9697,-3.9697,-3.9697,-3.9697,-3.9697,-3.9697,-4.0542,-4.0751,-4.099,-4.0865,-4.1505,-4.2263,-4.2476,-4.2627,-4.2728,-4.2728,-4.2728,-4.2728,-4.2728,-4.2615,-4.2627,-4.2924,-4.2974,-4.3049,-4.3263,-4.3288,-4.3288,-4.3288,-4.3288,-4.3212,-4.2999,-4.2974,-4.2974,-4.2974,-4.2974,0.0,-4.2974,-4.2974,-4.2974,-4.2974,-4.3085,-4.3085,-4.2974,-4.3209,-4.3474,-4.3738,-4.3929,-4.4216,-4.4463,-4.4258,-4.4313,-4.4409,-4.4258,-4.4313,-4.4463,-4.4463,-4.4367,-4.4258,-4.4107,-4.3751,-4.3394,-4.3394,-4.324,-4.2974,-4.2974,-4.2974,-4.2974,-4.2974,-4.2974,-4.2974,-4.2974,-4.2974,-4.2974,-4.2974,-4.2974,-4.2974,-4.2974,-4.2627,-4.215,-4.1894,-4.1166,-4.0463,-4.0249,-3.9936,-3.9697,-3.9697,-3.9697,-3.9697,-3.9697,-3.9697,-3.9697,-3.9697,-3.9697,-3.9697,-3.9697,-3.9697,-3.9697,-3.9697,-3.9697,-3.9697,-3.9697,-3.9697,-3.9697,-3.9697,-3.9697,-3.9697,-3.9697,-3.9697,-3.9697,-3.9697,-3.9697,-3.9697,-3.9697,-3.9697,-3.9697,-3.9697,-3.9697,-3.9873,-3.9982,-4.0307,-4.0777,-4.0563,-4.1204,-4.1907,-4.1907,-4.2321,-4.2672,-4.2497,-4.2459,-4.2509,-4.2685,0.0,0.0,0.0,-4.2974,-4.2974,-4.2974,-4.2974,-4.2974,-4.2974,-4.2974,-4.2974,-4.2974,-4.2974,-4.2974,-4.2974,-4.2974,0.0,0.0,-4.2974,-4.2974,-4.2974,-4.2974,-4.2974,-4.2974,-4.2974,-4.3085,-4.3295,-4.3487,-4.3832,-4.4161,-4.401,-4.3997,-4.4161,-4.401,-4.3997,-4.4161,-4.4161,-4.4094,-4.3971,-4.3721,-4.3487,-4.3295,-4.3295,-4.3129,-4.2974,-4.2974,-4.2974,-4.2974,-4.2974,-4.2974,-4.2974,-4.2974,-4.2974,-4.2974,-4.2974,-4.2974,-4.2974,-4.2974,-4.2753,-4.2426,-4.225,-4.158,-4.094,-4.0588,-4.0224,-3.9898,-3.9722,-3.9697,-3.9697,-3.9697,-3.9697,-3.9697,-3.9697,-3.9697,-3.9697,-3.9697,-3.9697,-3.9697,-3.9697,-3.9697,-3.9697,-3.9697,-3.9697,-3.9697,-3.9697,-3.9697,-3.9697,-3.9697,-3.9697,-3.9697,-3.9697,-3.9697,-3.9697,-3.9697,-3.9697,-3.9697,-3.9697,-3.9873,-4.0162,-3.9537,-3.9487,-3.9823,-4.0375,-4.0874,-4.1288,-4.1275,-4.1756,-4.2049,-4.1388,-4.1275,-4.1505,-4.2099,-4.22,0.0,-4.2942,-4.2974,-4.2974,-4.2974,-4.2974,-4.2974,-4.2974,-4.2974,-4.2974,-4.2974,-4.2974,-4.2974,-4.2974,-4.2974,0.0,0.0,-4.2974,-4.2974,-4.2974,-4.2974,-4.2974,-4.2974,-4.2974,-4.2974,-4.2974,-4.2974,-4.3321,-4.3899,-4.3899,-4.3899,-4.3899,-4.3899,-4.3899,-4.3899,-4.3899,-4.3708,-4.3394,-4.3085,-4.2974,-4.2974,-4.2974,-4.2974,-4.2974,-4.2974,-4.2974,-4.2974,-4.2974,-4.2974,-4.2974,-4.2974,-4.2974,-4.2974,-4.2974,-4.2974,-4.2974,-4.2974,-4.2974,-4.2891,-4.2351,-4.2213,-4.1911,-4.0764,-4.0526,-4.035,-3.981,-3.9697,-3.9697,-3.9697,-3.9697,-3.9697,-3.9697,-3.9697,-3.9697,-3.9697,-3.9697,-3.9697,-3.9697,-3.9697,-3.9697,-3.9697,-3.971,-3.971,-3.971,-3.9697,-3.9697,-3.9697,-3.9697,-3.9697,-3.9697,-3.9697,-3.9697,-3.9697,-3.9697,-3.9697,-3.9722,-4.0262,-4.0526,-3.8666,-3.902,-3.9735,-3.9898,-4.0651,-4.1188,-4.0852,-4.1492,-4.2049,-4.1388,-4.0974,-4.0927,-4.148,-4.158,0.0,-4.2363,-4.2778,-4.2974,-4.2974,-4.2974,-4.2974,-4.2974,-4.2974,-4.2974,-4.2974,-4.2974,-4.2974,-4.2974,0.0,0.0,0.0,-4.2974,-4.2974,-4.2974,-4.2974,-4.2974,-4.2974,-4.2974,-4.2974,-4.2974,-4.2974,-4.3197,-4.3517,-4.3376,-4.3364,-4.3517,-4.3376,-4.3364,-4.3517,-4.3517,-4.3517,-4.3394,-4.3085,-4.2974,-4.2974,-4.2974,-4.2974,-4.2974,-4.2974,-4.2974,-4.2974,-4.2974,-4.2974,-4.2974,-4.2974,-4.2974,-4.2974,-4.2974,-4.2974,-4.2974,-4.2974,-4.2974,-4.2936,-4.2828,-4.2489,-4.2125,-4.1798,-4.1065,-4.0463,-4.03,-3.9961,-3.9697,-3.9697,-3.9697,-3.9697,-3.9697,-3.9697,-3.9697,-3.9697,-3.9697,-3.9697,-3.9697,-4.0036,-4.0275,-4.0275,-4.0626,-4.0852,-4.0852,-4.0488,-4.0099,-3.971,-3.9697,-3.9697,-3.9697,-3.9697,-3.9697,-3.9697,-3.9697,-3.9885,-4.0275,-4.0438,-4.0927,-3.8741,-3.9272,-4.0074,-4.0287,-4.0852,-4.1137,-4.0639,-4.1028,-4.1467,-4.1313,-4.0849,-4.0676,-4.1188,-4.1288,0.0,-4.2125,-4.2678,-4.2974,-4.2974,-4.2974,-4.2974,-4.2974,-4.2974,-4.2974,-4.2974,-4.2974,-4.2974,-4.2974,0.0,0.0,0.0,-4.2974,-4.2974,-4.2974,-4.2974,-4.2974,-4.2974,-4.2974,-4.2974,-4.2974,-4.2974,-4.3085,-4.324,-4.3085,-4.3085,-4.324,-4.3085,-4.3085,-4.324,-4.324,-4.324,-4.324,-4.3085,-4.2974,-4.2974,-4.2974,-4.2974,-4.2974,-4.2974,-4.2974,-4.2974,-4.2974,-4.2974,-4.2974,-4.2974,-4.2974,-4.2974,-4.2974,-4.2974,-4.2974,-4.2974,-4.2974,-4.2974,-4.2974,-4.2778,-4.2414,-4.1919,-4.1304,-4.0714,-4.0275,-3.9923,-3.9697,-3.9697,-3.9697,-3.9697,-3.9697,-3.9697,-3.9697,-3.9697,-3.9697,-3.9772,-3.9998,-4.0325,-4.0614,-4.0827,-4.11,-4.1288,-4.1288,-4.0974,-4.0701,-4.0362,-4.0136,-4.0023,-4.0023,-4.0023,-4.0023,-4.0023,-4.0023,-4.03,-4.0852,-4.1065,-4.1517,-3.9245,-3.9815,-4.0588,-4.1137,-4.1288,-4.1125,-4.0576,-4.0438,-4.0588,-4.1025,-4.0789,-4.0601,-4.105,-4.1175,-4.143,-4.1986,-4.2564,-4.2898,-4.2898,-4.2949,-4.2974,-4.2974,-4.2974,-4.2974,-4.2974,-4.2974,-4.2974,0.0,0.0,0.0,-4.2974,-4.2974,-4.2974,-4.2974,-4.2974,-4.2974,-4.2974,-4.2974,-4.2974,-4.2974,-4.2974,-4.2974,-4.2974,-4.2974,-4.2974,-4.2974,-4.2974,-4.2974,-4.2974,-4.2974,-4.2974,-4.2974,-4.2974,-4.2974,-4.2974,-4.2974,-4.2974,-4.2974,-4.2974,-4.2974,-4.2974,-4.2974,-4.2974,-4.2974,-4.2974,-4.2974,-4.2974,-4.2974,-4.2974,-4.2974,-4.2974,-4.2974,-4.2974,-4.2974,-4.2974,-4.271,-4.1706,-4.1351,-4.0987,-4.0036,-3.976,-3.9697,-3.9697,-3.9697,-3.9697,-3.9697,-3.9697,-3.9697,-3.9697,-3.9735,-3.9961,-4.0463,-4.0601,-4.0865,-4.1313,-4.1413,-4.1426,-4.1426,-4.1388,-4.1376,-4.1426,-4.0915,-4.0588,-4.0588,-4.0588,-4.0588,-4.0588,-4.0588,-4.0877,-4.1376,-4.1919,-4.2238,-3.8389,-3.907,-4.0111,-4.1037,-4.1288,-4.1025,-4.0099,-3.9873,-3.991,-4.0023,-3.9961,-3.991,-4.0023,-4.04,-4.0727,-4.0852,-4.1693,-4.2389,-4.2389,-4.2698,-4.2974,-4.2974,-4.2974,-4.2974,-4.2974,-4.2974,-4.2974,0.0,0.0,0.0,-4.2974,-4.2974,-4.2974,-4.2974,-4.2974,-4.2974,-4.2974,-4.2974,-4.2974,0.0,-4.2974,-4.2974,-4.2974,-4.2974,-4.2974,-4.2974,-4.2974,-4.2974,-4.2974,-4.2974,-4.2974,-4.2974,-4.2974,-4.2974,-4.2974,-4.2974,-4.2974,-4.2974,-4.2974,-4.2974,-4.2974,-4.2974,-4.2974,-4.2974,-4.2974,-4.2974,-4.2974,-4.2974,-4.2974,-4.2974,-4.2974,-4.2974,-4.2974,-4.2974,-4.2974,-4.2911,-4.2672,-4.1944,-4.1213,-4.0974,-4.0287,-3.9697,-3.9697,-3.9697,-3.9697,-3.9697,-3.9697,-3.9697,-3.9697,-4.0074,-4.0388,-4.0501,-4.1291,-4.1898,-4.2024,-4.2371,-4.2622,-4.2622,-4.2221,-4.217,-4.261,-4.1681,-4.1112,-4.1112,-4.1112,-4.1112,-4.1112,-4.1112,-4.1442,-4.2037,-4.215,-4.2439,-3.8652,-3.9536,-4.0676,-4.1517,-4.153,-4.1062,-4.0275,-3.9885,-3.9697,-3.9697,-3.9697,-3.9697,-3.9697,-4.0149,-4.0513,-4.0513,-4.1216,-4.1856,-4.2175,-4.2451,-4.274,-4.2949,-4.2974,-4.2974,-4.2974,-4.2974,-4.2974,0.0,0.0,-4.2974,-4.2974,-4.2974,-4.2974,-4.2974,-4.2974,-4.2974,-4.2974,-4.2974,-4.2974,-4.2974,-4.2974,-4.2974,-4.2974,-4.2974,-4.2974,-4.2974,-4.2974,-4.2974,-4.2974,-4.2974,-4.2974,-4.2974,-4.2974,-4.2974,-4.2974,-4.2974,-4.2974,-4.2974,-4.2974,-4.2974,-4.2974,-4.2974,-4.2974,-4.2974,-4.2974,-4.2974,-4.2974,-4.2974,-4.2974,-4.2974,-4.2974,-4.2974,-4.2974,-4.2974,-4.2974,-4.2898,-4.269,-4.1932,-4.1213,-4.099,-4.0275,-3.9697,-3.9697,-3.9697,-3.9697,-3.9697,-3.9697,-3.9785,-4.0061,-4.0337,-4.0714,-4.1241,-4.1873,-4.2313,-4.2577,-4.2811,-4.2974,-4.2974,-4.2766,-4.274,-4.2974,-4.2421,-4.1995,-4.1743,-4.1731,-4.1731,-4.1731,-4.1731,-4.2007,-4.2602,-4.2338,-4.2157,-3.9129,-4.0219,-4.1388,-4.1907,-4.1743,-4.1317,-4.0664,-4.0162,-3.981,-3.971,-3.9697,-3.9697,-3.9697,-4.0061,-4.0375,-4.0375,-4.0786,-4.1392,-4.1932,-4.215,-4.2414,-4.2911,-4.2974,-4.2974,-4.2974,-4.2974,0.0,0.0,0.0,-4.2974,-4.2974,-4.2974,-4.2974,-4.2974,-4.2974,-4.2974,-4.2974,-4.2974,-4.2974,-4.2974,-4.2974,-4.2974,-4.2974,-4.2974,-4.2974,-4.2974,-4.2974,-4.2974,-4.2974,-4.2974,-4.2974,-4.2974,-4.2974,-4.2974,-4.2974,-4.2974,-4.2974,-4.2974,-4.2974,-4.2974,-4.2974,-4.2974,-4.2974,-4.2974,-4.2974,-4.2974,-4.2974,-4.2974,-4.2974,-4.2974,-4.2974,-4.2974,-4.2974,-4.2974,-4.2974,-4.2848,-4.2451,-4.1794,-4.115,-4.0752,-4.0136,-3.9697,-3.9697,-3.9697,-3.9722,-3.9823,-3.9835,-4.0036,-4.0588,-4.0739,-4.1141,-4.2112,-4.2288,-4.2539,-4.2936,-4.2974,-4.2974,-4.2974,-4.2974,-4.2974,-4.2974,-4.2974,-4.2778,-4.2213,-4.2301,-4.2301,-4.2213,-4.2213,-4.2389,-4.2685,-4.2221,-4.1676,-3.87,-3.9864,-4.13,-4.1376,-4.1743,-4.1781,-4.0752,-4.0463,-4.0275,-3.9798,-3.9697,-3.9697,-3.9697,-3.9747,-3.9798,-3.9798,-4.0275,-4.0814,-4.1313,-4.1856,-4.2414,-4.2911,-4.2974,-4.2974,-4.2974,-4.2974,0.0,0.0,-4.2974,-4.2974,-4.2974,-4.2974,-4.2974,-4.2974,-4.2974,-4.2974,-4.2974,-4.2974,-4.2974,-4.2974,-4.2974,-4.2974,-4.2974,-4.2974,-4.2974,-4.2974,-4.2974,-4.2974,-4.2974,-4.2974,-4.2974,-4.2974,-4.2974,-4.2974,-4.2974,-4.2974,-4.2974,-4.2974,-4.2974,-4.2974,-4.2974,-4.2974,-4.2974,-4.2974,-4.2974,-4.2974,-4.2974,-4.2974,-4.2974,-4.2974,-4.2974,-4.2974,-4.2974,-4.2974,-4.2974,-4.2961,-4.2886,-4.2057,-4.1263,-4.1188,-4.04,-3.9697,-3.9697,-3.9697,-3.986,-4.0337,-4.0413,-4.0614,-4.11,-4.1643,-4.2049,-4.2187,-4.264,-4.2898,-4.2974,-4.2974,-4.2974,-4.2974,-4.2974,-4.2974,-4.2974,-4.2974,-4.2778,-4.2213,-4.2678,-4.269,-4.2213,-4.2213,-4.1957,-4.1501,-4.1426,-4.1052,-3.9428,-3.989,-4.0639,-4.1568,-4.1743,-4.1656,-4.148,-4.1191,-4.0827,-4.0275,-4.0162,-4.0061,-3.9747,-3.9697,-3.9697,-3.9697,-3.9898,-4.0249,-4.0802,-4.1091,-4.1555,-4.2476,-4.2577,-4.269,-4.2949,-4.2974,0.0,0.0,-4.2974,-4.2974,-4.2974,-4.2974,-4.2974,-4.2974,-4.2974,-4.2974,-4.2974,-4.2974,-4.2974,-4.2974,-4.2974,-4.2974,-4.2974,-4.2974,-4.2974,-4.2974,-4.2974,-4.2974,-4.2974,-4.2974,-4.2974,-4.2974,-4.2974,-4.2974,-4.2974,-4.2974,-4.2974,-4.2974,-4.2974,-4.2974,-4.2974,-4.2974,-4.2974,-4.2974,-4.2974,-4.2974,-4.2974,-4.2974,-4.2974,-4.2974,-4.2974,-4.2974,-4.2974,-4.2974,-4.2974,-4.2974,-4.2974,-4.2359,-4.1706,-4.1351,-4.045,-3.9885,-4.0513,-4.0111,-3.9986,-4.0852,-4.0714,-4.0827,-4.1681,-4.2062,-4.2326,-4.264,-4.2891,-4.2974,-4.2974,-4.2974,-4.2974,-4.2974,-4.2974,-4.2974,-4.2974,-4.2974,-4.2778,-4.2213,-4.2451,-4.2246,-4.1706,-4.1706,-4.123,-4.036,-4.0053,-3.9292,-3.9515,-3.9474,-3.9737,-4.1207,-4.143,-4.1388,-4.1856,-4.1743,-4.1392,-4.084,-4.0727,-4.0601,-4.0187,-3.9885,-3.9697,-3.9697,-3.9697,-3.9885,-4.0438,-4.0513,-4.0877,-4.1831,-4.2125,-4.2376,-4.2791,-4.2898,0.0,0.0,-4.2974,-4.2924,-4.2828,-4.2828,-4.2828,-4.2828,-4.2828,-4.2836,-4.2974,-4.2974,-4.2974,-4.2974,-4.2974,-4.2974,-4.2974,-4.2974,-4.2974,-4.2974,-4.2974,-4.2974,-4.2974,-4.2974,-4.2974,-4.2974,-4.2974,-4.2974,-4.2974,-4.2974,-4.2974,-4.2974,-4.2974,-4.2974,-4.2974,-4.2974,-4.2974,-4.2974,-4.2974,-4.2974,-4.2974,-4.2974,-4.2974,-4.2974,-4.2974,-4.2974,-4.2974,-4.2974,-4.2974,-4.2936,-4.2854,-4.2333,-4.1831,-4.1363,-4.0563,-4.0212,-4.1125,-4.0664,-4.0438,-4.1404,-4.1191,-4.1279,-4.2301,-4.2414,-4.2577,-4.2936,-4.2974,-4.2974,-4.2974,-4.2974,-4.2974,-4.2974,-4.2974,-4.2974,-4.2974,-4.2974,-4.2778,-4.2213,-4.2213,-4.1819,-4.1075,-4.1213,-4.0636,-3.9351,-3.9086,-3.8115,-3.8187,-3.8237,-3.869,-3.9585,-4.0588,-4.13,-4.1326,-4.1769,-4.1957,-4.1351,-4.125,-4.1238,-4.12,-4.04,-3.9697,-3.9697,-3.9697,-3.9885,-4.0438,-4.0513,-4.0727,-4.1263,-4.1844,-4.2213,-4.225,0.0,0.0,0.0,-4.2974,-4.2803,-4.2288,-4.225,-4.225,-4.225,-4.225,-4.2502,-4.2974,-4.2974,-4.2974,-4.2974,-4.2974,-4.2974,-4.2974,-4.2974,-4.2974,-4.2974,-4.2974,-4.2974,-4.2974,-4.2974,-4.2974,-4.2974,-4.2974,-4.2974,-4.2974,-4.2974,-4.2974,-4.2974,-4.2974,-4.2974,-4.2974,-4.2974,-4.2974,-4.2974,-4.2974,-4.2974,-4.2974,-4.2974,-4.2974,-4.2974,-4.2974,-4.2974,-4.2974,-4.2974,-4.2974,-4.2836,-4.2363,-4.1769,-4.1326,-4.13,-4.0811,-4.0664,-4.1188,-4.1238,-4.1442,-4.2087,-4.2137,-4.2338,-4.2861,-4.2936,-4.2949,-4.2974,-4.2974,-4.2974,-4.2974,-4.2974,-4.2974,-4.2974,-4.2974,-4.2974,-4.2974,-4.2974,-4.2778,-4.2213,-4.2213,-4.163,-4.0563,-4.1025,-4.0384,-3.8635,-3.9169,-3.834,-3.9044,-3.8497,-3.8106,-3.9121,-3.9561,-3.9936,-4.0651,-4.1241,-4.158,-4.1326,-4.1618,-4.1756,-4.1351,-4.0962,-4.0626,-4.0275,-4.0224,-4.0174,-4.0011,-3.9986,-4.0199,-4.0752,-4.1291,-4.1769,-4.2175,0.0,0.0,0.0,0.0,-4.2414,-4.2213,-4.1819,-4.163,-4.163,-4.1969,-4.2476,-4.2974,-4.2974,-4.2974,-4.2974,-4.2974,-4.2974,-4.2974,-4.2974,-4.2974,-4.2974,-4.2974,-4.2974,-4.2974,-4.2974,-4.2974,-4.2974,-4.2974,-4.2974,-4.2974,-4.2974,-4.2974,-4.2974,-4.2974,-4.2974,-4.2974,-4.2974,-4.2974,-4.2974,-4.2974,-4.2974,-4.2974,-4.2974,-4.2974,-4.2974,-4.2974,-4.2974,-4.2974,-4.2974,-4.2974,-4.2924,-4.2778,-4.2246,-4.1969,-4.2321,-4.1668,-4.1329,-4.2233,-4.1806,-4.1643,-4.2547,-4.2439,-4.2401,-4.2898,-4.2974,-4.2974,-4.2974,-4.2974,-4.2974,-4.2974,-4.2974,-4.2974,-4.2974,-4.2974,-4.2974,-4.2974,-4.2974,-4.2778,-4.2213,-4.2213,-4.1781,-4.0987,-4.0382,-3.935,-3.7985,-3.6895,-3.5739,-3.9177,-3.849,-3.8071,-3.8786,-3.8641,-3.8693,-4.0174,-4.0664,-4.0902,-4.1213,-4.1769,-4.2099,-4.1681,-4.1769,-4.1643,-4.0915,-4.0639,-4.0388,-4.0023,-3.981,-3.9835,-4.0199,-4.0674,-4.1279,-4.1831,0.0,0.0,0.0,0.0,0.0,-4.1907,-4.1543,-4.1288,-4.1288,-4.1869,-4.2476,-4.2974,-4.2974,-4.2974,-4.2974,-4.2974,-4.2974,-4.2974,-4.2974,-4.2974,-4.2974,-4.2974,-4.2974,-4.2974,-4.2974,-4.2974,-4.2974,-4.2974,-4.2974,-4.2974,-4.2974,-4.2974,-4.2974,-4.2974,-4.2974,-4.2974,-4.2974,-4.2974,-4.2974,-4.2974,-4.2974,-4.2974,-4.2974,-4.2974,-4.2974,-4.2974,-4.2974,-4.2974,-4.2974,-4.2974,-4.2974,-4.2974,-4.2602,-4.2376,-4.2873,-4.2233,-4.1907,-4.2823,-4.2371,-4.2145,-4.2873,-4.2728,-4.2627,-4.2924,-4.2974,-4.2974,-4.2974,-4.2974,-4.2974,-4.2974,-4.2974,-4.2974,-4.2974,-4.2974,-4.2974,-4.2974,-4.2974,-4.2798,-4.2489,-4.2489,-4.2191,-4.1718,-4.0373,-3.8933,-3.7463,-3.5945,-3.4593,0.0,0.0,0.0,-3.8418,-3.7806,-3.7775,-3.9923,-3.9998,-3.9936,-4.1012,-4.1718,-4.215,-4.2187,-4.264,-4.261,-4.1489,-4.0915,-4.0563,-4.0538,-4.0061,-3.9722,-3.9722,-4.0187,-4.0727,-4.1225,0.0,0.0,0.0,-4.2961,-4.2484,-4.1351,-4.125,-4.125,-4.1288,-4.1856,-4.2451,-4.2974,-4.2974,-4.2974,-4.2974,-4.2974,-4.2974,-4.2974,-4.2974,-4.2974,-4.2974,-4.2974,-4.2974,-4.2974,-4.2974,-4.2974,-4.2974,-4.2974,-4.2974,-4.2974,-4.2974,-4.2974,-4.2974,-4.2974,-4.2974,-4.2974,-4.2974,-4.2974,-4.2974,-4.2974,-4.2974,-4.2974,-4.2974,-4.2974,-4.2974,-4.2974,-4.2974,-4.2974,-4.2974,-4.2974,-4.2974,-4.2974,-4.2615,-4.2389,-4.2873,-4.2602,-4.2401,-4.2886,-4.2974,-4.2974,-4.2974,-4.2974,-4.2974,-4.2974,-4.2974,-4.2974,-4.2974,-4.2974,-4.2974,-4.2974,-4.2974,-4.2974,-4.2974,-4.2974,-4.2974,-4.2974,-4.2974,-4.2974,-4.2974,-4.2974,-4.2793,-4.2444,-4.0966,-3.9174,-3.719,-3.6443,-3.5023,-4.0312,0.0,0.0,0.0,0.0,0.0,0.0,-3.8138,-3.8316,-3.9835,-4.0275,-4.0614,-4.1417,-4.202,-4.2338,-4.1982,-4.1806,-4.1568,-4.1166,-4.0639,-4.0287,-4.0287,-4.0425,-4.0727,0.0,0.0,0.0,0.0,-4.2665,-4.207,-4.1326,-4.0576,-4.0513,-4.1263,-4.148,-4.202,-4.2974,-4.2974,-4.2974,-4.2974,-4.2974,-4.2974,-4.2974,-4.2974,-4.2974,-4.2974,-4.2974,-4.2974,-4.2974,-4.2974,-4.2974,-4.2974,-4.2974,-4.2974,-4.2974,-4.2974,-4.2974,-4.2974,-4.2974,-4.2974,-4.2974,-4.2974,-4.2974,-4.2974,-4.2974,-4.2974,-4.2974,-4.2974,-4.2974,-4.2974,-4.2974,-4.2974,-4.2974,-4.2974,-4.2974,-4.2974,-4.2974,-4.2848,-4.2798,-4.2949,-4.2848,-4.2854,-4.2949,-4.2974,-4.2974,-4.2974,-4.2974,-4.2974,-4.2974,-4.2974,-4.2974,-4.2974,-4.2974,-4.2974,-4.2974,-4.2974,-4.2974,-4.2974,-4.2974,-4.2974,-4.2974,-4.2974,-4.2862,-4.2638,-4.2638,-4.2339,-4.162,-3.9642,-3.8263,-3.7398,-3.448,-3.2733,0.0,0.0,0.0,0.0,0.0,0.0,-3.8535,-3.8093,-3.7948,0.0,-3.9585,-3.9961,-4.0786,-4.1442,-4.1894,-4.2175,-4.2213,-4.2099,-4.1718,-4.1204,-4.0777,-4.0538,-4.0727,-4.0937,0.0,-4.1844,-4.2439,-4.2936,-4.274,-4.2158,-4.1326,-4.0287,-4.0199,-4.125,-4.1288,-4.1869,-4.2974,-4.2974,-4.2974,-4.2974,-4.2974,-4.2974,-4.2974,-4.2974,-4.2974,-4.2974,-4.2974,-4.2974,-4.2974,-4.2974,-4.2974,-4.2974,-4.2974,-4.2974,-4.2974,-4.2974,-4.2974,-4.2974,-4.2974,-4.2974,-4.2974,-4.2974,-4.2974,-4.2974,-4.2974,-4.2974,-4.2974,-4.2974,-4.2974,-4.2974,-4.2974,-4.2974,-4.2974,-4.2974,-4.2974,-4.2974,-4.2974,-4.2974,-4.2974,-4.2974,-4.2974,-4.2974,-4.2974,-4.2974,-4.2974,-4.2974,-4.2974,-4.2974,-4.2974,-4.2974,-4.2974,-4.2974,-4.2974,-4.2974,-4.2974,-4.2974,-4.2974,-4.2974,-4.2974,-4.2974,-4.2974,-4.2862,-4.2694,-4.2525,-4.2356,-4.1342,-3.9309,-3.8355,-3.7014,-3.5205,-3.2717,-3.1437,0.0,0.0,0.0,0.0,0.0,0.0,-3.9731,-3.8937,-3.8195,0.0,-3.9259,-3.9562,-4.0036,-4.0701,-4.1317,-4.1861,-4.2087,-4.2238,-4.2288,-4.1781,-4.1188,-4.0752,-4.1025,-4.1313,-4.1363,-4.1869,-4.2439,-4.2936,-4.2861,-4.2371,-4.1338,-4.035,-4.0262,-4.125,-4.1351,-4.1932,-4.2974,-4.2974,-4.2974,-4.2974,-4.2974,-4.2974,-4.2974,-4.2974,-4.2974,-4.2974,-4.2974,-4.2974,-4.2974,-4.2974,-4.2974,-4.2974,-4.2974,-4.2974,-4.2974,-4.2974,-4.2974,-4.2974,-4.2974,-4.2974,-4.2974,-4.2974,-4.2974,-4.2974,-4.2974,-4.2974,-4.2974,-4.2974,-4.2974,-4.2974,-4.2974,-4.2974,-4.2974,-4.2974,-4.2974,-4.2974,-4.2974,-4.2974,-4.2974,-4.2974,-4.2974,-4.2974,-4.2974,-4.2974,-4.2974,-4.2974,-4.2974,-4.2974,-4.2974,-4.2974,-4.2974,-4.2974,-4.2974,-4.2974,-4.2974,-4.2974,-4.2974,-4.2974,-4.2974,-4.2974,-4.2974,-4.2694,-4.2469,-4.2469,-4.1906,-3.9872,-3.6345,-3.701,-3.5429,-3.185,-3.1182,-3.0918,0.0,0.0,0.0,0.0,0.0,0.0,-3.9349,-3.8292,-3.7485,0.0,-3.7945,-3.7679,-3.7834,-3.9032,-4.0049,-4.0162,-4.1345,-4.2363,-4.2748,-4.2346,-4.2011,-4.1898,-4.1543,-4.1517,-4.1957,-4.215,-4.2439,-4.2936,-4.2158,-4.1514,-4.13,-4.0714,-4.0664,-4.1263,-4.1769,-4.2363,-4.2974,-4.2974,-4.2974,-4.2974,-4.2974,-4.2974,-4.2974,-4.2974,-4.2974,-4.2974,-4.2974,-4.2974,-4.2974,-4.2974,-4.2974,-4.2974,-4.2974,-4.2974,-4.2974,-4.2974,-4.2974,-4.2974,-4.2974,-4.2974,-4.2974,-4.2974,-4.2974,-4.2974,-4.2974,-4.2974,-4.2974,-4.2974,-4.2974,-4.2974,-4.2974,-4.2974,-4.2974,-4.2974,-4.2974,-4.2974,-4.2974,-4.2974,-4.2974,-4.2974,-4.2974,-4.2974,-4.2974,-4.2974,-4.2974,-4.2974,-4.2974,-4.2974,-4.2974,-4.2974,-4.2974,-4.2974,-4.2974,-4.2974,-4.2974,-4.2974,-4.2974,-4.2974,-4.2974,-4.2974,-4.2974,-4.2694,-4.2413,-4.2155,-3.9843,-3.761,-3.547,-3.5615,-3.4127,-3.1123,-3.0986,-3.1074,0.0,0.0,0.0,-4.0229,0.0,0.0,0.0,-3.895,-3.8404,-3.8578,-3.8397,-3.8174,-3.8007,-3.862,-3.9243,-3.9662,-4.0162,-4.0955,-4.2007,-4.2396,-4.2514,-4.2238,-4.2158,-4.2158,-4.2213,-4.2451,-4.274,-4.2949,-4.1957,-4.1401,-4.1731,-4.0965,-4.089,-4.1718,-4.2062,-4.2476,-4.2974,-4.2974,-4.2974,-4.2974,-4.2974,-4.2974,-4.2974,-4.274,-4.2627,-4.2602,-4.2271,-4.2308,-4.2627,-4.2627,-4.2791,-4.2974,-4.2974,-4.2974,-4.2974,-4.2974,-4.2974,-4.2974,-4.2974,-4.2974,-4.2974,-4.2974,-4.2974,-4.2974,-4.2974,-4.2974,-4.2974,-4.2974,-4.2974,-4.2974,-4.2974,-4.2974,-4.2974,-4.2974,-4.2974,-4.2974,-4.2974,-4.2974,-4.2974,-4.2974,-4.2974,-4.2974,-4.2974,-4.2974,-4.2974,-4.2974,-4.2974,-4.2974,-4.2974,-4.2974,-4.2974,-4.2974,-4.2974,-4.2974,-4.2974,-4.2974,-4.2974,-4.2974,-4.2974,-4.2918,-4.275,-4.2481,-4.1712,-4.0409,-3.8651,-3.6622,-3.4299,-3.4076,-3.2903,-3.0898,-3.1103,-3.1318,0.0,0.0,0.0,0.0,0.0,-4.0182,0.0,0.0,0.0,0.0,0.0,0.0,0.0,0.0,0.0,0.0,0.0,0.0,0.0,-4.2032,0.0,-4.225,-4.269,-4.2798,-4.2414,-4.2678,-4.2861,-4.2974,-4.1957,-4.158,-4.2187,-4.1317,-4.1241,-4.2187,-4.2313,-4.2577,-4.2974,-4.2974,-4.2974,-4.2974,-4.2873,-4.2879,-4.2798,-4.2301,-4.2049,-4.1969,-4.153,-4.1643,-4.2213,-4.2213,-4.2539,-4.2974,-4.2974,-4.2974,-4.2974,-4.2974,-4.2974,-4.2974,-4.2974,-4.2974,-4.2974,-4.2974,-4.2974,-4.2974,-4.2974,-4.2974,-4.2974,-4.2974,-4.2974,-4.2974,-4.2974,-4.2974,-4.2974,-4.2974,-4.2974,-4.2974,-4.2974,-4.2974,-4.2974,-4.2974,-4.2974,-4.2974,-4.2974,-4.2974,-4.2974,-4.2974,-4.2974,-4.2974,-4.2974,-4.2974,-4.2974,-4.2974,-4.2974,-4.2974,-4.2974,-4.2974,-4.2974,-4.2974,-4.2918,-4.2806,-4.2525,-4.196,-4.0655,-3.8608,-3.7587,-3.5868,-3.3395,-3.2672,-3.1845,-3.0898,-3.1318,-3.1562,0.0,0.0,0.0,0.0,-3.9963,0.0,0.0,0.0,-3.9306,-3.8904,0.0,0.0,0.0,0.0,0.0,0.0,0.0,0.0,-4.0513,-4.1087,-4.1681,-4.2162,-4.269,-4.2949,0.0,-4.2552,-4.2502,-4.2936,-4.1957,-4.158,-4.2187,-4.2087,-4.2087,-4.2213,-4.269,-4.2911,-4.2974,-4.2974,-4.2974,-4.2974,-4.2539,-4.2301,-4.2288,-4.1681,-4.1376,-4.1376,-4.1313,-4.1643,-4.2213,-4.2213,-4.2539,-4.2974,-4.2974,-4.2974,-4.2974,-4.2974,-4.2974,-4.2974,-4.2974,-4.2974,-4.2974,-4.2974,-4.2974,-4.2974,-4.2974,-4.2974,-4.2974,-4.2974,-4.2974,-4.2974,-4.2974,-4.2974,-4.2974,-4.2974,-4.2974,-4.2974,-4.2974,-4.2974,-4.2974,-4.2974,-4.2974,-4.2974,-4.2974,-4.2974,-4.2974,-4.2974,-4.2974,-4.2974,-4.2974,-4.2974,-4.2974,-4.2974,-4.2974,-4.2974,-4.2974,-4.2974,-4.2974,-4.2974,-4.275,-4.2525,-4.2525,-4.0858,-3.95,-3.8424,-3.5826,-3.4146,-3.3289,-3.1834,-3.1005,-3.0898,-3.1318,-3.1728,0.0,0.0,0.0,0.0,0.0,0.0,-3.9858,0.0,-3.9339,0.0,0.0,0.0,0.0,0.0,0.0,0.0,-3.86,0.0,0.0,0.0,-4.1065,0.0,0.0,0.0,0.0,0.0,0.0,0.0,-4.1957,-4.1718,-4.264,-4.2389,-4.2351,-4.2678,-4.2848,-4.2974,-4.2974,-4.2974,-4.2811,-4.2552,-4.2313,-4.2049,-4.1668,-4.1116,-4.0865,-4.0852,-4.0526,-4.0689,-4.1229,-4.1555,-4.2007,-4.259,-4.2848,-4.2974,-4.2974,-4.2974,-4.2974,-4.2974,-4.2974,-4.2974,-4.2974,-4.2974,-4.2974,-4.2974,-4.2974,-4.2974,-4.2974,-4.2974,-4.2974,-4.2974,-4.2974,-4.2974,-4.2974,-4.2974,-4.2974,-4.2974,-4.2974,-4.2974,-4.2974,-4.2974,-4.2974,-4.2974,-4.2974,-4.2974,-4.2974,-4.2974,-4.2974,-4.2974,-4.2974,-4.2974,-4.2974,-4.2974,-4.2974,-4.2974,-4.2974,-4.2974,-4.2918,-4.275,-4.2231,-4.1639,-4.0916,-3.9919,-3.8435,-3.6291,-3.5037,-3.3837,-3.2645,-3.2008,-3.1631,-3.1631,-3.1816,-3.2119,-4.1871,0.0,0.0,0.0,0.0,0.0,0.0,0.0,0.0,0.0,0.0,0.0,0.0,0.0,0.0,0.0,0.0,-3.8986,0.0,0.0,0.0,0.0,0.0,0.0,0.0,0.0,0.0,0.0,0.0,-4.1819,-4.2924,-4.2652,-4.2627,-4.2961,-4.2974,-4.2974,-4.2974,-4.2974,-4.2753,-4.2213,-4.2049,-4.1643,-4.1037,-4.0538,-4.0287,-4.0275,-3.9873,-4.0011,-4.0563,-4.1062,-4.1668,-4.2263,-4.276,-4.2974,-4.2974,-4.2974,-4.2974,-4.2974,-4.2974,-4.2974,-4.2974,-4.2974,-4.2974,-4.2974,-4.2974,-4.2974,-4.2974,-4.2974,-4.2974,-4.2974,-4.2974,-4.2974,-4.2974,-4.2974,-4.2974,-4.2974,-4.2974,-4.2974,-4.2974,-4.2974,-4.2974,-4.2974,-4.2974,-4.2974,-4.2974,-4.2974,-4.2974,-4.2974,-4.2974,-4.2974,-4.2974,-4.2974,-4.2974,-4.2974,-4.2974,-4.2974,-4.2681,-4.1866,-4.1353,-4.0466,-3.9087,-3.8495,-3.7134,-3.494,-3.4401,-3.3588,-3.2334,-3.2226,-3.2287,-3.2334,-3.2334,-3.25,0.0,0.0,0.0,-4.1557,0.0,0.0,0.0,0.0,-4.0546,0.0,0.0,0.0,0.0,0.0,0.0,0.0,0.0,0.0,0.0,0.0,0.0,0.0,0.0,0.0,0.0,0.0,0.0,0.0,-4.1656,0.0,-4.2924,-4.2961,-4.2961,-4.2974,-4.2974,-4.2974,-4.2974,-4.2974,-4.2753,-4.22,-4.1618,-4.1025,-4.0526,-3.9973,-3.9722,-3.9722,-3.9697,-4.0011,-4.0563,-4.1062,-4.1668,-4.2263,-4.276,-4.2974,-4.2974,-4.2974,-4.2974,-4.2974,-4.2974,-4.2974,-4.2974,-4.2974,-4.2974,-4.2974,-4.2974,-4.2974,-4.2974,-4.2974,-4.2974,-4.2974,-4.2974,-4.2974,-4.2974,-4.2974,-4.2974,-4.2974,-4.2974,-4.2974,-4.2974,-4.2974,-4.2974,-4.2974,-4.2974,-4.2974,-4.2974,-4.2974,-4.2974,-4.2974,-4.2974,-4.2974,-4.2974,-4.2974,-4.2974,-4.2974,-4.2974,-4.2974,-4.2206,-4.0315,-3.9908,-3.9028,-3.7418,-3.6154,-3.5489,-3.5355,-3.3723,-3.2845,-3.2773,-3.2363,-3.2383,-3.2773,-3.2773,-3.2783,0.0,0.0,-4.2851,-4.2231,0.0,0.0,0.0,0.0,0.0,0.0,0.0,0.0,0.0,0.0,0.0,0.0,0.0,0.0,0.0,0.0,0.0,0.0,0.0,0.0,0.0,0.0,0.0,0.0,-4.1643,0.0,0.0,-4.2974,-4.2974,-4.2974,-4.2974,-4.2974,-4.2974,-4.2974,-4.2522,-4.1605,-4.1376,-4.0811,-3.9961,-3.9772,-3.9697,-3.9697,-3.9697,-3.9798,-4.0036,-4.0912,-4.1388,-4.1706,-4.2622,-4.2974,-4.2974,-4.2974,-4.2974,-4.2974,-4.2974,-4.2974,-4.2974,-4.2974,-4.2974,-4.2974,-4.2974,-4.2974,-4.2974,-4.2974,-4.2974,-4.2974,-4.2974,-4.2974,-4.2974,-4.2974,-4.2974,-4.2974,-4.2974,-4.2974,-4.2974,-4.2974,-4.2974,-4.2974,-4.2974,-4.2974,-4.2974,-4.2974,-4.2974,-4.2974,-4.2974,-4.2974,-4.2974,-4.2974,-4.2806,-4.2694,-4.2694,-4.1513,-4.0199,-3.865,-3.8305,-3.7478,-3.6093,-3.5612,-3.5005,-3.409,-3.3523,-3.3213,-3.3213,-3.3066,-3.3066,-3.3213,-3.3213,-3.3213,-4.3045,-4.3125,0.0,-4.256,-4.2396,0.0,-4.0995,0.0,-4.2073,0.0,0.0,0.0,0.0,0.0,0.0,0.0,0.0,0.0,0.0,-3.9597,0.0,0.0,0.0,0.0,0.0,0.0,-4.0676,-4.1781,-4.1543,0.0,0.0,0.0,-4.2974,-4.2974,-4.2974,-4.2974,-4.2974,-4.2841,-4.2233,-4.1288,-4.1087,-4.0576,-3.9697,-3.9697,-3.9697,-3.9697,-3.9697,-3.9697,-3.9772,-4.0837,-4.1288,-4.1401,-4.2547,-4.2974,-4.2974,-4.2974,-4.2974,-4.2974,-4.2974,-4.2974,-4.2974,-4.2974,-4.2974,-4.2974,-4.2974,-4.2974,-4.2974,-4.2974,-4.2974,-4.2974,-4.2974,-4.2974,-4.2974,-4.2974,-4.2974,-4.2974,-4.2974,-4.2974,-4.2974,-4.2974,-4.2974,-4.2974,-4.2974,-4.2974,-4.2974,-4.2974,-4.2974,-4.2974,-4.2974,-4.2974,-4.2974,-4.2974,-4.2694,-4.2287,-4.1696,-4.0024,-3.8472,-3.7144,-3.6803,-3.6032,-3.4767,-3.4704,-3.4278,-3.3418,-3.3418,-3.3418,-3.3418,-3.3418,-3.3418,-3.3418,-3.3418,-3.3418]},{"header":{"parameterUnit":"m.s-1","parameterCategory":1,"la1":30.6,"la2":29.2853,"lo1":-89.7004,"lo2":-87.6739,"dy":0.0162,"dx":0.0183,"nx":112,"ny":82,"refTime":"2025-05-30T12:00:00:Z","depth":0,"parameterNumber":3,"parameterNumberName":"V-component_of_WINDS"},"data":[0.0,0.0,0.0,0.0,0.0,0.0,0.0,0.0,0.0,0.0,0.0,0.0,0.0,0.0,0.0,0.0,0.0,0.0,0.0,0.0,0.0,0.0,0.0,0.0,0.0,0.0,0.0,0.0,0.0,0.0,0.0,0.0,0.0,0.0,0.0,0.0,0.0,0.0,0.0,0.0,0.0,0.0,0.0,0.0,0.0,0.0,0.0,0.0,0.0,0.0,0.0,0.0,0.0,0.0,0.0,0.0,0.0,0.0,0.0,0.0,0.0,0.0,0.0,0.0,0.0,0.0,0.0,0.0,0.0,0.0,0.0,0.0,0.0,0.0,0.0,0.0,0.0,0.0,0.0,0.0,0.0,0.0,0.0,0.0,0.0,0.0,0.0,0.0,0.0,0.0,2.6965,2.7055,2.7011,2.6394,2.492,2.4515,2.3972,2.3082,0.0,0.0,0.0,0.0,0.0,0.0,0.0,0.0,0.0,0.0,0.0,0.0,0.0,0.0,0.0,0.0,0.0,0.0,0.0,0.0,0.0,0.0,0.0,0.0,0.0,0.0,0.0,0.0,0.0,0.0,0.0,0.0,0.0,0.0,0.0,0.0,0.0,0.0,0.0,0.0,0.0,0.0,0.0,0.0,0.0,0.0,0.0,0.0,0.0,0.0,0.0,0.0,0.0,0.0,0.0,0.0,0.0,0.0,0.0,0.0,0.0,0.0,0.0,0.0,0.0,0.0,0.0,0.0,0.0,0.0,0.0,0.0,0.0,0.0,0.0,0.0,0.0,0.0,0.0,0.0,0.0,0.0,0.0,0.0,0.0,0.0,0.0,0.0,0.0,0.0,0.0,0.0,0.0,0.0,0.0,0.0,0.0,0.0,0.0,0.0,0.0,0.0,0.0,0.0,2.6473,2.6531,2.6833,2.6866,2.6626,2.627,2.599,2.5944,0.0,0.0,0.0,0.0,0.0,0.0,0.0,0.0,0.0,0.0,0.0,0.0,0.0,0.0,0.0,0.0,0.0,0.0,0.0,0.0,0.0,0.0,0.0,0.0,0.0,0.0,0.0,0.0,0.0,0.0,0.0,0.0,0.0,0.0,0.0,0.0,0.0,0.0,0.0,0.0,0.0,0.0,0.0,0.0,0.0,0.0,0.0,0.0,0.0,0.0,0.0,0.0,0.0,0.0,0.0,0.0,0.0,0.0,0.0,0.0,0.0,0.0,0.0,0.0,0.0,0.0,0.0,0.0,0.0,0.0,0.0,0.0,0.0,0.0,0.0,0.0,0.0,0.0,0.0,0.0,0.0,0.0,0.0,0.0,0.0,0.0,0.0,0.0,0.0,0.0,0.0,0.0,0.0,0.0,0.0,0.0,0.0,0.0,0.0,0.0,0.0,0.0,0.0,2.7345,2.7308,2.7989,2.7878,2.7751,2.7751,2.7378,2.6885,2.6325,2.4898,0.0,0.0,0.0,0.0,0.0,0.0,0.0,0.0,0.0,0.0,0.0,0.0,0.0,0.0,0.0,0.0,0.0,0.0,0.0,0.0,0.0,0.0,0.0,0.0,0.0,0.0,0.0,0.0,0.0,0.0,0.0,0.0,0.0,0.0,0.0,0.0,0.0,0.0,0.0,0.0,0.0,0.0,0.0,0.0,0.0,0.0,0.0,0.0,0.0,0.0,0.0,0.0,0.0,0.0,0.0,0.0,0.0,0.0,0.0,0.0,0.0,0.0,0.0,0.0,0.0,0.0,0.0,0.0,0.0,0.0,0.0,0.0,0.0,0.0,0.0,0.0,0.0,0.0,0.0,0.0,0.0,0.0,0.0,0.0,0.0,0.0,0.0,0.0,0.0,0.0,0.0,0.0,0.0,0.0,0.0,0.0,0.0,0.0,0.0,0.0,0.0,0.0,2.8454,2.8586,2.9524,2.9037,2.8658,2.876,2.8205,2.741,2.6384,2.6134,0.0,0.0,0.0,0.0,0.0,0.0,0.0,0.0,0.0,0.0,0.0,0.0,0.0,0.0,0.0,0.0,0.0,0.0,0.0,0.0,0.0,0.0,0.0,0.0,0.0,0.0,0.0,0.0,0.0,0.0,0.0,0.0,0.0,0.0,0.0,0.0,0.0,0.0,0.0,0.0,0.0,0.0,0.0,0.0,0.0,0.0,0.0,0.0,0.0,0.0,0.0,0.0,0.0,0.0,0.0,0.0,0.0,0.0,0.0,0.0,0.0,0.0,0.0,0.0,0.0,0.0,0.0,0.0,0.0,0.0,0.0,0.0,0.0,0.0,0.0,0.0,0.0,0.0,0.0,0.0,0.0,0.0,0.0,0.0,0.0,0.0,0.0,0.0,0.0,0.0,0.0,0.0,0.0,0.0,0.0,0.0,0.0,0.0,0.0,0.0,0.0,0.0,2.9239,3.0111,2.9912,2.9504,2.9409,2.9728,2.8663,2.7776,2.7305,2.655,0.0,0.0,0.0,0.0,0.0,0.0,0.0,0.0,0.0,0.0,0.0,0.0,0.0,0.0,0.0,0.0,0.0,0.0,0.0,0.0,0.0,0.0,0.0,0.0,0.0,0.0,0.0,0.0,0.0,0.0,0.0,0.0,0.0,0.0,0.0,0.0,0.0,0.0,0.0,0.0,0.0,0.0,0.0,0.0,0.0,0.0,0.0,0.0,0.0,0.0,0.0,0.0,0.0,0.0,0.0,0.0,0.0,0.0,0.0,0.0,0.0,0.0,0.0,0.0,0.0,0.0,0.0,0.0,0.0,0.0,0.0,0.0,0.0,0.0,0.0,0.0,0.0,0.0,0.0,0.0,0.0,0.0,0.0,0.0,0.0,0.0,0.0,0.0,0.0,0.0,0.0,0.0,0.0,0.0,0.0,0.0,0.0,0.0,0.0,0.0,0.0,0.0,2.8475,2.9066,0.0,2.9279,2.9089,2.9515,2.8568,2.7812,2.7406,0.0,0.0,0.0,0.0,0.0,0.0,0.0,0.0,0.0,0.0,0.0,0.0,0.0,0.0,0.0,0.0,0.0,0.0,0.0,0.0,0.0,0.0,0.0,0.0,0.0,0.0,0.0,0.0,0.0,0.0,0.0,0.0,0.0,0.0,0.0,0.0,0.0,0.0,0.0,0.0,0.0,0.0,0.0,0.0,0.0,0.0,0.0,0.0,0.0,0.0,0.0,0.0,0.0,0.0,0.0,0.0,0.0,0.0,0.0,0.0,0.0,0.0,0.0,0.0,0.0,0.0,0.0,0.0,0.0,0.0,0.0,0.0,0.0,0.0,0.0,0.0,0.0,0.0,0.0,0.0,0.0,0.0,0.0,0.0,0.0,0.0,0.0,0.0,0.0,0.0,0.0,0.0,0.0,0.0,0.0,0.0,0.0,0.0,0.0,0.0,0.0,0.0,2.8184,2.8426,2.8964,0.0,2.9584,2.9326,2.9766,2.8772,2.7997,2.7711,0.0,0.0,0.0,0.0,0.0,0.0,0.0,0.0,0.0,0.0,0.0,0.0,0.0,0.0,0.0,0.0,0.0,0.0,0.0,0.0,0.0,0.0,0.0,0.0,0.0,0.0,0.0,0.0,0.0,0.0,0.0,0.0,0.0,0.0,0.0,0.0,0.0,0.0,0.0,0.0,0.0,0.0,0.0,0.0,0.0,0.0,0.0,0.0,0.0,0.0,0.0,0.0,0.0,0.0,0.0,0.0,0.0,0.0,0.0,0.0,0.0,0.0,0.0,0.0,0.0,0.0,0.0,0.0,0.0,0.0,0.0,0.0,0.0,0.0,0.0,0.0,0.0,0.0,0.0,0.0,0.0,0.0,0.0,0.0,0.0,0.0,0.0,0.0,0.0,0.0,0.0,0.0,0.0,0.0,0.0,0.0,0.0,0.0,0.0,0.0,0.0,0.0,2.8184,2.9394,3.0361,3.083,3.0469,3.0381,3.084,2.9287,2.8301,0.0,0.0,0.0,0.0,0.0,0.0,0.0,0.0,0.0,0.0,0.0,0.0,0.0,0.0,0.0,0.0,0.0,0.0,0.0,0.0,0.0,0.0,0.0,0.0,0.0,0.0,0.0,0.0,0.0,0.0,0.0,0.0,0.0,0.0,0.0,0.0,0.0,0.0,0.0,0.0,0.0,0.0,0.0,0.0,0.0,0.0,0.0,0.0,0.0,0.0,0.0,0.0,0.0,0.0,0.0,0.0,0.0,0.0,0.0,0.0,0.0,0.0,0.0,0.0,0.0,0.0,0.0,0.0,0.0,0.0,0.0,0.0,0.0,0.0,0.0,0.0,0.0,0.0,0.0,0.0,0.0,0.0,0.0,0.0,0.0,0.0,0.0,0.0,0.0,0.0,0.0,0.0,0.0,0.0,0.0,0.0,0.0,0.0,0.0,0.0,0.0,0.0,0.0,2.8184,2.8877,2.958,3.0322,3.0273,3.0137,2.9971,2.9209,2.8476,2.7891,0.0,0.0,0.0,0.0,0.0,0.0,0.0,0.0,0.0,0.0,0.0,0.0,0.0,0.0,0.0,0.0,0.0,0.0,0.0,0.0,0.0,0.0,0.0,0.0,0.0,0.0,0.0,0.0,0.0,0.0,0.0,0.0,0.0,0.0,0.0,0.0,0.0,0.0,0.0,0.0,0.0,0.0,0.0,0.0,0.0,0.0,0.0,0.0,0.0,0.0,0.0,0.0,0.0,0.0,0.0,0.0,0.0,0.0,0.0,0.0,0.0,0.0,0.0,0.0,0.0,0.0,0.0,0.0,0.0,0.0,0.0,0.0,0.0,0.0,0.0,0.0,0.0,0.0,0.0,0.0,0.0,0.0,0.0,0.0,0.0,0.0,0.0,0.0,0.0,0.0,0.0,0.0,0.0,0.0,0.0,0.0,0.0,0.0,0.0,0.0,0.0,0.0,2.791,2.8555,2.918,2.9873,2.9941,2.9775,2.9346,2.8916,2.831,2.7461,0.0,0.0,0.0,0.0,0.0,0.0,0.0,0.0,0.0,0.0,0.0,0.0,0.0,0.0,0.0,0.0,0.0,0.0,0.0,0.0,0.0,0.0,0.0,0.0,0.0,0.0,0.0,0.0,0.0,0.0,0.0,0.0,0.0,0.0,0.0,0.0,0.0,0.0,0.0,0.0,0.0,0.0,0.0,0.0,0.0,0.0,0.0,0.0,0.0,0.0,0.0,0.0,0.0,0.0,0.0,0.0,0.0,0.0,0.0,0.0,0.0,0.0,0.0,0.0,0.0,0.0,0.0,0.0,0.0,0.0,0.0,0.0,0.0,0.0,0.0,0.0,0.0,0.0,0.0,0.0,0.0,0.0,0.0,0.0,0.0,0.0,0.0,0.0,0.0,0.0,0.0,0.0,0.0,0.0,0.0,0.0,0.0,0.0,0.0,0.0,0.0,0.0,2.7708,2.8559,2.9172,2.9518,2.9567,2.9316,2.8838,2.8447,2.7871,2.7012,0.0,0.0,0.0,0.0,0.0,0.0,0.0,0.0,0.0,0.0,0.0,0.0,0.0,0.0,0.0,0.0,0.0,0.0,0.0,0.0,0.0,0.0,0.0,0.0,0.0,0.0,0.0,0.0,0.0,0.0,0.0,0.0,0.0,0.0,0.0,0.0,0.0,0.0,0.0,0.0,0.0,0.0,0.0,0.0,0.0,0.0,0.0,0.0,0.0,0.0,0.0,0.0,0.0,0.0,0.0,0.0,0.0,0.0,0.0,0.0,2.8312,0.0,0.0,0.0,0.0,0.0,0.0,0.0,0.0,0.0,0.0,0.0,0.0,0.0,0.0,0.0,0.0,0.0,0.0,0.0,0.0,0.0,0.0,0.0,0.0,0.0,0.0,0.0,0.0,0.0,0.0,0.0,0.0,0.0,0.0,0.0,0.0,0.0,0.0,0.0,0.0,0.0,2.8778,2.9635,2.9914,2.9153,2.9053,2.875,2.7998,2.7851,2.7441,2.6572,2.6113,0.0,0.0,0.0,0.0,0.0,0.0,0.0,0.0,0.0,0.0,0.0,0.0,0.0,0.0,0.0,0.0,0.0,0.0,0.0,0.0,0.0,0.0,0.0,0.0,0.0,0.0,0.0,0.0,0.0,0.0,0.0,0.0,0.0,0.0,0.0,0.0,0.0,0.0,0.0,0.0,0.0,0.0,0.0,0.0,0.0,0.0,0.0,0.0,0.0,0.0,0.0,0.0,0.0,0.0,0.0,0.0,0.0,0.0,0.0,0.0,2.9906,0.0,0.0,0.0,0.0,0.0,0.0,0.0,0.0,0.0,0.0,0.0,0.0,0.0,0.0,0.0,0.0,0.0,0.0,0.0,0.0,0.0,0.0,0.0,0.0,0.0,0.0,0.0,0.0,0.0,0.0,0.0,0.0,0.0,0.0,0.0,0.0,0.0,0.0,0.0,0.0,2.9576,3.0489,3.0768,2.9879,2.9796,2.9435,2.854,2.8468,2.8169,2.7565,2.709,0.0,0.0,0.0,0.0,0.0,0.0,0.0,0.0,0.0,0.0,0.0,0.0,0.0,0.0,0.0,0.0,0.0,0.0,0.0,0.0,0.0,0.0,0.0,0.0,0.0,0.0,0.0,0.0,0.0,0.0,0.0,0.0,0.0,0.0,0.0,0.0,0.0,0.0,0.0,0.0,0.0,0.0,0.0,0.0,0.0,0.0,0.0,0.0,0.0,0.0,0.0,0.0,0.0,3.5524,3.5803,3.5384,3.5384,3.587,3.6554,3.3971,3.2705,3.2439,3.1486,0.0,0.0,0.0,0.0,0.0,0.0,0.0,0.0,0.0,0.0,0.0,0.0,0.0,0.0,0.0,0.0,0.0,0.0,0.0,0.0,0.0,0.0,0.0,0.0,3.4155,3.3986,0.0,0.0,0.0,0.0,0.0,0.0,0.0,0.0,0.0,0.0,0.0,0.0,3.0429,3.1274,3.1559,3.0749,3.0684,3.0291,2.9273,2.9197,2.907,2.8702,2.8412,2.8238,0.0,0.0,0.0,0.0,0.0,0.0,0.0,0.0,0.0,0.0,0.0,0.0,0.0,0.0,0.0,0.0,0.0,0.0,0.0,0.0,0.0,0.0,0.0,0.0,0.0,0.0,0.0,0.0,0.0,0.0,0.0,0.0,3.6983,3.6327,0.0,0.0,0.0,0.0,0.0,0.0,0.0,0.0,0.0,0.0,0.0,0.0,0.0,3.5528,3.5968,3.7072,3.6852,3.5434,3.7039,3.7487,3.7002,3.7002,3.7053,3.7228,3.7244,0.0,3.584,3.5268,0.0,0.0,0.0,0.0,0.0,0.0,0.0,0.0,0.0,0.0,0.0,0.0,0.0,0.0,0.0,0.0,0.0,0.0,0.0,0.0,0.0,0.0,3.5439,3.4844,3.4699,3.4733,0.0,3.4345,3.3531,3.2449,3.2707,0.0,0.0,0.0,0.0,0.0,0.0,0.0,3.1828,3.2471,3.2289,3.0379,3.0182,2.979,2.8855,2.8779,2.8746,2.868,2.88,2.8859,2.8859,2.944,0.0,0.0,0.0,0.0,0.0,0.0,0.0,0.0,0.0,0.0,0.0,0.0,0.0,0.0,0.0,0.0,0.0,0.0,0.0,0.0,0.0,0.0,0.0,0.0,0.0,0.0,0.0,0.0,0.0,3.754,3.8215,3.7866,3.8335,3.826,0.0,0.0,0.0,0.0,0.0,0.0,0.0,0.0,0.0,3.7268,3.719,3.7509,3.8292,3.8896,3.8921,3.839,3.9399,3.977,3.9573,3.9573,3.9573,3.9586,3.9783,3.9433,3.8631,3.6872,3.5343,3.4076,0.0,0.0,0.0,0.0,3.344,3.3859,3.4632,3.5324,0.0,3.541,0.0,0.0,0.0,0.0,0.0,0.0,0.0,0.0,0.0,0.0,3.5603,3.5665,3.5677,3.5724,3.5831,3.5619,3.4981,0.0,3.3954,3.395,3.2844,0.0,0.0,0.0,0.0,3.355,3.319,3.3959,3.3957,3.2465,3.2312,3.1891,3.0849,3.0767,3.0767,3.0767,3.0857,3.0902,3.0902,3.1245,3.1255,0.0,0.0,0.0,0.0,0.0,0.0,0.0,0.0,0.0,0.0,0.0,0.0,0.0,0.0,0.0,0.0,0.0,0.0,0.0,0.0,0.0,0.0,0.0,0.0,0.0,0.0,0.0,0.0,3.8492,3.9295,3.9295,3.9772,3.9846,0.0,0.0,0.0,0.0,0.0,0.0,3.8904,3.904,3.9231,3.9438,3.9243,3.9546,4.0312,4.0227,4.0302,4.0513,4.0789,4.0862,4.0862,4.0862,4.0862,4.0862,4.0862,4.0764,4.0345,3.8311,3.7136,3.6612,3.5719,3.4796,3.4031,3.484,3.5567,3.6134,3.6183,3.6775,3.7332,3.6503,3.6045,3.5637,3.4684,0.0,0.0,0.0,0.0,3.4849,3.5571,3.5603,3.5656,3.6257,3.6405,3.6405,3.6405,3.6405,3.6081,0.0,3.499,3.4906,3.3703,0.0,0.0,0.0,0.0,3.4219,3.4311,3.492,3.5055,3.4109,3.3887,3.342,3.2474,3.24,3.24,3.24,3.2431,3.2475,3.2475,3.2562,3.2377,3.2012,0.0,0.0,0.0,0.0,0.0,0.0,0.0,0.0,0.0,0.0,0.0,0.0,0.0,0.0,0.0,0.0,0.0,0.0,0.0,0.0,0.0,0.0,0.0,0.0,0.0,0.0,0.0,0.0,0.0,4.0438,4.0862,0.0,0.0,0.0,0.0,4.0335,4.0385,4.0611,4.1137,4.1706,4.1995,4.1982,4.1995,4.2007,4.2087,4.1028,4.046,4.0513,4.0011,3.9772,3.9772,3.9772,3.9772,3.9772,3.9772,4.0061,4.0513,4.0345,3.9838,3.9119,3.9057,3.8531,3.7872,3.8138,3.8004,3.7593,3.7828,3.7915,3.7953,3.789,3.7211,3.6245,3.5633,3.5094,0.0,0.0,3.5458,3.5583,3.6182,3.6367,3.6367,3.6405,3.6405,3.6405,3.6405,3.6405,3.6194,0.0,3.5483,3.5228,3.4483,0.0,3.4338,3.4301,3.4555,3.4866,3.5112,3.4962,3.4637,3.4072,3.3543,3.3015,3.2449,3.24,3.24,3.24,3.2593,3.268,3.268,3.2939,3.3056,3.3043,3.2423,0.0,0.0,0.0,0.0,0.0,0.0,0.0,0.0,0.0,0.0,0.0,0.0,0.0,0.0,0.0,0.0,0.0,0.0,0.0,0.0,0.0,0.0,0.0,0.0,0.0,0.0,0.0,0.0,4.0949,4.153,0.0,4.1037,4.0811,4.0978,4.153,4.1568,4.1656,4.1856,4.2099,4.2213,4.2213,4.1806,4.1806,4.2213,4.1417,4.0987,4.0987,4.0488,4.0224,4.0212,3.986,3.9697,3.9697,3.9697,3.981,3.9986,3.9986,3.9821,3.9492,3.9193,3.8604,3.8091,3.8567,3.8867,3.9055,3.9445,3.9622,3.9446,3.8354,3.75,3.6784,3.6245,3.5931,3.5818,3.6019,3.6069,3.6119,3.6355,3.6405,3.6405,3.6405,3.6405,3.6405,3.6405,3.6405,3.6355,3.6107,3.6069,3.5846,3.5215,3.5128,3.5003,3.4652,3.4973,3.5276,3.5369,3.5322,3.5064,3.4516,3.3968,3.3408,3.2915,3.2865,3.2865,3.2865,3.2909,3.2939,3.2939,3.3038,3.3124,3.3124,3.2503,3.2114,0.0,0.0,0.0,0.0,0.0,0.0,0.0,0.0,0.0,0.0,0.0,0.0,0.0,0.0,0.0,0.0,0.0,0.0,0.0,0.0,0.0,0.0,0.0,0.0,0.0,0.0,4.1204,4.1568,4.2271,4.2572,4.2208,4.2278,4.2522,4.2698,4.2766,4.269,4.2502,4.2489,4.2489,4.2489,4.2082,4.207,4.2489,4.1894,4.1605,4.1605,4.0865,4.0513,4.0501,3.9948,3.9697,3.9697,3.9697,3.9697,3.9697,3.9697,3.9697,3.9672,3.9496,3.9308,3.9157,3.9346,3.9772,4.0275,4.045,4.0388,3.9986,3.8492,3.7638,3.7073,3.6568,3.6405,3.6405,3.6405,3.6405,3.6405,3.6405,3.6405,3.6405,3.6405,3.6405,3.6405,3.6405,3.6405,3.6405,3.6405,3.6405,3.6355,3.6132,3.5943,3.5755,3.5579,3.5705,3.5818,3.5818,3.5458,3.5082,3.4718,3.406,3.347,3.3106,3.3124,3.3124,3.3124,3.3124,3.3124,3.3124,3.3124,3.3124,3.3124,3.2503,3.2215,3.2215,0.0,0.0,0.0,0.0,0.0,0.0,0.0,0.0,0.0,0.0,0.0,0.0,0.0,0.0,0.0,0.0,0.0,0.0,0.0,0.0,0.0,0.0,0.0,3.9848,4.1207,4.2225,4.2263,4.315,4.3802,4.3802,4.4279,4.4367,4.3815,4.3777,4.3539,4.2999,4.2974,4.2974,4.2974,4.2974,4.2974,4.2974,4.2502,4.2238,4.2225,4.1091,4.0563,4.0526,3.9973,3.971,3.9697,3.9697,3.9697,3.9697,3.9697,3.9697,3.9747,4.0287,4.0761,4.1175,4.0714,4.0824,4.1225,4.0727,4.0187,3.9559,3.8429,3.7688,3.7136,3.6631,3.6455,3.643,3.643,3.6417,3.6405,3.6405,3.6405,3.6405,3.6405,3.6405,3.6405,3.6405,3.6405,3.6405,3.6405,3.6405,3.6581,3.7073,3.6782,3.6606,3.7073,3.6769,0.0,3.6405,3.5403,3.468,3.468,3.3734,3.3124,3.3124,3.3124,3.3124,3.3124,3.3124,3.3124,3.3124,3.3124,3.3124,3.3124,3.2528,3.2227,3.2215,0.0,0.0,0.0,0.0,0.0,0.0,0.0,0.0,0.0,0.0,0.0,0.0,0.0,0.0,0.0,0.0,0.0,0.0,0.0,0.0,0.0,4.2511,4.2558,4.1654,4.1923,4.2502,4.325,4.3614,4.3802,4.3802,4.394,4.3802,4.325,4.32,4.3137,4.2986,4.2974,4.2974,4.2974,4.2974,4.2974,4.2974,4.2823,4.2748,4.2748,4.2099,4.1492,4.1037,4.0538,4.0074,3.9697,3.9697,3.9697,3.9697,3.9697,3.9697,3.971,3.986,4.0011,4.0174,4.0425,4.1116,4.1856,4.1304,4.0962,4.0701,3.9597,3.8856,3.8304,3.7726,3.7274,3.696,3.696,3.6719,3.6405,3.6405,3.6405,3.6405,3.6405,3.6405,3.6405,3.6405,3.6405,3.6405,3.6405,3.6405,3.6455,3.6606,3.6845,3.692,3.6669,3.6845,0.0,3.6455,3.5403,3.468,3.468,3.3734,3.3124,3.3124,3.3124,3.3124,3.3124,3.3124,3.3124,3.3124,3.3124,3.3124,3.3124,3.2918,3.2641,0.0,0.0,0.0,0.0,0.0,0.0,0.0,0.0,0.0,0.0,0.0,0.0,0.0,0.0,0.0,0.0,0.0,0.0,0.0,0.0,0.0,0.0,4.4466,4.4758,4.4392,4.3475,4.3162,4.4041,4.4154,4.4242,4.448,4.4279,4.3915,4.3363,4.3325,4.3225,4.2986,4.2974,4.2974,4.2974,4.2974,4.2974,4.2974,4.2974,4.2974,4.2974,4.2476,4.2049,4.1656,4.0877,4.0337,4.0023,3.9798,3.9697,3.9697,3.9697,3.9697,0.0,0.0,0.0,0.0,0.0,4.0927,4.1455,4.1367,4.1288,4.11,4.0061,3.9484,3.9069,3.8253,3.7789,3.7525,3.7525,3.7136,3.6757,3.6757,3.6581,3.6405,3.6405,3.6405,3.6405,3.6405,3.6405,3.6405,3.6405,3.6405,0.0,3.6405,3.6669,3.6857,3.6769,3.6832,3.6769,3.6455,3.5403,3.468,3.468,3.3734,3.3124,3.3124,3.3124,0.0,0.0,0.0,3.3124,3.3124,3.3124,0.0,0.0,0.0,0.0,0.0,0.0,0.0,0.0,3.3619,3.3517,0.0,0.0,0.0,0.0,0.0,0.0,0.0,0.0,0.0,0.0,0.0,0.0,0.0,0.0,0.0,0.0,4.6414,4.691,4.7401,4.564,4.4396,4.4787,4.4676,4.4794,4.5246,4.4832,4.4305,4.3752,4.3714,4.3489,4.2999,0.0,0.0,0.0,0.0,4.2974,4.2974,4.2974,4.2974,4.2974,4.2539,4.2263,4.2175,4.1078,4.0576,4.0488,3.9936,3.9697,3.9697,3.9697,3.9697,3.9697,3.9697,3.9697,3.9747,4.0237,4.0463,4.0588,4.1025,0.0,0.0,4.0111,3.9747,3.9509,3.8504,3.8153,3.8103,3.8103,3.7663,3.7186,3.7186,3.682,3.6405,3.6405,3.6405,3.6405,3.6405,3.6405,3.6405,3.6405,3.6405,3.6405,3.6405,3.6455,3.6644,3.7023,3.6782,3.648,3.6417,3.5454,3.4768,3.4768,0.0,0.0,3.3212,3.3106,3.3124,3.3124,3.3124,3.3124,3.3124,3.3174,3.3212,3.3212,3.3348,3.3669,3.4161,3.5098,3.5805,3.6262,3.5792,3.5542,0.0,0.0,0.0,0.0,0.0,0.0,0.0,0.0,0.0,0.0,0.0,0.0,0.0,0.0,0.0,4.8899,4.9087,4.9095,4.8732,4.785,4.6948,4.6143,4.517,4.4493,4.4166,4.4028,4.3727,4.3175,4.3137,4.3087,4.2986,4.2974,4.2974,4.2974,4.2974,4.2974,4.2974,4.2974,4.2974,4.2974,0.0,0.0,4.2187,4.148,4.0887,4.0488,3.9936,3.9697,3.9697,3.9697,3.9697,3.9697,3.9697,3.9697,3.971,3.9823,4.0136,4.0526,4.0639,4.0676,4.0639,4.0425,4.0061,3.9647,3.9433,3.9057,0.0,3.8705,3.7965,3.7186,3.7186,3.682,3.6405,3.6405,3.6405,3.6405,3.6405,3.6405,3.6405,3.6405,3.6405,3.6405,3.6405,3.6782,3.691,3.6619,3.6857,3.6908,3.6468,3.5793,3.5345,3.5345,3.4399,3.3746,3.3746,3.3332,3.3124,3.3124,3.3124,3.3124,3.3124,3.3508,3.3746,3.3746,3.4915,3.5578,3.5682,3.6663,3.7226,3.7306,3.7184,3.7172,0.0,0.0,0.0,0.0,0.0,0.0,0.0,0.0,0.0,0.0,0.0,4.8566,4.9524,0.0,5.054,5.022,5.0234,5.0217,4.9903,4.9046,4.7838,4.6173,4.5417,4.4706,4.3884,4.3551,4.3275,4.2999,4.2974,4.2974,4.2974,4.2974,4.2974,4.2974,4.2974,4.2974,4.2974,4.2974,4.2974,4.2974,4.2974,4.2891,4.259,4.1718,4.1137,4.0877,4.0061,3.9697,3.9697,3.9697,3.9697,3.9697,3.9697,3.9697,3.9697,3.9697,3.9873,4.0149,4.0425,4.0513,4.0513,4.0513,4.0325,4.0061,3.9772,3.9496,3.9283,3.9283,3.868,3.7965,3.7676,3.7186,3.6757,3.6468,3.6405,3.6405,3.6405,3.6405,3.6405,3.6405,3.6405,3.6405,3.6405,3.6631,3.6732,3.6455,3.6644,3.6719,3.6443,3.5881,3.5495,3.5495,3.4756,3.4311,3.4311,3.406,3.4104,3.4546,3.4589,3.4848,3.5349,3.5624,3.5738,3.5738,3.6475,3.697,3.7264,3.8221,3.8852,3.9129,3.9634,3.9438,0.0,0.0,0.0,0.0,0.0,0.0,0.0,4.7175,4.7946,4.9461,4.9712,5.0061,5.1222,5.1541,5.1454,5.0931,5.1062,5.1178,5.1112,5.018,4.868,4.6462,4.5958,4.5438,4.4403,4.3716,4.3351,4.3351,4.3141,4.2974,4.2974,4.2974,4.2974,4.2974,4.2974,4.2974,4.2974,4.2974,4.2974,4.2974,4.2974,4.2974,4.2949,4.1944,4.1492,4.143,4.0337,3.9798,3.9697,3.9697,3.9697,3.9697,3.9697,3.9697,3.9697,3.9697,3.9697,3.976,4.0199,4.0362,4.0362,4.0362,4.0362,4.0275,3.9823,3.9697,3.9697,3.9697,3.9295,3.8743,3.8153,3.76,3.7048,3.6543,3.6405,3.6405,3.6405,3.6405,3.6405,3.6405,3.6405,3.6405,3.6405,3.6405,3.6405,3.6405,3.6405,3.6405,3.6405,3.6108,3.597,3.597,3.5645,3.5398,3.5283,3.5271,3.5613,3.6362,3.6392,3.6737,3.7559,3.7711,3.7779,3.7779,3.8057,3.8401,3.8837,3.9774,4.0463,4.0916,4.1832,4.1531,4.4545,4.4191,4.4739,4.7659,4.7286,4.6708,0.0,4.8843,4.8835,4.9829,4.9892,4.9901,5.0641,5.1236,5.1599,5.1527,5.2455,5.2992,5.2441,5.2251,5.1273,4.8906,4.7681,4.6772,4.606,4.5127,4.452,4.452,4.356,4.2974,4.2974,4.2974,4.2974,4.2974,4.2974,4.2974,4.2974,4.2974,4.2974,4.2974,4.2974,4.2974,4.2949,4.2346,4.2125,4.2062,4.0902,4.0149,3.9697,3.9697,3.9697,3.9697,3.9697,3.9697,3.9697,3.9697,3.9697,3.9697,3.9772,3.9785,3.9785,3.9785,3.9785,3.9772,3.971,3.9697,3.9697,3.9697,3.9295,3.8743,3.8153,3.76,3.7048,3.6543,3.6405,3.6405,3.6405,3.6405,3.6405,3.6405,3.6405,3.6405,3.6405,3.6405,3.6405,3.6405,3.6405,3.6405,3.6405,3.7078,3.7534,3.7534,3.7794,3.7787,3.7304,3.7263,3.7306,3.7433,3.7433,3.7475,3.7602,3.8063,3.8306,3.8306,3.9601,4.0293,4.0363,4.1351,4.1881,4.1968,4.2587,4.2515,4.4662,4.5641,4.6873,4.6948,4.7688,4.8335,4.8348,4.8767,4.9446,5.0471,5.0752,5.1054,5.1874,5.2398,5.247,0.0,5.2368,5.2746,5.2107,5.202,5.1505,5.0126,4.9541,4.8592,4.7062,4.6128,4.5542,4.5249,4.4442,4.3725,4.303,4.2974,4.2974,4.2974,4.2974,4.2974,4.2974,4.2974,4.2974,4.2974,4.2974,4.2974,4.2961,4.2464,4.2037,4.163,4.0852,4.0388,4.0149,3.9823,3.9697,3.9697,3.9697,3.9697,3.9697,3.9697,3.9697,3.9697,3.9697,3.9697,3.9697,3.9697,3.9697,3.9697,3.9697,3.9697,3.9697,3.9697,3.9534,3.9145,3.8241,3.7839,3.7437,3.6619,3.6405,3.6405,3.6405,3.6405,3.6405,3.6405,3.6405,3.6405,3.6405,3.6405,3.6593,3.7129,3.7222,3.7222,3.7222,3.8011,3.8599,3.8599,3.8772,3.8779,3.8534,3.8551,3.8767,3.931,3.9366,3.9592,4.018,4.0434,4.0534,4.0534,4.1182,4.1479,4.1479,4.1912,4.2175,4.2298,4.2436,4.2407,4.5317,4.6562,4.757,4.6578,4.7703,4.8786,4.791,4.8647,4.9702,5.0514,5.1134,5.1808,5.2515,5.304,5.3067,5.2035,5.2412,5.2673,5.2209,5.2136,5.1904,5.133,5.1193,5.0485,4.8642,4.7425,4.6628,4.6276,4.5594,4.467,4.3504,4.3462,4.3295,4.303,4.2974,4.2974,4.2974,4.2974,4.2974,4.2974,4.2974,4.2974,4.2961,4.2627,4.2082,4.1543,4.1141,4.0789,4.0501,4.0249,3.9973,3.971,3.986,3.9823,3.9697,3.9697,3.9697,3.9697,3.9697,3.9697,3.9697,3.9697,3.9697,3.9697,3.9697,3.9697,3.9697,3.9697,3.9697,3.9471,3.8504,3.8128,3.7764,3.6857,3.6518,3.6405,3.6405,3.6405,3.6405,3.6405,3.6405,3.6405,3.6405,3.6628,3.7002,3.7717,3.8251,3.8464,3.8206,3.9033,3.9681,3.997,4.0014,4.0014,4.0014,4.0014,4.0273,4.0972,4.1015,4.1339,4.2051,4.2092,4.2092,4.2092,4.2092,4.2092,4.2092,4.2175,4.2242,4.2392,4.2325,4.2366,4.689,4.6181,4.5635,4.7714,4.7451,4.6978,4.8015,4.8921,4.9513,4.9525,5.0604,5.1533,5.1628,5.2384,5.2909,5.2609,5.308,5.3486,5.3457,5.3457,5.3225,5.2586,5.2565,5.2267,0.0,4.9328,4.792,4.7948,4.6867,4.5754,4.4737,4.4629,4.4152,4.303,4.2974,4.2974,4.2974,4.2974,4.2974,4.2974,4.2974,4.2974,4.2974,4.2961,4.2703,4.2187,4.2162,4.1505,4.0563,4.1025,4.0664,3.9747,4.0287,4.0162,3.9697,3.9697,3.9697,3.9697,3.9697,3.9697,3.9697,3.9697,3.9697,3.9697,3.9697,3.9697,3.9697,3.9697,3.9697,3.9559,3.9045,3.8429,3.7864,3.7299,3.6795,3.6405,3.6405,3.6405,3.6405,3.6405,3.6405,3.6405,3.6405,3.7129,3.7763,3.7808,3.9329,4.0202,3.9285,3.9986,4.093,4.1912,4.2009,4.2009,4.2009,4.2009,4.2009,4.2051,4.2051,4.2051,4.2092,4.2092,4.2092,4.2092,4.2092,4.2092,4.2092,4.2284,4.2392,4.2392,4.2581,4.2688,4.5928,4.645,4.7104,4.6837,4.7241,4.7673,4.7449,4.8283,4.9229,4.9658,5.0641,5.1636,5.2284,5.2847,5.3201,5.2895,5.3354,5.371,5.3515,5.3892,5.3776,5.2702,5.2934,0.0,0.0,0.0,0.0,4.8742,4.7889,4.6608,4.4778,4.4683,4.4206,4.303,4.2974,4.2974,4.2974,4.2974,4.2974,4.2974,4.2974,4.2974,4.2974,4.2974,4.2873,4.274,4.2363,4.1999,4.1593,4.1417,4.1062,4.0802,4.0937,4.0727,4.0237,4.0237,4.0011,3.9697,3.9697,3.9697,3.9697,3.9697,3.9697,3.9697,3.9697,3.9697,3.9697,3.9697,3.9697,3.9572,3.9057,3.873,3.8429,3.7864,3.7312,3.6958,3.6958,3.6669,3.6405,3.6405,3.6909,3.7315,3.7315,3.8115,3.8944,3.9549,4.0202,4.0745,4.11,4.1409,4.1717,4.2051,4.2092,4.2092,4.2092,4.2092,4.2092,4.2092,4.2242,4.2325,4.2325,4.2433,4.2433,4.2325,4.2433,4.2433,4.2325,4.2514,4.2648,4.2809,4.2729,4.2769,4.6032,4.6879,4.7684,4.6703,4.7222,4.7834,4.7464,4.8268,4.9191,4.9799,5.0864,5.1791,5.222,5.2793,5.3175,5.3157,5.3371,5.3625,5.3964,5.4076,5.3936,5.3341,5.3413,5.3109,0.0,0.0,0.0,4.9657,4.9222,4.7889,4.5409,4.5248,4.4561,4.303,4.2974,4.2974,4.2974,4.2974,4.2974,4.2974,4.2974,4.2974,4.2974,4.2974,4.2974,4.2961,4.2652,4.2389,4.22,4.1995,4.1693,4.13,4.1555,4.1291,4.0736,4.0588,4.0287,3.9961,3.976,3.9697,3.9697,3.9697,3.9697,3.9697,3.9697,3.9697,3.9697,3.9697,3.9697,3.9609,3.9258,3.9019,3.8781,3.8404,3.7889,3.7475,3.7475,3.7324,3.7202,3.7202,3.7834,3.8405,3.8405,3.921,4.0173,4.1212,4.131,4.1464,4.2051,4.2092,4.2092,4.2092,4.2175,4.2175,4.2092,4.2175,4.2216,4.2216,4.2325,4.2433,4.25,4.2607,4.2662,4.25,4.2607,4.2662,4.2514,4.2688,4.2875,4.2981,4.2915,4.297,4.713,4.7309,4.7309,4.7309,4.7309,4.7474,4.8132,4.8835,4.9403,4.9846,5.1133,5.2013,0.0,0.0,5.2971,5.3337,5.315,5.3399,5.4685,5.4109,5.3805,0.0,0.0,0.0,0.0,0.0,0.0,5.0772,0.0,4.9394,4.6517,4.6385,4.5395,4.324,4.3197,4.3129,4.3085,4.303,4.2974,4.2974,4.2974,4.2974,4.2974,4.2974,4.2974,4.2974,4.2974,4.274,4.2288,4.276,4.2359,4.1413,4.1995,4.1856,4.1263,4.0789,4.0563,4.0438,3.9923,3.9722,3.9697,3.9697,3.9697,3.9697,3.9697,3.9697,3.9697,3.9697,3.9697,3.9697,3.9697,3.9308,3.8957,3.8957,3.8517,3.8139,3.8139,3.846,3.8744,3.8744,3.9253,3.9722,3.9724,4.0517,4.1493,4.2526,4.2541,4.2366,4.2175,4.2133,4.2133,4.2133,4.2325,4.2366,4.2133,4.2325,4.2433,4.2433,4.2433,4.25,4.2688,4.2729,4.2729,4.2729,4.2729,4.2729,4.2729,4.2915,4.3036,4.3036,4.324,4.3349,4.7249,4.7309,4.7309,4.7309,4.7309,4.7474,4.8132,4.8835,4.9449,5.0015,5.0853,5.1571,5.1921,5.2595,5.3153,5.3387,5.3722,0.0,5.4546,5.441,0.0,5.4487,0.0,5.3994,5.3341,5.2702,0.0,0.0,5.0481,4.9286,4.7652,4.755,4.6919,4.5489,4.5435,4.5074,4.4248,4.3406,4.2974,4.2974,4.2974,4.2974,4.2974,4.2974,4.2974,4.2974,4.2974,4.2898,4.2841,4.2924,4.2811,4.2572,4.271,4.2434,4.1932,4.1848,4.1216,4.0501,4.035,4.0036,3.9697,3.9697,3.9697,3.9697,3.9697,3.9697,3.9697,3.9697,3.9697,3.9697,3.9697,3.9584,3.9484,3.9484,3.9675,3.9855,4.0037,4.0427,4.0776,4.0945,4.1725,4.238,4.2591,4.2827,4.2945,4.2721,4.2662,4.2622,4.2541,4.2541,4.2541,4.2541,4.2581,4.2622,4.2541,4.2581,4.2607,4.2607,4.2754,4.2875,4.2915,4.309,4.309,4.2915,4.309,4.309,4.2915,4.313,4.321,4.3265,4.3798,4.4062,4.7384,4.7309,4.7309,4.7309,4.7309,4.7549,4.8506,4.9045,4.9538,5.042,5.096,5.1334,5.1693,5.2306,5.2819,5.3109,5.3594,0.0,5.4584,5.4309,5.4183,0.0,5.4255,0.0,5.3544,5.2934,5.231,0.0,5.0685,4.9515,4.8086,4.8021,4.7499,4.6333,4.6281,4.5754,4.4737,4.4507,4.3974,4.303,4.3504,4.3504,4.2974,4.2974,4.2974,4.2974,0.0,4.2974,4.2974,4.2974,4.2974,4.2974,4.2974,4.2841,4.2539,4.2301,4.1823,4.1166,4.0676,4.0613,4.0658,3.9915,3.9697,3.9697,3.9697,3.9697,3.9697,3.9697,3.9697,3.9697,3.9697,3.9697,3.9788,4.0275,4.0648,4.1067,4.1686,4.2244,4.2739,4.3137,4.3647,4.4133,4.4341,4.4338,4.4075,4.349,4.3319,4.319,4.2975,4.2809,4.2688,4.2688,4.2769,4.2809,4.2688,4.2769,4.2835,4.2835,4.2955,4.3036,4.3115,4.325,4.325,4.3115,4.325,4.325,4.3115,4.3534,4.3723,4.3738,4.4436,4.4751,4.7489,4.7309,4.7309,4.7309,4.7369,4.7758,4.903,4.9374,4.9748,5.096,5.1214,5.1214,5.1214,5.1753,5.2315,5.2694,5.3113,5.3744,5.4738,5.408,5.3762,5.4429,5.3921,5.3515,5.3515,5.2934,5.231,5.1672,5.1033,4.9968,4.8316,4.8223,4.7754,4.6788,4.6594,4.6018,4.494,4.586,4.5182,4.3042,4.4302,4.4302,4.3252,4.3252,4.3252,4.3197,4.3085,4.2974,4.2974,4.2974,4.2974,4.3042,4.3197,4.3129,4.2979,4.2806,4.2524,4.2062,4.1125,4.1375,4.1877,4.0363,3.9981,4.0134,4.0134,4.0134,4.0134,4.0134,4.0134,4.0173,4.0173,4.0173,4.0415,4.1319,4.1789,4.2315,4.3218,4.3973,4.4704,4.5215,4.5337,4.5335,4.5412,4.5272,4.5007,4.45,4.4214,4.3879,4.3499,4.307,4.2769,4.2769,4.2915,4.2955,4.2809,4.2955,4.3036,4.3036,4.3036,4.3115,4.329,4.329,4.329,4.329,4.3379,4.3424,4.3424,4.4122,4.4451,4.4466,4.5125,4.5424,4.743,4.7309,4.7309,4.7309,4.7713,4.8312,4.9134,4.9688,5.024,5.1065,5.1214,5.1214,5.1214,5.1753,5.2282,5.2462,5.3012,5.3693,5.4434,5.3936,5.3762,0.0,5.3921,5.3515,5.3515,5.2934,0.0,0.0,5.1033,5.033,4.9453,4.941,4.9311,4.91,4.8223,4.7177,4.6018,4.6228,4.5182,4.303,4.5074,4.5449,4.4411,4.4411,4.4411,4.4357,4.3406,0.0,4.2974,4.2974,4.2974,4.3085,4.4042,4.3835,4.3227,4.4969,4.4159,4.2221,4.2459,4.2345,4.1979,4.1177,4.1518,4.2257,4.2257,4.2257,4.2257,4.2257,4.2377,4.2509,4.2509,4.2689,4.2882,4.3074,4.3787,4.4503,4.4918,4.593,4.6767,4.6894,4.6907,4.6743,4.6204,4.61,4.5876,4.5229,4.462,4.4231,4.4127,4.3593,4.321,4.321,4.321,4.325,4.321,4.321,4.325,4.325,4.325,4.325,4.329,4.329,4.329,4.329,4.3828,4.4152,4.4152,4.4811,4.5125,4.514,4.5828,4.6142,4.7301,4.7062,4.7121,4.7266,4.7803,4.8461,4.9164,4.9778,5.0375,5.1079,5.1214,5.1214,5.1214,5.1753,5.2162,5.2102,5.2645,5.3345,5.4083,5.3637,5.3489,5.44,5.3921,5.3515,5.3515,5.3239,5.2659,5.1686,5.1338,5.0728,4.9727,4.9717,4.9717,4.9717,4.9164,4.8324,4.7177,4.7791,4.6957,4.4711,4.5807,4.6018,4.5502,4.4357,4.4453,4.5449,4.4344,0.0,4.4657,4.4084,4.4193,4.4711,4.4724,4.4724,4.4872,4.5913,4.5474,4.432,4.4292,4.4485,4.4575,4.365,4.3085,4.2744,4.2293,4.2523,4.3006,4.3136,4.3232,4.3313,4.3313,4.3409,4.3646,4.4163,4.5161,4.6062,4.6344,4.6873,4.7309,4.7309,4.7309,4.7204,4.689,4.683,4.6606,4.5933,4.5259,4.4706,4.4362,4.3693,4.329,4.329,4.329,4.329,4.329,4.329,4.329,4.329,4.329,4.329,4.329,4.329,4.3454,4.3798,4.4152,4.4481,4.4825,4.5499,4.5828,4.5843,4.6516,4.683,4.7362,4.7035,4.6975,4.7207,4.7908,4.8626,4.9194,4.9883,5.0539,5.1109,5.1214,5.1214,5.1214,5.1633,5.1942,5.1803,5.2382,5.3015,5.3686,5.3407,5.3435,5.4274,5.3887,0.0,5.3515,5.3384,0.0,5.1715,5.1367,5.0757,4.9727,4.9717,4.9717,4.9717,4.9717,4.9164,4.8021,4.9114,4.8574,4.6333,4.6802,4.6905,4.6594,4.4872,4.5021,4.6594,4.5502,0.0,0.0,4.5395,4.5555,4.6228,4.5661,4.5767,4.6385,4.6854,4.675,4.6238,4.5963,4.6431,4.6876,4.5574,4.4504,4.3533,4.2757,4.3088,4.3801,4.4036,4.4163,4.421,4.421,4.4256,4.4503,4.5298,4.6255,4.7019,4.7251,4.7309,4.7309,4.7309,4.7309,4.7309,4.7309,4.7309,4.713,4.6606,4.5948,4.5274,4.4601,4.3943,4.3454,4.3305,4.329,4.329,4.329,4.329,4.329,4.329,4.3424,4.3499,4.3499,4.3633,4.4003,4.4511,4.4676,4.5005,4.5514,4.6202,4.6488,4.6546,4.7055,4.7309,4.7866,4.7377,4.6975,4.7207,4.8252,4.9239,4.9299,5.0227,5.1154,5.1214,5.1214,5.1214,5.1214,5.1274,5.1404,0.0,0.0,5.2951,5.3375,5.3649,5.386,5.3925,0.0,0.0,5.3515,5.2992,5.2368,5.1672,5.0525,4.9799,4.9732,4.9717,4.9717,4.9717,4.9717,4.9164,4.8021,4.9114,4.8574,4.6333,4.841,4.8852,4.7869,4.7652,4.7652,4.7768,4.6646,0.0,0.0,4.6176,4.6228,4.6372,4.7345,4.7126,4.6542,4.8624,4.8094,4.6342,4.6854,4.7059,4.6833,4.5257,4.5517,4.6345,4.5708,4.5716,4.5927,4.5927,4.6284,4.6594,4.6594,4.6785,4.6975,4.7062,4.7164,4.7266,4.7309,4.7309,4.7309,4.7309,4.7309,4.7309,4.7309,4.7309,4.7279,4.7219,4.6651,4.5978,4.5289,4.4631,4.3947,4.3364,4.329,4.329,4.329,4.329,4.329,4.329,4.3858,4.4227,4.4227,4.4796,4.5155,4.5214,4.5813,4.613,4.619,4.689,4.7219,4.7219,4.7279,4.7309,4.8003,4.783,4.7729,4.8179,4.8968,4.9685,4.9807,5.0556,5.1214,5.1214,5.1214,5.1214,5.1214,5.1214,5.1257,0.0,0.0,0.0,5.2931,5.3172,5.3413,5.3846,5.3815,0.0,0.0,0.0,5.2717,5.1701,5.0409,4.9717,4.9717,4.9717,4.9717,4.9717,4.9717,4.9473,4.905,4.9473,4.9248,4.836,4.8589,4.8802,4.9001,4.7587,4.7754,4.8951,4.7805,0.0,0.0,4.7587,4.774,4.831,4.8072,4.8122,4.8474,4.936,4.9149,4.8382,4.8616,4.8692,4.8479,4.7431,4.7463,4.7688,4.6353,4.6417,4.6947,4.6874,4.699,4.7164,4.7164,4.7207,4.7309,4.7309,4.7309,4.7309,4.7309,4.7309,4.7309,4.7309,4.7309,4.7309,4.7309,4.7309,4.7309,4.7309,4.6741,4.6175,4.5948,4.5319,4.4811,4.4541,4.3768,4.329,4.329,4.329,4.3469,4.3898,4.4167,4.4481,4.4885,4.5155,4.5484,4.5903,4.6145,4.6516,4.692,4.7174,4.7309,4.7309,4.7309,4.7309,4.8033,4.8126,4.8219,4.877,4.9411,4.9933,5.015,5.0704,5.1214,5.1214,5.1214,5.1214,5.1214,5.1214,5.1214,0.0,0.0,5.1807,5.2762,5.3025,5.3361,5.409,0.0,5.3904,0.0,5.3233,5.2426,5.1135,5.0191,4.9717,4.9717,4.9717,4.9717,4.9717,4.9717,4.9717,4.9717,4.9717,4.9717,4.9669,4.8902,4.8902,4.9669,4.8044,4.8209,4.9669,4.8852,0.0,0.0,4.8852,4.9001,4.962,4.8802,4.9001,4.9717,4.9717,4.9717,4.9717,4.9717,4.9717,4.9645,4.9257,4.9112,4.8846,4.7525,4.733,4.7509,4.7494,4.74,4.7309,4.7309,4.7309,4.7309,4.7309,4.7309,4.7309,4.7309,4.7309,4.7309,4.7309,4.7309,4.7309,4.7309,4.7309,4.7309,4.7309,4.692,4.6503,4.6309,4.5903,4.5529,4.5319,4.4466,4.3798,4.3604,4.3589,4.3783,4.4287,4.4691,4.511,4.5589,4.5783,4.6112,4.6606,4.6621,4.6845,4.7309,4.7309,4.7309,4.7309,4.7309,4.7309,4.8033,4.8126,4.8219,4.877,4.9411,4.9933,5.015,5.0704,5.1214,5.1214,5.1214,5.1214,5.1214,5.1214,5.1214,5.1214,0.0,0.0,5.3084,5.3545,5.4015,0.0,5.4487,5.42,5.3904,5.2522,5.1106,4.9799,4.9732,0.0,4.9717,4.9717,4.9717,4.9717,4.9717,4.9717,4.9717,4.9717,4.9717,4.9717,4.9669,4.9669,4.9717,4.9669,4.9669,4.9717,0.0,0.0,0.0,4.9669,4.9669,4.9717,4.9669,4.9669,4.9717,4.9717,4.9717,4.9717,4.9717,4.9717,4.9732,5.0023,5.0086,5.0051,4.9925,4.8768,4.7552,4.7792,4.7612,4.7309,4.7309,4.7309,4.7309,4.7309,4.7309,4.7309,4.7309,4.7309,4.7309,4.7309,4.7309,4.7309,4.7309,4.7309,4.7309,4.7309,4.7294,4.7055,4.6369,4.6264,4.6052,4.5364,4.5289,4.5005,4.4362,4.4302,4.4302,4.4317,4.5574,4.6264,4.6264,4.6935,4.7294,4.7294,4.7294,4.7294,4.7309,4.7309,4.7309,4.7309,4.7309,4.7309,4.8399,4.8978,4.9567,4.9929,5.0251,5.0572,5.0822,5.1065,5.1214,5.1214,5.1214,5.1214,5.1214,5.1214,5.1364,5.1813,5.2067,0.0,0.0,0.0,0.0,5.4125,5.4206,5.409,0.0,0.0,5.1502,5.0641,5.0028,4.9717,4.9717,4.9717,4.9717,4.9717,4.9717,4.9717,4.9717,4.9717,4.9717,4.9717,4.9717,4.9717,4.9717,4.9717,4.9717,0.0,0.0,0.0,0.0,4.9717,4.9717,4.9717,4.9717,4.9717,4.9717,4.9717,4.9717,4.9717,4.9717,4.9717,4.9732,5.0038,5.0086,5.0139,5.0443,4.9885,4.8993,4.8358,4.7759,4.7309,4.7309,4.7309,4.7309,4.7309,4.7309,4.7309,4.7309,4.7309,4.7309,4.7309,4.7309,4.7309,4.7309,4.7309,4.7309,4.7309,4.7309,4.7234,4.7025,4.6995,4.6905,4.6696,4.6262,4.5723,4.505,4.499,4.5185,4.5622,4.6097,4.6531,4.698,4.7189,4.7309,4.7309,4.7309,4.7309,4.7309,4.7309,4.7309,4.7309,4.7309,4.7309,4.8261,4.9208,5.0135,5.0453,5.0647,5.0855,5.112,5.1214,5.1214,5.1214,5.1214,5.1214,5.1214,5.1214,5.1349,5.1753,5.1828,5.2157,0.0,0.0,0.0,5.4306,0.0,0.0,0.0,5.2218,5.1374,5.073,5.0048,4.9717,4.9717,4.9717,4.9717,4.9717,4.9717,4.9717,4.9717,4.9717,4.9717,4.9717,4.9717,4.9717,4.9717,4.9717,4.9717,0.0,0.0,0.0,0.0,4.9717,4.9717,4.9717,4.9717,4.9717,4.9717,4.9717,4.9717,4.9717,4.9717,4.9781,4.9878,5.0135,5.0375,5.0552,5.087,5.0353,4.9476,4.8536,4.7818,4.7309,4.7309,4.7309,4.7309,4.7309,4.7309,4.7309,4.7309,4.7309,4.7309,4.7309,4.7309,4.7309,4.7309,4.7309,4.7309,4.7309,4.7309,4.7309,4.7309,4.7309,4.7309,4.7309,4.6935,4.6516,4.6082,4.5828,4.5873,4.6249,4.6561,4.6875,4.7294,4.7309,4.7309,4.7309,4.7309,4.7309,4.7309,4.7309,4.7309,4.7309,4.7309,4.7309,0.0,4.8964,5.0183,5.0453,5.0662,5.0902,5.112,5.1214,0.0,5.1214,5.1214,5.1214,5.1214,5.1214,5.1229,5.1274,5.1289,5.1738,0.0,5.3219,0.0,0.0,5.4395,0.0,5.2906,5.1763,5.0774,5.0193,4.9878,4.9732,4.9717,4.9717,4.9717,4.9717,4.9717,4.9717,4.9717,4.9717,4.9717,4.9717,4.9717,4.9717,4.9717,4.9717,4.9717,0.0,0.0,0.0,0.0,4.9717,4.9717,4.9717,4.9717,4.9717,4.9717,4.9717,4.9717,4.9732,4.9732,4.9878,5.0183,5.0438,5.0805,5.1214,5.1214,5.0331,4.9254,4.8596,4.7923,4.7369,4.7369,4.7339,4.7309,4.7309,4.7309,4.7309,4.7309,4.7309,4.7309,4.7309,4.7309,4.7309,4.7309,4.7309,4.7309,4.7309,4.7309,4.7309,4.7309,4.7309,4.7309,4.7309,4.7309,4.7309,4.7309,4.6741,4.6354,4.6354,4.6965,4.7309,4.7309,4.7309,4.7309,4.7309,4.7309,4.7309,4.7309,4.7309,4.7309,4.7309,4.7309,4.7309,4.7651,0.0,5.0405,5.0501,5.0805,5.112,0.0,5.1214,5.1214,5.1214,5.1214,5.1214,5.1214,5.1214,5.1379,5.1887,5.1962,5.2247,5.3069,5.3638,0.0,5.5089,5.4545,5.3838,5.3151,5.2204,5.1276,5.0449,5.0135,4.9926,4.9717,4.9717,4.9717,4.9717,4.9717,4.9717,4.9717,4.9717,4.9717,4.9717,4.9717,4.9717,4.9717,4.9717,4.9717,0.0,0.0,0.0,4.9717,4.9717,4.9717,4.9717,4.9717,4.9717,4.9717,4.9717,4.9829,5.0038,5.0038,5.0183,5.0438,5.0647,5.0917,5.1214,5.1214,5.0646,4.9972,4.9777,4.894,4.8057,4.8057,4.7683,4.7309,4.7309,4.7309,4.7309,4.7309,4.7309,4.7309,4.7309,4.7309,4.7309,4.7309,4.7309,4.7309,4.7309,4.7309,4.7309,4.7309,4.7309,4.7309,4.7309,4.7309,4.7309,4.7309,4.716,4.707,4.707,4.7219,4.7309,4.7309,4.7309,4.7309,4.7309,4.7309,4.7309,4.7309,4.7309,4.7309,4.7309,4.7309,4.7309,4.7762,4.8981,5.0117,5.0427,5.0867,5.1214,5.1214,5.1214,5.1214,5.1214,5.1214,5.1214,5.1214,5.1214,5.1334,5.1693,5.1753,5.2082,5.3039,0.0,5.4461,5.5119,5.4326,5.3593,0.0,5.2066,5.1128,5.053,5.0246,4.999,4.9717,4.9717,4.9717,4.9717,4.9717,4.9717,4.9717,4.9717,4.9717,4.9717,4.9717,4.9717,4.9717,4.9717,4.9717,0.0,0.0,0.0,4.9717,4.9717,4.9717,4.9717,4.9717,4.9717,4.9717,4.9717,4.9878,5.0086,5.0086,5.0327,5.071,5.0932,5.1073,5.1214,5.1214,5.0928,5.0584,5.0285,4.9508,4.8715,4.8356,4.8012,4.7683,4.7369,4.7309,4.7309,4.7309,4.7309,4.7309,4.7309,4.7309,4.7309,4.7309,4.7309,4.7309,4.7309,4.7309,4.7309,4.7309,4.7309,4.7309,4.7309,4.7309,4.7309,4.7309,4.7309,4.7309,4.7309,4.7309,4.7309,4.7309,4.7309,4.7309,4.7309,4.7309,4.7309,4.7309,4.7309,4.7309,4.7309,4.7309,4.7309,4.7919,4.8799,4.9575,5.0342,5.0852,5.1214,5.1214,5.1214,5.1214,5.1214,5.1214,5.1214,5.1214,5.1214,5.1214,5.1214,5.1214,5.1678,5.2995,5.3683,5.4296,5.497,5.3937,0.0,5.3039,5.1727,5.0775,5.0581,5.0327,5.0072,4.9829,4.9829,4.9829,4.9829,4.9781,4.9781,4.9829,4.9732,4.9717,4.9717,4.9717,4.9717,4.9717,4.9717,4.9717,4.9717,0.0,0.0,4.9717,4.9717,4.9717,4.9717,4.9717,4.9717,4.9717,4.9732,4.9926,5.0183,5.0231,5.0552,5.0902,5.112,5.1214,5.1214,5.1214,5.1214,5.1063,5.0495,4.9912,4.9329,4.873,4.8431,4.8147,4.7593,4.7369,4.7309,4.7309,4.7309,4.7309,4.7309,4.7309,4.7309,4.7309,4.7309,4.7309,4.7309,4.7309,4.7309,4.7309,4.7309,4.7309,4.7309,4.7309,4.7309,4.7309,4.7309,4.7309,4.7309,4.7309,4.7309,4.7309,4.7309,4.7309,4.7309,4.7309,4.7309,4.7309,4.7309,4.7309,4.7309,4.7309,4.7309,4.7848,4.8599,4.9261,5.0463,5.0979,5.1214,5.1214,5.1214,5.1214,5.1214,5.1214,5.1214,5.1214,5.1214,5.1214,5.1214,5.1214,5.1678,0.0,0.0,5.3593,5.4281,0.0,5.2965,5.2411,5.1616,5.1026,5.0775,5.0713,5.0585,5.039,5.039,5.039,5.039,5.0135,5.0135,5.0342,4.9926,4.9717,4.9717,4.9717,4.9717,4.9717,4.9717,4.9717,4.9717,0.0,4.9717,4.9717,4.9717,4.9717,4.9717,4.9717,4.9717,4.9732,4.9926,5.0198,5.0501,5.0899,5.1073,5.1167,5.1167,5.1214,5.1214,5.1214,5.1214,5.1199,5.1094,5.0586,5.0016,4.9927,4.9119,4.8252,4.8162,4.7713,4.7309,4.7309,4.7309,4.7309,4.7309,4.7309,4.7309,4.7309,4.7309,4.7309,4.7309,4.7309,4.7309,4.7309,4.7309,4.7309,4.7309,4.7309,4.7309,4.7309,4.7309,4.7309,4.7309,4.7309,4.7309,4.7309,4.7309,4.7309,4.7309,4.7309,4.7309,4.7309,4.7309,4.7309,4.7309,4.7309,4.7309,4.7577,4.8397,4.9145,5.0205,5.0851,5.1214,5.1214,5.1214,5.1214,5.1214,5.1214,5.1214,5.1214,5.1214,5.1214,5.1214,5.1214,5.1558,5.2516,5.265,5.2905,0.0,0.0,5.2531,5.2232,5.1603,5.1073,5.0807,5.0807,5.0728,5.0501,5.0501,5.0501,5.0501,5.039,5.039,5.0501,5.0246,5.0038,4.9926,4.9781,4.9717,4.9717,4.9717,4.9717,4.9717,0.0,4.9717,4.9717,4.9717,4.9717,4.9717,4.9717,4.9717,4.9732,5.0135,5.0471,5.0695,5.1073,5.1214,5.1214,5.1214,5.1214,5.1214,5.1214,5.1214,5.1214,5.1214,5.1005,5.0644,5.0285,4.9523,4.8775,4.8371,4.7788,4.7309,4.7309,4.7309,4.7309,4.7309,4.7309,4.7309,4.7309,4.7309,4.7309,4.7309,4.7309,4.7309,4.7309,4.7309,4.7309,4.7309,4.7309,4.7309,4.7309,4.7309,4.7309,4.7309,4.7309,4.7309,4.7309,4.7309,4.7309,4.7309,4.7309,4.7309,4.7309,4.7309,4.7309,4.7309,4.7309,4.7309,4.7376,4.8193,4.8939,4.9792,5.0496,5.0988,5.1184,5.1094,5.099,5.099,5.099,5.099,5.099,5.1063,5.1214,5.1214,5.1214,5.1454,5.2112,5.2202,5.2381,5.289,5.2501,5.2142,5.1977,5.1513,5.112,5.0917,5.0902,5.0837,5.0677,5.0677,5.0677,5.0677,5.0581,5.0581,5.0677,5.0548,5.0342,5.0086,4.9878,4.9781,4.9717,4.9717,4.9717,4.9717,4.9717,4.9717,4.9717,4.9717,4.9732,4.9781,4.9781,4.9863,5.0009,5.0423,5.0695,5.0917,5.112,5.1214,5.1214,5.1214,5.1214,5.1214,5.1214,5.1214,5.1214,5.1214,5.1214,5.1063,5.0554,4.9987,4.9329,4.8671,4.8012,4.7489,4.7339,4.7309,4.7309,4.7309,4.7309,4.7309,4.7309,4.7309,4.7309,4.7309,4.7309,4.7309,4.7309,4.7309,4.7309,4.7309,4.7309,4.7309,4.7309,4.7309,4.7309,4.7309,4.7309,4.7309,4.7309,4.7309,4.7309,4.7309,4.7309,4.7309,4.7309,4.7309,4.7309,4.7309,4.7309,4.7309,4.7435,4.7956,4.8506,4.9164,4.9823,5.042,5.1079,5.0704,5.0255,5.0255,5.0255,5.0255,5.0255,5.0764,5.1214,5.1214,5.1214,5.1454,5.2112,0.0,5.2217,5.2261,5.2232,5.1962,5.1349,5.1244,5.1167,5.1167,5.1167,5.1167,5.1167,5.1167,5.1167,5.1167,5.0917,5.0917,5.1135,5.0724,5.0342,5.0086,5.0086,4.9926,4.9717,4.9717,4.9717,4.9717,4.9717,4.9717,4.9717,4.9717,4.9829,5.0086,5.0086,5.0361,5.0713,5.076,5.0964,5.1167,5.1167,5.1214,5.1214,5.1214,5.1214,5.1214,5.1214,5.1214,5.1214,5.1214,5.1214,5.1214,5.1154,5.0614,5.0002,4.9389,4.8745,4.8057,4.7429,4.7309,4.7309,4.7309,4.7309,4.7309,4.7309,4.7309,4.7309,4.7309,4.7309,4.7309,4.7309,4.7309,4.7309,4.7309,4.7309,4.7309,4.7309,4.7309,4.7309,4.7309,4.7309,4.7309,4.7309,4.7309,4.7309,4.7309,4.7309,4.7309,4.7309,4.7309,4.7309,4.7309,4.7309,4.7309,4.7052,4.803,4.885,4.8701,4.9464,5.0255,5.051,5.0689,5.0808,5.0808,5.0808,5.0808,5.0808,5.0674,5.0689,5.1154,5.1214,5.1304,5.1558,5.1588,5.1588,5.1588,5.1588,5.1498,5.1244,5.1214,5.1214,5.1214,5.1214,0.0,5.1214,5.1214,5.1214,5.1214,5.112,5.112,5.1214,5.1041,5.079,5.0537,5.0423,5.0198,4.9926,5.0135,5.0086,4.9975,5.0135,5.0086,4.9926,4.9926,5.0038,5.0135,5.0294,5.0552,5.0807,5.0807,5.0964,5.1214,5.1214,5.1214,5.1214,5.1214,5.1214,5.1214,5.1214,5.1214,5.1214,5.1214,5.1214,5.1214,5.1214,5.0689,5.0121,4.9927,4.906,4.8222,4.7967,4.7593,4.7309,4.7309,4.7309,4.7309,4.7309,4.7309,4.7309,4.7309,4.7309,4.7309,4.7309,4.7309,4.7309,4.7309,4.7309,4.7309,4.7309,4.7309,4.7309,4.7309,4.7309,4.7309,4.7309,4.7309,4.7309,4.7309,4.7309,4.7309,4.7309,4.7309,4.7309,4.7309,4.7309,4.7519,4.6606,4.7612,4.8596,4.8341,4.9105,4.9942,4.9942,5.0436,5.0855,5.0646,5.0601,5.0661,5.087,0.0,0.0,0.0,5.1214,5.1214,5.1214,5.1214,5.1214,5.1214,5.1214,5.1214,5.1214,5.1214,5.1214,5.1214,5.1214,0.0,0.0,5.1214,5.1214,5.1214,5.1214,5.1214,5.1214,5.1214,5.112,5.0917,5.0805,5.0534,5.0246,5.0405,5.039,5.0246,5.0405,5.039,5.0246,5.0246,5.0279,5.0361,5.0629,5.0805,5.0917,5.0917,5.1058,5.1214,5.1214,5.1214,5.1214,5.1214,5.1214,5.1214,5.1214,5.1214,5.1214,5.1214,5.1214,5.1214,5.1214,5.0838,5.045,5.024,4.9553,4.879,4.8371,4.7938,4.7549,4.7339,4.7309,4.7309,4.7309,4.7309,4.7309,4.7309,4.7309,4.7309,4.7309,4.7309,4.7309,4.7309,4.7309,4.7309,4.7309,4.7309,4.7309,4.7309,4.7309,4.7309,4.7309,4.7309,4.7309,4.7309,4.7309,4.7309,4.7309,4.7309,4.7309,4.7309,4.7519,4.7863,4.6088,4.6644,4.7459,4.8117,4.882,4.9314,4.9299,4.9763,5.0001,4.9434,4.9299,4.9464,5.0061,5.0181,0.0,5.1063,5.1214,5.1214,5.1214,5.1214,5.1214,5.1214,5.1214,5.1214,5.1214,5.1214,5.1214,5.1214,5.1214,0.0,0.0,5.1214,5.1214,5.1214,5.1214,5.1214,5.1214,5.1214,5.1214,5.1214,5.1214,5.0947,5.0501,5.0501,5.0501,5.0501,5.0501,5.0501,5.0501,5.0501,5.0614,5.0807,5.112,5.1214,5.1214,5.1214,5.1214,5.1214,5.1214,5.1214,5.1214,5.1214,5.1214,5.1214,5.1214,5.1214,5.1214,5.1214,5.1214,5.1214,5.1214,5.1214,5.1003,5.036,5.0196,4.9837,4.8581,4.8297,4.8087,4.7444,4.7309,4.7309,4.7309,4.7309,4.7309,4.7309,4.7309,4.7309,4.7309,4.7309,4.7309,4.7309,4.7309,4.7309,4.7309,4.7324,4.7324,4.7324,4.7309,4.7309,4.7309,4.7309,4.7309,4.7309,4.7309,4.7309,4.7309,4.7309,4.7309,4.7339,4.7982,4.8297,4.5573,4.6399,4.7354,4.7549,4.8446,4.9194,4.8686,4.9449,5.0001,4.9434,4.894,4.8775,4.9434,4.9553,0.0,5.0375,5.0868,5.1214,5.1214,5.1214,5.1214,5.1214,5.1214,5.1214,5.1214,5.1214,5.1214,5.1214,0.0,0.0,0.0,5.1214,5.1214,5.1214,5.1214,5.1214,5.1214,5.1214,5.1214,5.1214,5.1214,5.1026,5.0728,5.0899,5.0885,5.0728,5.0899,5.0885,5.0728,5.0728,5.0728,5.0807,5.112,5.1214,5.1214,5.1214,5.1214,5.1214,5.1214,5.1214,5.1214,5.1214,5.1214,5.1214,5.1214,5.1214,5.1214,5.1214,5.1214,5.1214,5.1214,5.1214,5.1169,5.0928,5.0524,5.0091,4.9702,4.894,4.8222,4.8027,4.7623,4.7309,4.7309,4.7309,4.7309,4.7309,4.7309,4.7309,4.7309,4.7309,4.7309,4.7309,4.7713,4.7997,4.7997,4.8416,4.8686,4.8686,4.8252,4.7788,4.7324,4.7309,4.7309,4.7309,4.7309,4.7309,4.7309,4.7309,4.7534,4.7997,4.8192,4.8775,4.556,4.6595,4.7758,4.8012,4.8686,4.9134,4.8431,4.8895,4.9419,4.9344,4.879,4.8476,4.9194,4.9314,0.0,5.0091,5.0749,5.1214,5.1214,5.1214,5.1214,5.1214,5.1214,5.1214,5.1214,5.1214,5.1214,5.1214,0.0,0.0,0.0,5.1214,5.1214,5.1214,5.1214,5.1214,5.1214,5.1214,5.1214,5.1214,5.1214,5.112,5.0964,5.112,5.112,5.0964,5.112,5.112,5.0964,5.0964,5.0964,5.0964,5.112,5.1214,5.1214,5.1214,5.1214,5.1214,5.1214,5.1214,5.1214,5.1214,5.1214,5.1214,5.1214,5.1214,5.1214,5.1214,5.1214,5.1214,5.1214,5.1214,5.1214,5.1214,5.0868,5.0435,4.9957,4.9224,4.8521,4.7997,4.7578,4.7309,4.7309,4.7309,4.7309,4.7309,4.7309,4.7309,4.7309,4.7309,4.7399,4.7668,4.8057,4.8401,4.8656,4.909,4.9314,4.9314,4.894,4.8506,4.8102,4.7833,4.7698,4.7698,4.7698,4.7698,4.7698,4.7698,4.8027,4.8686,4.894,4.9479,4.5849,4.7031,4.8371,4.9134,4.9314,4.912,4.8356,4.8192,4.8371,4.9,4.8611,4.8386,4.903,4.9179,4.9374,4.9927,5.0614,5.1124,5.1124,5.1184,5.1214,5.1214,5.1214,5.1214,5.1214,5.1214,5.1214,0.0,0.0,0.0,5.1214,5.1214,5.1214,5.1214,5.1214,5.1214,5.1214,5.1214,5.1214,5.1214,5.1214,5.1214,5.1214,5.1214,5.1214,5.1214,5.1214,5.1214,5.1214,5.1214,5.1214,5.1214,5.1214,5.1214,5.1214,5.1214,5.1214,5.1214,5.1214,5.1214,5.1214,5.1214,5.1214,5.1214,5.1214,5.1214,5.1214,5.1214,5.1214,5.1214,5.1214,5.1214,5.1214,5.1214,5.1214,5.09,4.9703,4.9389,4.8955,4.7713,4.7384,4.7309,4.7309,4.7309,4.7309,4.7309,4.7309,4.7309,4.7309,4.7354,4.7623,4.8222,4.8386,4.8701,4.9344,4.9464,4.9479,4.9479,4.9434,4.9419,4.9479,4.876,4.8371,4.8371,4.8371,4.8371,4.8371,4.8371,4.8716,4.9419,4.9957,5.0226,4.5347,4.6459,4.7803,4.9015,4.9314,4.9,4.7788,4.7519,4.7563,4.7698,4.7623,4.7563,4.7698,4.8147,4.8536,4.8686,4.9688,5.0405,5.0405,5.0885,5.1214,5.1214,5.1214,5.1214,5.1214,5.1214,5.1214,0.0,0.0,0.0,5.1214,5.1214,5.1214,5.1214,5.1214,5.1214,5.1214,5.1214,5.1214,0.0,5.1214,5.1214,5.1214,5.1214,5.1214,5.1214,5.1214,5.1214,5.1214,5.1214,5.1214,5.1214,5.1214,5.1214,5.1214,5.1214,5.1214,5.1214,5.1214,5.1214,5.1214,5.1214,5.1214,5.1214,5.1214,5.1214,5.1214,5.1214,5.1214,5.1214,5.1214,5.1214,5.1214,5.1214,5.1214,5.1139,5.0855,4.9987,4.9224,4.894,4.8012,4.7309,4.7309,4.7309,4.7309,4.7309,4.7309,4.7309,4.7309,4.7758,4.8132,4.8267,4.9209,4.9822,4.9971,5.0496,5.0795,5.0795,5.0316,5.0257,5.078,4.9673,4.9105,4.9105,4.9105,4.9105,4.9105,4.9105,4.9389,4.9986,5.0121,5.0465,4.5456,4.6909,4.8476,4.9479,4.9494,4.9045,4.7997,4.7534,4.7309,4.7309,4.7309,4.7309,4.7309,4.7848,4.8282,4.8282,4.9119,4.9883,5.0151,5.048,5.0823,5.1184,5.1214,5.1214,5.1214,5.1214,5.1214,0.0,0.0,5.1214,5.1214,5.1214,5.1214,5.1214,5.1214,5.1214,5.1214,5.1214,5.1214,5.1214,5.1214,5.1214,5.1214,5.1214,5.1214,5.1214,5.1214,5.1214,5.1214,5.1214,5.1214,5.1214,5.1214,5.1214,5.1214,5.1214,5.1214,5.1214,5.1214,5.1214,5.1214,5.1214,5.1214,5.1214,5.1214,5.1214,5.1214,5.1214,5.1214,5.1214,5.1214,5.1214,5.1214,5.1214,5.1214,5.1124,5.0764,4.9972,4.9224,4.885,4.7997,4.7309,4.7309,4.7309,4.7309,4.7309,4.7309,4.7414,4.7743,4.8072,4.8521,4.9149,4.9792,5.0315,5.0629,5.102,5.1214,5.1214,5.0853,5.0823,5.1214,5.0556,5.0047,4.9748,4.9733,4.9733,4.9733,4.9733,5.0062,5.0659,5.0345,5.0801,4.5511,4.7508,4.9434,4.9942,4.9748,4.9239,4.8461,4.7863,4.7444,4.7324,4.7309,4.7309,4.7309,4.7743,4.8117,4.8117,4.8715,4.9329,4.9972,5.0121,5.0435,5.1139,5.1214,5.1214,5.1214,5.1214,0.0,0.0,0.0,5.1214,5.1214,5.1214,5.1214,5.1214,5.1214,5.1214,5.1214,5.1214,5.1214,5.1214,5.1214,5.1214,5.1214,5.1214,5.1214,5.1214,5.1214,5.1214,5.1214,5.1214,5.1214,5.1214,5.1214,5.1214,5.1214,5.1214,5.1214,5.1214,5.1214,5.1214,5.1214,5.1214,5.1214,5.1214,5.1214,5.1214,5.1214,5.1214,5.1214,5.1214,5.1214,5.1214,5.1214,5.1214,5.1214,5.1065,5.048,4.9808,4.9149,4.8566,4.7833,4.7309,4.7309,4.7309,4.7339,4.7459,4.7474,4.7713,4.8371,4.8551,4.903,5.0076,5.0285,5.0584,5.1169,5.1214,5.1214,5.1214,5.1214,5.1214,5.1214,5.1214,5.0868,5.0196,5.03,5.03,5.0196,5.0196,5.0405,5.087,5.0316,5.0895,4.4617,4.7194,4.9329,4.9419,4.9748,4.9793,4.8566,4.8222,4.7997,4.7429,4.7309,4.7309,4.7309,4.7369,4.7429,4.7429,4.7997,4.8641,4.9344,4.9883,5.0435,5.1139,5.1214,5.1214,5.1214,5.1214,0.0,0.0,5.1214,5.1214,5.1214,5.1214,5.1214,5.1214,5.1214,5.1214,5.1214,5.1214,5.1214,5.1214,5.1214,5.1214,5.1214,5.1214,5.1214,5.1214,5.1214,5.1214,5.1214,5.1214,5.1214,5.1214,5.1214,5.1214,5.1214,5.1214,5.1214,5.1214,5.1214,5.1214,5.1214,5.1214,5.1214,5.1214,5.1214,5.1214,5.1214,5.1214,5.1214,5.1214,5.1214,5.1214,5.1214,5.1214,5.1214,5.1199,5.1109,5.0122,4.9284,4.9194,4.8147,4.7309,4.7309,4.7309,4.7504,4.8072,4.8162,4.8401,4.909,4.9628,5.0001,5.0166,5.0704,5.1124,5.1214,5.1214,5.1214,5.1214,5.1214,5.1214,5.1214,5.1214,5.0868,5.0196,5.0749,5.0764,5.0196,5.0196,5.0002,4.9569,4.9479,5.0245,4.5356,4.7121,4.8431,4.9538,4.9748,4.9643,4.9434,4.909,4.8656,4.7997,4.7863,4.7743,4.7369,4.7309,4.7309,4.7309,4.7549,4.7967,4.8626,4.897,4.9523,5.051,5.0629,5.0764,5.1184,5.1214,0.0,0.0,5.1214,5.1214,5.1214,5.1214,5.1214,5.1214,5.1214,5.1214,5.1214,5.1214,5.1214,5.1214,5.1214,5.1214,5.1214,5.1214,5.1214,5.1214,5.1214,5.1214,5.1214,5.1214,5.1214,5.1214,5.1214,5.1214,5.1214,5.1214,5.1214,5.1214,5.1214,5.1214,5.1214,5.1214,5.1214,5.1214,5.1214,5.1214,5.1214,5.1214,5.1214,5.1214,5.1214,5.1214,5.1214,5.1214,5.1214,5.1214,5.1214,5.0481,4.9703,4.9389,4.8207,4.7534,4.8282,4.7803,4.7653,4.8686,4.8521,4.8656,4.9673,5.0016,5.033,5.0704,5.1003,5.1214,5.1214,5.1214,5.1214,5.1214,5.1214,5.1214,5.1214,5.1214,5.0868,5.0196,5.048,5.0346,4.9703,4.9703,4.9794,4.9951,4.9571,5.0746,4.5357,4.6423,4.7148,4.9,4.9374,4.9434,4.9883,4.9748,4.9329,4.8671,4.8536,4.8386,4.7893,4.7534,4.7309,4.7309,4.7309,4.7534,4.8192,4.8282,4.8716,4.9853,5.0091,5.039,5.0883,5.1124,0.0,0.0,5.1214,5.1154,5.0928,5.0928,5.0928,5.0928,5.0928,5.105,5.1214,5.1214,5.1214,5.1214,5.1214,5.1214,5.1214,5.1214,5.1214,5.1214,5.1214,5.1214,5.1214,5.1214,5.1214,5.1214,5.1214,5.1214,5.1214,5.1214,5.1214,5.1214,5.1214,5.1214,5.1214,5.1214,5.1214,5.1214,5.1214,5.1214,5.1214,5.1214,5.1214,5.1214,5.1214,5.1214,5.1214,5.1214,5.1214,5.1169,5.0958,5.0451,4.9853,4.9404,4.8341,4.7923,4.912,4.8461,4.8192,4.9344,4.909,4.9194,5.03,5.0435,5.0629,5.1169,5.1214,5.1214,5.1214,5.1214,5.1214,5.1214,5.1214,5.1214,5.1214,5.1214,5.0868,5.0196,5.0196,4.9838,4.906,4.9224,4.9626,5.0254,4.9916,5.1393,4.3353,4.4475,4.5501,4.7071,4.8371,4.9329,4.9359,4.9778,5.0002,4.9389,4.9269,4.9254,4.9209,4.8147,4.7309,4.7309,4.7309,4.7534,4.8192,4.8282,4.8536,4.9284,4.9868,5.0196,5.024,0.0,0.0,0.0,5.1214,5.0898,5.0285,5.024,5.024,5.024,5.024,5.0539,5.1214,5.1214,5.1214,5.1214,5.1214,5.1214,5.1214,5.1214,5.1214,5.1214,5.1214,5.1214,5.1214,5.1214,5.1214,5.1214,5.1214,5.1214,5.1214,5.1214,5.1214,5.1214,5.1214,5.1214,5.1214,5.1214,5.1214,5.1214,5.1214,5.1214,5.1214,5.1214,5.1214,5.1214,5.1214,5.1214,5.1214,5.1214,5.1214,5.105,5.0375,4.9778,4.9359,4.9329,4.8745,4.8461,4.9194,4.9254,4.9389,5.0046,5.0106,5.0345,5.1079,5.1169,5.1184,5.1214,5.1214,5.1214,5.1214,5.1214,5.1214,5.1214,5.1214,5.1214,5.1214,5.1214,5.0868,5.0196,5.0196,4.9613,4.8341,4.9,4.9428,4.9674,5.0248,5.1931,4.2238,4.3418,4.4715,4.6109,4.6939,4.7593,4.8446,4.9149,4.9553,4.9359,4.9598,4.9763,4.9389,4.8925,4.8416,4.7997,4.7938,4.7878,4.7683,4.7653,4.7908,4.8566,4.9209,4.9778,5.0151,0.0,0.0,0.0,0.0,5.0435,5.0196,4.9838,4.9613,4.9613,5.0017,5.051,5.1214,5.1214,5.1214,5.1214,5.1214,5.1214,5.1214,5.1214,5.1214,5.1214,5.1214,5.1214,5.1214,5.1214,5.1214,5.1214,5.1214,5.1214,5.1214,5.1214,5.1214,5.1214,5.1214,5.1214,5.1214,5.1214,5.1214,5.1214,5.1214,5.1214,5.1214,5.1214,5.1214,5.1214,5.1214,5.1214,5.1214,5.1214,5.1214,5.1154,5.0868,5.0346,5.0017,5.0436,4.9658,4.9254,5.0331,4.9823,4.9628,5.0705,5.0465,5.042,5.1124,5.1214,5.1214,5.1214,5.1214,5.1214,5.1214,5.1214,5.1214,5.1214,5.1214,5.1214,5.1214,5.1214,5.0868,5.0196,5.0196,4.9793,4.8955,4.9757,5.0479,5.11,5.1605,5.2861,4.1014,4.2189,4.3507,4.5213,4.5645,4.6112,4.7878,4.8461,4.8745,4.9224,4.9778,5.0061,4.9673,4.9778,4.9628,4.876,4.8431,4.8132,4.7698,4.7444,4.7474,4.7908,4.858,4.9194,4.9853,0.0,0.0,0.0,0.0,0.0,4.9942,4.9508,4.9314,4.9314,4.9898,5.051,5.1214,5.1214,5.1214,5.1214,5.1214,5.1214,5.1214,5.1214,5.1214,5.1214,5.1214,5.1214,5.1214,5.1214,5.1214,5.1214,5.1214,5.1214,5.1214,5.1214,5.1214,5.1214,5.1214,5.1214,5.1214,5.1214,5.1214,5.1214,5.1214,5.1214,5.1214,5.1214,5.1214,5.1214,5.1214,5.1214,5.1214,5.1214,5.1214,5.1214,5.1214,5.0659,5.039,5.1094,5.0331,4.9942,5.1035,5.0496,5.0227,5.1094,5.0808,5.0689,5.1154,5.1214,5.1214,5.1214,5.1214,5.1214,5.1214,5.1214,5.1214,5.1214,5.1214,5.1214,5.1214,5.1214,5.1005,5.0524,5.0524,5.0392,5.0049,5.0642,5.1316,5.2039,5.2792,5.378,0.0,0.0,0.0,4.4293,4.456,4.4919,4.7578,4.7668,4.7593,4.8985,4.9718,5.0121,5.0166,5.0704,5.078,4.9554,4.876,4.8341,4.8312,4.7743,4.7339,4.7339,4.7893,4.8536,4.9239,0.0,0.0,0.0,5.1199,5.0631,4.9389,4.9269,4.9269,4.9314,4.9883,5.048,5.1214,5.1214,5.1214,5.1214,5.1214,5.1214,5.1214,5.1214,5.1214,5.1214,5.1214,5.1214,5.1214,5.1214,5.1214,5.1214,5.1214,5.1214,5.1214,5.1214,5.1214,5.1214,5.1214,5.1214,5.1214,5.1214,5.1214,5.1214,5.1214,5.1214,5.1214,5.1214,5.1214,5.1214,5.1214,5.1214,5.1214,5.1214,5.1214,5.1214,5.1214,5.0674,5.0405,5.1094,5.0659,5.042,5.1109,5.1214,5.1214,5.1214,5.1214,5.1214,5.1214,5.1214,5.1214,5.1214,5.1214,5.1214,5.1214,5.1214,5.1214,5.1214,5.1214,5.1214,5.1214,5.1214,5.1214,5.1214,5.1214,5.1339,5.1603,5.1617,5.1868,5.2258,5.3776,5.4711,3.7674,0.0,0.0,0.0,0.0,0.0,0.0,4.515,4.5663,4.7474,4.7997,4.8401,4.9359,5.0077,5.0345,5.0032,4.9823,4.9538,4.906,4.8431,4.8012,4.8012,4.8177,4.8536,0.0,0.0,0.0,0.0,5.0734,5.0137,4.9359,4.8356,4.8282,4.9284,4.9434,5.0077,5.1214,5.1214,5.1214,5.1214,5.1214,5.1214,5.1214,5.1214,5.1214,5.1214,5.1214,5.1214,5.1214,5.1214,5.1214,5.1214,5.1214,5.1214,5.1214,5.1214,5.1214,5.1214,5.1214,5.1214,5.1214,5.1214,5.1214,5.1214,5.1214,5.1214,5.1214,5.1214,5.1214,5.1214,5.1214,5.1214,5.1214,5.1214,5.1214,5.1214,5.1214,5.1065,5.1005,5.1184,5.1065,5.0958,5.1184,5.1214,5.1214,5.1214,5.1214,5.1214,5.1214,5.1214,5.1214,5.1214,5.1214,5.1214,5.1214,5.1214,5.1214,5.1214,5.1214,5.1214,5.1214,5.1214,5.1308,5.1494,5.1494,5.1361,5.1167,5.225,5.2907,5.3163,5.3992,5.4477,0.0,0.0,0.0,0.0,0.0,0.0,4.3175,4.3436,4.3847,0.0,4.7071,4.7623,4.8715,4.9389,4.9927,5.0151,5.0196,5.0061,4.9718,4.9105,4.8596,4.8312,4.8536,4.8895,0.0,4.9868,5.0465,5.1169,5.0823,5.0242,4.9359,4.8012,4.7908,4.9269,4.9314,4.9898,5.1214,5.1214,5.1214,5.1214,5.1214,5.1214,5.1214,5.1214,5.1214,5.1214,5.1214,5.1214,5.1214,5.1214,5.1214,5.1214,5.1214,5.1214,5.1214,5.1214,5.1214,5.1214,5.1214,5.1214,5.1214,5.1214,5.1214,5.1214,5.1214,5.1214,5.1214,5.1214,5.1214,5.1214,5.1214,5.1214,5.1214,5.1214,5.1214,5.1214,5.1214,5.1214,5.1214,5.1214,5.1214,5.1214,5.1214,5.1214,5.1214,5.1214,5.1214,5.1214,5.1214,5.1214,5.1214,5.1214,5.1214,5.1214,5.1214,5.1214,5.1214,5.1214,5.1214,5.1214,5.1214,5.1308,5.1448,5.1587,5.1726,5.1742,5.1693,5.2791,5.3479,5.3825,5.3916,5.4041,0.0,0.0,0.0,0.0,0.0,0.0,4.2051,4.1938,4.1957,0.0,4.6068,4.6836,4.7713,4.8506,4.9239,4.9777,5.0046,5.0226,5.0285,4.9793,4.9194,4.8566,4.9,4.9344,4.9404,4.9898,5.0465,5.1169,5.1079,5.0496,4.9374,4.8087,4.7982,4.9269,4.9389,4.9972,5.1214,5.1214,5.1214,5.1214,5.1214,5.1214,5.1214,5.1214,5.1214,5.1214,5.1214,5.1214,5.1214,5.1214,5.1214,5.1214,5.1214,5.1214,5.1214,5.1214,5.1214,5.1214,5.1214,5.1214,5.1214,5.1214,5.1214,5.1214,5.1214,5.1214,5.1214,5.1214,5.1214,5.1214,5.1214,5.1214,5.1214,5.1214,5.1214,5.1214,5.1214,5.1214,5.1214,5.1214,5.1214,5.1214,5.1214,5.1214,5.1214,5.1214,5.1214,5.1214,5.1214,5.1214,5.1214,5.1214,5.1214,5.1214,5.1214,5.1214,5.1214,5.1214,5.1214,5.1214,5.1214,5.1448,5.1634,5.1634,5.1865,5.2197,5.2636,5.3102,5.3655,5.4206,5.3737,5.3551,0.0,0.0,0.0,0.0,0.0,0.0,3.9178,3.8797,3.8902,0.0,4.2235,4.2682,4.4691,4.6516,4.7728,4.7863,4.9164,5.0375,5.0945,5.0466,4.9956,4.9822,4.9508,4.9479,5.0002,5.0121,5.0465,5.1169,5.0242,4.9584,4.9329,4.8521,4.8461,4.9284,4.9778,5.0375,5.1214,5.1214,5.1214,5.1214,5.1214,5.1214,5.1214,5.1214,5.1214,5.1214,5.1214,5.1214,5.1214,5.1214,5.1214,5.1214,5.1214,5.1214,5.1214,5.1214,5.1214,5.1214,5.1214,5.1214,5.1214,5.1214,5.1214,5.1214,5.1214,5.1214,5.1214,5.1214,5.1214,5.1214,5.1214,5.1214,5.1214,5.1214,5.1214,5.1214,5.1214,5.1214,5.1214,5.1214,5.1214,5.1214,5.1214,5.1214,5.1214,5.1214,5.1214,5.1214,5.1214,5.1214,5.1214,5.1214,5.1214,5.1214,5.1214,5.1214,5.1214,5.1214,5.1214,5.1214,5.1214,5.1448,5.168,5.1941,5.1924,5.2005,5.2217,5.2308,5.2803,5.3636,5.3535,5.3822,0.0,0.0,0.0,3.4817,0.0,0.0,0.0,3.7124,3.7494,3.9775,4.0462,4.1207,4.3148,4.4428,4.5645,4.7058,4.7863,4.8701,5.0062,5.0526,5.0554,5.0226,5.0242,5.0242,5.0196,5.048,5.0823,5.1184,5.0002,4.9449,4.9733,4.882,4.873,4.9718,5.0016,5.051,5.1214,5.1214,5.1214,5.1214,5.1214,5.1214,5.1214,5.0823,5.0689,5.0659,5.0376,5.0421,5.0689,5.0689,5.0883,5.1214,5.1214,5.1214,5.1214,5.1214,5.1214,5.1214,5.1214,5.1214,5.1214,5.1214,5.1214,5.1214,5.1214,5.1214,5.1214,5.1214,5.1214,5.1214,5.1214,5.1214,5.1214,5.1214,5.1214,5.1214,5.1214,5.1214,5.1214,5.1214,5.1214,5.1214,5.1214,5.1214,5.1214,5.1214,5.1214,5.1214,5.1214,5.1214,5.1214,5.1214,5.1214,5.1214,5.1214,5.1214,5.1214,5.1214,5.1214,5.1261,5.1401,5.1649,5.1972,5.2425,5.2114,5.2181,5.2691,5.2347,5.2655,5.3518,5.3873,5.4245,0.0,0.0,0.0,0.0,0.0,3.4091,0.0,0.0,0.0,0.0,0.0,0.0,0.0,0.0,0.0,0.0,0.0,0.0,0.0,5.0092,0.0,5.024,5.0764,5.1005,5.0435,5.0749,5.1079,5.1214,5.0002,4.9553,5.0166,4.9239,4.9149,5.0166,5.0315,5.0629,5.1214,5.1214,5.1214,5.1214,5.1094,5.0988,5.1005,5.03,5.0001,5.0017,4.9494,4.9628,5.0196,5.0196,5.0584,5.1214,5.1214,5.1214,5.1214,5.1214,5.1214,5.1214,5.1214,5.1214,5.1214,5.1214,5.1214,5.1214,5.1214,5.1214,5.1214,5.1214,5.1214,5.1214,5.1214,5.1214,5.1214,5.1214,5.1214,5.1214,5.1214,5.1214,5.1214,5.1214,5.1214,5.1214,5.1214,5.1214,5.1214,5.1214,5.1214,5.1214,5.1214,5.1214,5.1214,5.1214,5.1214,5.1214,5.1214,5.1214,5.1214,5.1214,5.1261,5.1354,5.1587,5.2048,5.2507,5.2897,5.2574,5.2679,5.3314,5.2798,5.2868,5.3518,5.4245,5.4668,0.0,0.0,0.0,0.0,3.3533,0.0,0.0,0.0,3.3943,3.5571,0.0,0.0,0.0,0.0,0.0,0.0,0.0,0.0,4.8282,4.9075,4.9673,5.0136,5.0764,5.1184,0.0,5.0599,5.0539,5.1169,5.0002,4.9553,5.0166,5.0046,5.0046,5.0196,5.0764,5.1139,5.1214,5.1214,5.1214,5.1214,5.0584,5.03,5.0285,4.9673,4.9419,4.9419,4.9344,4.9628,5.0196,5.0196,5.0584,5.1214,5.1214,5.1214,5.1214,5.1214,5.1214,5.1214,5.1214,5.1214,5.1214,5.1214,5.1214,5.1214,5.1214,5.1214,5.1214,5.1214,5.1214,5.1214,5.1214,5.1214,5.1214,5.1214,5.1214,5.1214,5.1214,5.1214,5.1214,5.1214,5.1214,5.1214,5.1214,5.1214,5.1214,5.1214,5.1214,5.1214,5.1214,5.1214,5.1214,5.1214,5.1214,5.1214,5.1214,5.1214,5.1214,5.1214,5.1401,5.1587,5.1587,5.2769,5.3259,5.3007,5.3743,5.3857,5.3404,5.3376,5.3433,5.3518,5.4245,5.4955,0.0,0.0,0.0,0.0,0.0,0.0,3.3445,0.0,3.3303,0.0,0.0,0.0,0.0,0.0,0.0,0.0,4.3822,0.0,0.0,0.0,4.894,0.0,0.0,0.0,0.0,0.0,0.0,0.0,5.0002,4.9718,5.0704,5.0405,5.036,5.0749,5.1065,5.1214,5.1214,5.1214,5.102,5.0599,5.0315,5.0001,4.9658,4.9,4.8701,4.8686,4.8297,4.8491,4.9134,4.9523,5.0062,5.0644,5.1065,5.1214,5.1214,5.1214,5.1214,5.1214,5.1214,5.1214,5.1214,5.1214,5.1214,5.1214,5.1214,5.1214,5.1214,5.1214,5.1214,5.1214,5.1214,5.1214,5.1214,5.1214,5.1214,5.1214,5.1214,5.1214,5.1214,5.1214,5.1214,5.1214,5.1214,5.1214,5.1214,5.1214,5.1214,5.1214,5.1214,5.1214,5.1214,5.1214,5.1214,5.1214,5.1214,5.1214,5.1261,5.1401,5.1803,5.223,5.2725,5.3459,5.4009,5.4442,5.4864,5.4948,5.4735,5.4748,5.4786,5.4786,5.5108,5.5632,3.5056,0.0,0.0,0.0,0.0,0.0,0.0,0.0,0.0,0.0,0.0,0.0,0.0,0.0,0.0,0.0,0.0,4.3872,0.0,0.0,0.0,0.0,0.0,0.0,0.0,0.0,0.0,0.0,0.0,4.9838,5.1154,5.0719,5.0689,5.1199,5.1214,5.1214,5.1214,5.1214,5.0838,5.0196,5.0001,4.9628,4.9015,4.8312,4.8012,4.7997,4.7519,4.7683,4.8341,4.9045,4.9658,5.0255,5.096,5.1214,5.1214,5.1214,5.1214,5.1214,5.1214,5.1214,5.1214,5.1214,5.1214,5.1214,5.1214,5.1214,5.1214,5.1214,5.1214,5.1214,5.1214,5.1214,5.1214,5.1214,5.1214,5.1214,5.1214,5.1214,5.1214,5.1214,5.1214,5.1214,5.1214,5.1214,5.1214,5.1214,5.1214,5.1214,5.1214,5.1214,5.1214,5.1214,5.1214,5.1214,5.1214,5.1214,5.1433,5.2048,5.2457,5.3095,5.4046,5.4469,5.5053,5.5781,5.5863,5.59,5.6004,5.5818,5.5783,5.6004,5.6004,5.6292,0.0,0.0,0.0,3.4793,0.0,0.0,0.0,0.0,3.4022,0.0,0.0,0.0,0.0,0.0,0.0,0.0,0.0,0.0,0.0,0.0,0.0,0.0,0.0,0.0,0.0,0.0,0.0,0.0,4.9643,0.0,5.1154,5.1199,5.1199,5.1214,5.1214,5.1214,5.1214,5.1214,5.0838,5.0181,4.9598,4.9,4.8297,4.7638,4.7339,4.7339,4.7309,4.7683,4.8341,4.9045,4.9658,5.0255,5.096,5.1214,5.1214,5.1214,5.1214,5.1214,5.1214,5.1214,5.1214,5.1214,5.1214,5.1214,5.1214,5.1214,5.1214,5.1214,5.1214,5.1214,5.1214,5.1214,5.1214,5.1214,5.1214,5.1214,5.1214,5.1214,5.1214,5.1214,5.1214,5.1214,5.1214,5.1214,5.1214,5.1214,5.1214,5.1214,5.1214,5.1214,5.1214,5.1214,5.1214,5.1214,5.1214,5.1214,5.1773,5.3137,5.3443,5.4089,5.5215,5.6074,5.652,5.6581,5.6684,5.6746,5.6765,5.6055,5.6089,5.6765,5.6765,5.6782,0.0,0.0,3.5956,3.5357,0.0,0.0,0.0,0.0,0.0,0.0,0.0,0.0,0.0,0.0,0.0,0.0,0.0,0.0,0.0,0.0,0.0,0.0,0.0,0.0,0.0,0.0,0.0,0.0,4.9628,0.0,0.0,5.1214,5.1214,5.1214,5.1214,5.1214,5.1214,5.1214,5.0676,4.9583,4.9419,4.8745,4.7623,4.7399,4.7309,4.7309,4.7309,4.7429,4.7713,4.8865,4.9434,4.9703,5.0795,5.1214,5.1214,5.1214,5.1214,5.1214,5.1214,5.1214,5.1214,5.1214,5.1214,5.1214,5.1214,5.1214,5.1214,5.1214,5.1214,5.1214,5.1214,5.1214,5.1214,5.1214,5.1214,5.1214,5.1214,5.1214,5.1214,5.1214,5.1214,5.1214,5.1214,5.1214,5.1214,5.1214,5.1214,5.1214,5.1214,5.1214,5.1214,5.1214,5.1354,5.1448,5.1448,5.2306,5.3224,5.4311,5.4579,5.5174,5.6113,5.6442,5.6844,5.7443,5.7482,5.7526,5.7526,5.7273,5.7273,5.7526,5.7526,5.7526,3.6119,3.6267,0.0,3.5633,3.5495,0.0,3.4399,0.0,3.5303,0.0,0.0,0.0,0.0,0.0,0.0,0.0,0.0,0.0,0.0,4.5752,0.0,0.0,0.0,0.0,0.0,0.0,4.8476,4.9793,4.9508,0.0,0.0,0.0,5.1214,5.1214,5.1214,5.1214,5.1214,5.0943,5.0331,4.9314,4.9075,4.8356,4.7309,4.7309,4.7309,4.7309,4.7309,4.7309,4.7399,4.8775,4.9314,4.9449,5.0705,5.1214,5.1214,5.1214,5.1214,5.1214,5.1214,5.1214,5.1214,5.1214,5.1214,5.1214,5.1214,5.1214,5.1214,5.1214,5.1214,5.1214,5.1214,5.1214,5.1214,5.1214,5.1214,5.1214,5.1214,5.1214,5.1214,5.1214,5.1214,5.1214,5.1214,5.1214,5.1214,5.1214,5.1214,5.1214,5.1214,5.1214,5.1214,5.1214,5.1448,5.1757,5.2185,5.3356,5.4437,5.5329,5.5603,5.6152,5.7013,5.7051,5.7331,5.7881,5.7881,5.7881,5.7881,5.7881,5.7881,5.7881,5.7881,5.7881]}]]